<?xml version="1.0" encoding="UTF-8" standalone="no" ?>
<gpx xmlns="http://www.topografix.com/GPX/1/1" xmlns:xsi="http://www.w3.org/2001/XMLSchema-instance" xsi:schemaLocation="http://www.topografix.com/GPX/1/1 http://www.topografix.com/GPX/1/1/gpx.xsd" version="1.1" creator="VisuGPX - https://www.visugpx.com">
  <metadata>
    <name>1GR70</name>
    <desc><![CDATA[Randonnée sur le GR®70 Sentier de Stevenson du Puy-en-Velay à Alès via la Haute Loire, la Lozère, l'Ardèche et le Gard. Gîtes d'étapes, Chambres d'hôtes, Maison d'hôtes, Hôtels, Camping, Refuges, Auberges.]]></desc>
  </metadata>
  <trk>
    <name><![CDATA[GR®70 Chemin de Stevenson (2021)]]></name>
    <desc><![CDATA[Randonnée sur le GR®70 Sentier de Stevenson du Puy-en-Velay à Alès via la Haute Loire, la Lozère, l'Ardèche et le Gard. Gîtes d'étapes, Chambres d'hôtes, Maison d'hôtes, Hôtels, Camping, Refuges, Auberges.]]></desc>
    <extensions>
      <line xmlns="http://www.topografix.com/GPX/gpx_style/0/2">
        <color>0000FF</color>
        <width>4</width>
      </line>
    </extensions>
    <trkseg>
      <trkpt lat="45.0436" lon="3.88517">
        <ele>644.311</ele>
        <time>2021-09-27T08:50:21Z</time>
      </trkpt>
      <trkpt lat="45.04357" lon="3.88519">
        <ele>643.721</ele>
        <time>2021-09-27T08:51:01Z</time>
      </trkpt>
      <trkpt lat="45.04353" lon="3.88521">
        <ele>643.203</ele>
        <time>2021-09-27T08:51:41Z</time>
      </trkpt>
      <trkpt lat="45.04349" lon="3.88523">
        <ele>642.808</ele>
        <time>2021-09-27T08:52:21Z</time>
      </trkpt>
      <trkpt lat="45.04345" lon="3.88525">
        <ele>642.219</ele>
        <time>2021-09-27T08:53:01Z</time>
      </trkpt>
      <trkpt lat="45.0434" lon="3.88527">
        <ele>641.725</ele>
        <time>2021-09-27T08:53:41Z</time>
      </trkpt>
      <trkpt lat="45.04336" lon="3.88529">
        <ele>641.23</ele>
        <time>2021-09-27T08:54:21Z</time>
      </trkpt>
      <trkpt lat="45.04331" lon="3.88531">
        <ele>640.752</ele>
        <time>2021-09-27T08:55:01Z</time>
      </trkpt>
      <trkpt lat="45.04327" lon="3.88533">
        <ele>640.23</ele>
        <time>2021-09-27T08:55:41Z</time>
      </trkpt>
      <trkpt lat="45.04323" lon="3.88535">
        <ele>639.613</ele>
        <time>2021-09-27T08:56:21Z</time>
      </trkpt>
      <trkpt lat="45.04318" lon="3.88536">
        <ele>639.135</ele>
        <time>2021-09-27T08:57:01Z</time>
      </trkpt>
      <trkpt lat="45.04314" lon="3.88538">
        <ele>638.565</ele>
        <time>2021-09-27T08:57:41Z</time>
      </trkpt>
      <trkpt lat="45.0431" lon="3.8854">
        <ele>638.056</ele>
        <time>2021-09-27T08:58:21Z</time>
      </trkpt>
      <trkpt lat="45.04305" lon="3.88542">
        <ele>637.559</ele>
        <time>2021-09-27T08:59:01Z</time>
      </trkpt>
      <trkpt lat="45.04301" lon="3.88543">
        <ele>636.914</ele>
        <time>2021-09-27T08:59:41Z</time>
      </trkpt>
      <trkpt lat="45.04297" lon="3.88545">
        <ele>636.208</ele>
        <time>2021-09-27T09:00:21Z</time>
      </trkpt>
      <trkpt lat="45.04292" lon="3.88546">
        <ele>635.573</ele>
        <time>2021-09-27T09:01:01Z</time>
      </trkpt>
      <trkpt lat="45.04287" lon="3.88546">
        <ele>634.919</ele>
        <time>2021-09-27T09:01:41Z</time>
      </trkpt>
      <trkpt lat="45.04282" lon="3.88547">
        <ele>634.124</ele>
        <time>2021-09-27T09:02:21Z</time>
      </trkpt>
      <trkpt lat="45.04277" lon="3.88548">
        <ele>633.356</ele>
        <time>2021-09-27T09:03:01Z</time>
      </trkpt>
      <trkpt lat="45.04272" lon="3.88548">
        <ele>632.164</ele>
        <time>2021-09-27T09:03:41Z</time>
      </trkpt>
      <trkpt lat="45.04267" lon="3.88549">
        <ele>631.097</ele>
        <time>2021-09-27T09:04:21Z</time>
      </trkpt>
      <trkpt lat="45.04262" lon="3.8855">
        <ele>629.859</ele>
        <time>2021-09-27T09:05:01Z</time>
      </trkpt>
      <trkpt lat="45.04257" lon="3.8855">
        <ele>628.659</ele>
        <time>2021-09-27T09:05:41Z</time>
      </trkpt>
      <trkpt lat="45.04252" lon="3.88551">
        <ele>627.551</ele>
        <time>2021-09-27T09:06:21Z</time>
      </trkpt>
      <trkpt lat="45.04247" lon="3.88551">
        <ele>626.901</ele>
        <time>2021-09-27T09:07:01Z</time>
      </trkpt>
      <trkpt lat="45.04242" lon="3.88552">
        <ele>626.611</ele>
        <time>2021-09-27T09:07:41Z</time>
      </trkpt>
      <trkpt lat="45.04238" lon="3.88552">
        <ele>626.208</ele>
        <time>2021-09-27T09:08:21Z</time>
      </trkpt>
      <trkpt lat="45.04233" lon="3.88552">
        <ele>625.893</ele>
        <time>2021-09-27T09:09:01Z</time>
      </trkpt>
      <trkpt lat="45.04228" lon="3.88553">
        <ele>625.539</ele>
        <time>2021-09-27T09:09:41Z</time>
      </trkpt>
      <trkpt lat="45.04223" lon="3.88554">
        <ele>625.114</ele>
        <time>2021-09-27T09:10:21Z</time>
      </trkpt>
      <trkpt lat="45.04218" lon="3.88554">
        <ele>625.086</ele>
        <time>2021-09-27T09:11:01Z</time>
      </trkpt>
      <trkpt lat="45.04213" lon="3.88555">
        <ele>625.024</ele>
        <time>2021-09-27T09:11:41Z</time>
      </trkpt>
      <trkpt lat="45.04208" lon="3.88556">
        <ele>625.047</ele>
        <time>2021-09-27T09:12:21Z</time>
      </trkpt>
      <trkpt lat="45.04209" lon="3.88563">
        <ele>624.969</ele>
        <time>2021-09-27T09:13:01Z</time>
      </trkpt>
      <trkpt lat="45.04209" lon="3.8857">
        <ele>624.769</ele>
        <time>2021-09-27T09:13:41Z</time>
      </trkpt>
      <trkpt lat="45.0421" lon="3.88577">
        <ele>624.633</ele>
        <time>2021-09-27T09:14:21Z</time>
      </trkpt>
      <trkpt lat="45.0421" lon="3.88585">
        <ele>624.423</ele>
        <time>2021-09-27T09:15:01Z</time>
      </trkpt>
      <trkpt lat="45.04211" lon="3.88592">
        <ele>624.315</ele>
        <time>2021-09-27T09:15:41Z</time>
      </trkpt>
      <trkpt lat="45.04211" lon="3.88599">
        <ele>624.208</ele>
        <time>2021-09-27T09:16:21Z</time>
      </trkpt>
      <trkpt lat="45.04212" lon="3.88606">
        <ele>624.111</ele>
        <time>2021-09-27T09:17:01Z</time>
      </trkpt>
      <trkpt lat="45.04212" lon="3.88613">
        <ele>624.077</ele>
        <time>2021-09-27T09:17:41Z</time>
      </trkpt>
      <trkpt lat="45.04212" lon="3.88619">
        <ele>624.062</ele>
        <time>2021-09-27T09:18:21Z</time>
      </trkpt>
      <trkpt lat="45.04212" lon="3.88626">
        <ele>624.044</ele>
        <time>2021-09-27T09:19:01Z</time>
      </trkpt>
      <trkpt lat="45.04213" lon="3.88633">
        <ele>624.022</ele>
        <time>2021-09-27T09:19:41Z</time>
      </trkpt>
      <trkpt lat="45.04213" lon="3.88639">
        <ele>624.045</ele>
        <time>2021-09-27T09:20:21Z</time>
      </trkpt>
      <trkpt lat="45.04213" lon="3.88646">
        <ele>624.187</ele>
        <time>2021-09-27T09:21:01Z</time>
      </trkpt>
      <trkpt lat="45.04214" lon="3.88652">
        <ele>624.177</ele>
        <time>2021-09-27T09:21:41Z</time>
      </trkpt>
      <trkpt lat="45.04214" lon="3.88659">
        <ele>624.225</ele>
        <time>2021-09-27T09:22:21Z</time>
      </trkpt>
      <trkpt lat="45.04214" lon="3.88666">
        <ele>624.326</ele>
        <time>2021-09-27T09:23:01Z</time>
      </trkpt>
      <trkpt lat="45.04215" lon="3.88673">
        <ele>624.408</ele>
        <time>2021-09-27T09:23:41Z</time>
      </trkpt>
      <trkpt lat="45.04216" lon="3.8868">
        <ele>624.608</ele>
        <time>2021-09-27T09:24:21Z</time>
      </trkpt>
      <trkpt lat="45.04217" lon="3.88686">
        <ele>624.78</ele>
        <time>2021-09-27T09:25:01Z</time>
      </trkpt>
      <trkpt lat="45.04218" lon="3.88692">
        <ele>624.916</ele>
        <time>2021-09-27T09:25:41Z</time>
      </trkpt>
      <trkpt lat="45.0422" lon="3.88698">
        <ele>624.891</ele>
        <time>2021-09-27T09:26:21Z</time>
      </trkpt>
      <trkpt lat="45.0422" lon="3.887">
        <ele>624.623</ele>
        <time>2021-09-27T09:27:01Z</time>
      </trkpt>
      <trkpt lat="45.04216" lon="3.88703">
        <ele>624.531</ele>
        <time>2021-09-27T09:27:41Z</time>
      </trkpt>
      <trkpt lat="45.04212" lon="3.88705">
        <ele>624.424</ele>
        <time>2021-09-27T09:28:21Z</time>
      </trkpt>
      <trkpt lat="45.04208" lon="3.88708">
        <ele>624.366</ele>
        <time>2021-09-27T09:29:01Z</time>
      </trkpt>
      <trkpt lat="45.04205" lon="3.8871">
        <ele>624.336</ele>
        <time>2021-09-27T09:29:41Z</time>
      </trkpt>
      <trkpt lat="45.04202" lon="3.88712">
        <ele>624.291</ele>
        <time>2021-09-27T09:30:21Z</time>
      </trkpt>
      <trkpt lat="45.04197" lon="3.88715">
        <ele>624.281</ele>
        <time>2021-09-27T09:31:01Z</time>
      </trkpt>
      <trkpt lat="45.04192" lon="3.88718">
        <ele>624.419</ele>
        <time>2021-09-27T09:31:41Z</time>
      </trkpt>
      <trkpt lat="45.04187" lon="3.88722">
        <ele>624.808</ele>
        <time>2021-09-27T09:32:21Z</time>
      </trkpt>
      <trkpt lat="45.04182" lon="3.88725">
        <ele>625.277</ele>
        <time>2021-09-27T09:33:01Z</time>
      </trkpt>
      <trkpt lat="45.04177" lon="3.88728">
        <ele>625.553</ele>
        <time>2021-09-27T09:33:41Z</time>
      </trkpt>
      <trkpt lat="45.04175" lon="3.88731">
        <ele>625.638</ele>
        <time>2021-09-27T09:34:21Z</time>
      </trkpt>
      <trkpt lat="45.04171" lon="3.88735">
        <ele>625.73</ele>
        <time>2021-09-27T09:35:01Z</time>
      </trkpt>
      <trkpt lat="45.04166" lon="3.88739">
        <ele>625.858</ele>
        <time>2021-09-27T09:35:41Z</time>
      </trkpt>
      <trkpt lat="45.04162" lon="3.88743">
        <ele>625.761</ele>
        <time>2021-09-27T09:36:21Z</time>
      </trkpt>
      <trkpt lat="45.04158" lon="3.88747">
        <ele>625.523</ele>
        <time>2021-09-27T09:37:01Z</time>
      </trkpt>
      <trkpt lat="45.04154" lon="3.88751">
        <ele>625.453</ele>
        <time>2021-09-27T09:37:41Z</time>
      </trkpt>
      <trkpt lat="45.04151" lon="3.88753">
        <ele>625.351</ele>
        <time>2021-09-27T09:38:21Z</time>
      </trkpt>
      <trkpt lat="45.04148" lon="3.88756">
        <ele>625.201</ele>
        <time>2021-09-27T09:39:01Z</time>
      </trkpt>
      <trkpt lat="45.04145" lon="3.8876">
        <ele>625.111</ele>
        <time>2021-09-27T09:39:41Z</time>
      </trkpt>
      <trkpt lat="45.04142" lon="3.88764">
        <ele>624.908</ele>
        <time>2021-09-27T09:40:21Z</time>
      </trkpt>
      <trkpt lat="45.04138" lon="3.8877">
        <ele>624.643</ele>
        <time>2021-09-27T09:41:01Z</time>
      </trkpt>
      <trkpt lat="45.04135" lon="3.88776">
        <ele>624.259</ele>
        <time>2021-09-27T09:41:41Z</time>
      </trkpt>
      <trkpt lat="45.04133" lon="3.88782">
        <ele>623.954</ele>
        <time>2021-09-27T09:42:21Z</time>
      </trkpt>
      <trkpt lat="45.04131" lon="3.88789">
        <ele>623.786</ele>
        <time>2021-09-27T09:43:01Z</time>
      </trkpt>
      <trkpt lat="45.04129" lon="3.88795">
        <ele>623.684</ele>
        <time>2021-09-27T09:43:41Z</time>
      </trkpt>
      <trkpt lat="45.04127" lon="3.88802">
        <ele>623.557</ele>
        <time>2021-09-27T09:44:21Z</time>
      </trkpt>
      <trkpt lat="45.04125" lon="3.88809">
        <ele>623.699</ele>
        <time>2021-09-27T09:45:01Z</time>
      </trkpt>
      <trkpt lat="45.04125" lon="3.88816">
        <ele>623.939</ele>
        <time>2021-09-27T09:45:41Z</time>
      </trkpt>
      <trkpt lat="45.04125" lon="3.88824">
        <ele>624.234</ele>
        <time>2021-09-27T09:46:21Z</time>
      </trkpt>
      <trkpt lat="45.04122" lon="3.88832">
        <ele>624.655</ele>
        <time>2021-09-27T09:47:01Z</time>
      </trkpt>
      <trkpt lat="45.04118" lon="3.88835">
        <ele>624.71</ele>
        <time>2021-09-27T09:47:41Z</time>
      </trkpt>
      <trkpt lat="45.04114" lon="3.88839">
        <ele>624.908</ele>
        <time>2021-09-27T09:48:21Z</time>
      </trkpt>
      <trkpt lat="45.04113" lon="3.88846">
        <ele>624.961</ele>
        <time>2021-09-27T09:49:01Z</time>
      </trkpt>
      <trkpt lat="45.04113" lon="3.88853">
        <ele>624.917</ele>
        <time>2021-09-27T09:49:41Z</time>
      </trkpt>
      <trkpt lat="45.04112" lon="3.88861">
        <ele>624.942</ele>
        <time>2021-09-27T09:50:21Z</time>
      </trkpt>
      <trkpt lat="45.04111" lon="3.88869">
        <ele>625.324</ele>
        <time>2021-09-27T09:51:01Z</time>
      </trkpt>
      <trkpt lat="45.04111" lon="3.88878">
        <ele>625.642</ele>
        <time>2021-09-27T09:51:41Z</time>
      </trkpt>
      <trkpt lat="45.0411" lon="3.88886">
        <ele>626.065</ele>
        <time>2021-09-27T09:52:21Z</time>
      </trkpt>
      <trkpt lat="45.04109" lon="3.88894">
        <ele>626.317</ele>
        <time>2021-09-27T09:53:01Z</time>
      </trkpt>
      <trkpt lat="45.04109" lon="3.88902">
        <ele>626.717</ele>
        <time>2021-09-27T09:53:41Z</time>
      </trkpt>
      <trkpt lat="45.04108" lon="3.88908">
        <ele>627.055</ele>
        <time>2021-09-27T09:54:21Z</time>
      </trkpt>
      <trkpt lat="45.04108" lon="3.88914">
        <ele>627.307</ele>
        <time>2021-09-27T09:55:01Z</time>
      </trkpt>
      <trkpt lat="45.04107" lon="3.88921">
        <ele>627.817</ele>
        <time>2021-09-27T09:55:41Z</time>
      </trkpt>
      <trkpt lat="45.04107" lon="3.88927">
        <ele>628.208</ele>
        <time>2021-09-27T09:56:21Z</time>
      </trkpt>
      <trkpt lat="45.04106" lon="3.88933">
        <ele>628.773</ele>
        <time>2021-09-27T09:57:01Z</time>
      </trkpt>
      <trkpt lat="45.04106" lon="3.88939">
        <ele>629.259</ele>
        <time>2021-09-27T09:57:41Z</time>
      </trkpt>
      <trkpt lat="45.04106" lon="3.88945">
        <ele>629.654</ele>
        <time>2021-09-27T09:58:21Z</time>
      </trkpt>
      <trkpt lat="45.04106" lon="3.88947">
        <ele>629.726</ele>
        <time>2021-09-27T09:59:01Z</time>
      </trkpt>
      <trkpt lat="45.04107" lon="3.88955">
        <ele>630.144</ele>
        <time>2021-09-27T09:59:41Z</time>
      </trkpt>
      <trkpt lat="45.04108" lon="3.88963">
        <ele>630.527</ele>
        <time>2021-09-27T10:00:21Z</time>
      </trkpt>
      <trkpt lat="45.04109" lon="3.8897">
        <ele>630.939</ele>
        <time>2021-09-27T10:01:01Z</time>
      </trkpt>
      <trkpt lat="45.04111" lon="3.88977">
        <ele>631.419</ele>
        <time>2021-09-27T10:01:41Z</time>
      </trkpt>
      <trkpt lat="45.04112" lon="3.88984">
        <ele>631.917</ele>
        <time>2021-09-27T10:02:21Z</time>
      </trkpt>
      <trkpt lat="45.04113" lon="3.88991">
        <ele>632.487</ele>
        <time>2021-09-27T10:03:01Z</time>
      </trkpt>
      <trkpt lat="45.04114" lon="3.88999">
        <ele>633.015</ele>
        <time>2021-09-27T10:03:41Z</time>
      </trkpt>
      <trkpt lat="45.04116" lon="3.89006">
        <ele>633.508</ele>
        <time>2021-09-27T10:04:21Z</time>
      </trkpt>
      <trkpt lat="45.04117" lon="3.89014">
        <ele>634.169</ele>
        <time>2021-09-27T10:05:01Z</time>
      </trkpt>
      <trkpt lat="45.04119" lon="3.8902">
        <ele>634.595</ele>
        <time>2021-09-27T10:05:41Z</time>
      </trkpt>
      <trkpt lat="45.0412" lon="3.89026">
        <ele>634.93</ele>
        <time>2021-09-27T10:06:21Z</time>
      </trkpt>
      <trkpt lat="45.04121" lon="3.89032">
        <ele>635.372</ele>
        <time>2021-09-27T10:07:01Z</time>
      </trkpt>
      <trkpt lat="45.04122" lon="3.89038">
        <ele>635.66</ele>
        <time>2021-09-27T10:07:41Z</time>
      </trkpt>
      <trkpt lat="45.04124" lon="3.89046">
        <ele>636.023</ele>
        <time>2021-09-27T10:08:21Z</time>
      </trkpt>
      <trkpt lat="45.04126" lon="3.89054">
        <ele>636.325</ele>
        <time>2021-09-27T10:09:01Z</time>
      </trkpt>
      <trkpt lat="45.04127" lon="3.89062">
        <ele>636.865</ele>
        <time>2021-09-27T10:09:41Z</time>
      </trkpt>
      <trkpt lat="45.04129" lon="3.8907">
        <ele>637.377</ele>
        <time>2021-09-27T10:10:21Z</time>
      </trkpt>
      <trkpt lat="45.04129" lon="3.89074">
        <ele>637.661</ele>
        <time>2021-09-27T10:11:01Z</time>
      </trkpt>
      <trkpt lat="45.04131" lon="3.89082">
        <ele>638.027</ele>
        <time>2021-09-27T10:11:41Z</time>
      </trkpt>
      <trkpt lat="45.04132" lon="3.89089">
        <ele>638.508</ele>
        <time>2021-09-27T10:12:21Z</time>
      </trkpt>
      <trkpt lat="45.04133" lon="3.89096">
        <ele>638.835</ele>
        <time>2021-09-27T10:13:01Z</time>
      </trkpt>
      <trkpt lat="45.04135" lon="3.89103">
        <ele>639.131</ele>
        <time>2021-09-27T10:13:41Z</time>
      </trkpt>
      <trkpt lat="45.04137" lon="3.89111">
        <ele>639.446</ele>
        <time>2021-09-27T10:14:21Z</time>
      </trkpt>
      <trkpt lat="45.04139" lon="3.89118">
        <ele>639.958</ele>
        <time>2021-09-27T10:15:01Z</time>
      </trkpt>
      <trkpt lat="45.04141" lon="3.89125">
        <ele>640.046</ele>
        <time>2021-09-27T10:15:41Z</time>
      </trkpt>
      <trkpt lat="45.04143" lon="3.89132">
        <ele>640.169</ele>
        <time>2021-09-27T10:16:21Z</time>
      </trkpt>
      <trkpt lat="45.04145" lon="3.89139">
        <ele>640.361</ele>
        <time>2021-09-27T10:17:01Z</time>
      </trkpt>
      <trkpt lat="45.04147" lon="3.89145">
        <ele>640.821</ele>
        <time>2021-09-27T10:17:41Z</time>
      </trkpt>
      <trkpt lat="45.04148" lon="3.89152">
        <ele>641.492</ele>
        <time>2021-09-27T10:18:21Z</time>
      </trkpt>
      <trkpt lat="45.0415" lon="3.89157">
        <ele>641.773</ele>
        <time>2021-09-27T10:19:01Z</time>
      </trkpt>
      <trkpt lat="45.04152" lon="3.89162">
        <ele>641.92</ele>
        <time>2021-09-27T10:19:41Z</time>
      </trkpt>
      <trkpt lat="45.04155" lon="3.89169">
        <ele>642.108</ele>
        <time>2021-09-27T10:20:21Z</time>
      </trkpt>
      <trkpt lat="45.04151" lon="3.89173">
        <ele>643.857</ele>
        <time>2021-09-27T10:21:01Z</time>
      </trkpt>
      <trkpt lat="45.04148" lon="3.89177">
        <ele>645.113</ele>
        <time>2021-09-27T10:21:41Z</time>
      </trkpt>
      <trkpt lat="45.04145" lon="3.89181">
        <ele>646.498</ele>
        <time>2021-09-27T10:22:21Z</time>
      </trkpt>
      <trkpt lat="45.04141" lon="3.89186">
        <ele>647.99</ele>
        <time>2021-09-27T10:23:01Z</time>
      </trkpt>
      <trkpt lat="45.04137" lon="3.8919">
        <ele>649.088</ele>
        <time>2021-09-27T10:23:41Z</time>
      </trkpt>
      <trkpt lat="45.04133" lon="3.89195">
        <ele>649.991</ele>
        <time>2021-09-27T10:24:21Z</time>
      </trkpt>
      <trkpt lat="45.04129" lon="3.892">
        <ele>650.523</ele>
        <time>2021-09-27T10:25:01Z</time>
      </trkpt>
      <trkpt lat="45.04125" lon="3.89204">
        <ele>651.053</ele>
        <time>2021-09-27T10:25:41Z</time>
      </trkpt>
      <trkpt lat="45.04122" lon="3.89208">
        <ele>651.399</ele>
        <time>2021-09-27T10:26:21Z</time>
      </trkpt>
      <trkpt lat="45.04119" lon="3.89212">
        <ele>651.607</ele>
        <time>2021-09-27T10:27:01Z</time>
      </trkpt>
      <trkpt lat="45.04116" lon="3.89215">
        <ele>651.827</ele>
        <time>2021-09-27T10:27:41Z</time>
      </trkpt>
      <trkpt lat="45.04112" lon="3.89221">
        <ele>652.008</ele>
        <time>2021-09-27T10:28:21Z</time>
      </trkpt>
      <trkpt lat="45.04108" lon="3.89226">
        <ele>652.137</ele>
        <time>2021-09-27T10:29:01Z</time>
      </trkpt>
      <trkpt lat="45.04104" lon="3.89231">
        <ele>652.473</ele>
        <time>2021-09-27T10:29:41Z</time>
      </trkpt>
      <trkpt lat="45.041" lon="3.89235">
        <ele>652.688</ele>
        <time>2021-09-27T10:30:21Z</time>
      </trkpt>
      <trkpt lat="45.04096" lon="3.8924">
        <ele>652.94</ele>
        <time>2021-09-27T10:31:01Z</time>
      </trkpt>
      <trkpt lat="45.04093" lon="3.89244">
        <ele>653.298</ele>
        <time>2021-09-27T10:31:41Z</time>
      </trkpt>
      <trkpt lat="45.04089" lon="3.89249">
        <ele>653.621</ele>
        <time>2021-09-27T10:32:21Z</time>
      </trkpt>
      <trkpt lat="45.04086" lon="3.89253">
        <ele>654.073</ele>
        <time>2021-09-27T10:33:01Z</time>
      </trkpt>
      <trkpt lat="45.04082" lon="3.89257">
        <ele>654.493</ele>
        <time>2021-09-27T10:33:41Z</time>
      </trkpt>
      <trkpt lat="45.04079" lon="3.89262">
        <ele>654.817</ele>
        <time>2021-09-27T10:34:21Z</time>
      </trkpt>
      <trkpt lat="45.04076" lon="3.89266">
        <ele>655.187</ele>
        <time>2021-09-27T10:35:01Z</time>
      </trkpt>
      <trkpt lat="45.04073" lon="3.89271">
        <ele>655.515</ele>
        <time>2021-09-27T10:35:41Z</time>
      </trkpt>
      <trkpt lat="45.0407" lon="3.89276">
        <ele>655.908</ele>
        <time>2021-09-27T10:36:21Z</time>
      </trkpt>
      <trkpt lat="45.04067" lon="3.89282">
        <ele>656.339</ele>
        <time>2021-09-27T10:37:01Z</time>
      </trkpt>
      <trkpt lat="45.04064" lon="3.89288">
        <ele>656.835</ele>
        <time>2021-09-27T10:37:41Z</time>
      </trkpt>
      <trkpt lat="45.04061" lon="3.89294">
        <ele>657.29</ele>
        <time>2021-09-27T10:38:21Z</time>
      </trkpt>
      <trkpt lat="45.04058" lon="3.89301">
        <ele>657.722</ele>
        <time>2021-09-27T10:39:01Z</time>
      </trkpt>
      <trkpt lat="45.04055" lon="3.89308">
        <ele>658.16</ele>
        <time>2021-09-27T10:39:41Z</time>
      </trkpt>
      <trkpt lat="45.04053" lon="3.89315">
        <ele>658.673</ele>
        <time>2021-09-27T10:40:21Z</time>
      </trkpt>
      <trkpt lat="45.04051" lon="3.8932">
        <ele>658.965</ele>
        <time>2021-09-27T10:41:01Z</time>
      </trkpt>
      <trkpt lat="45.04049" lon="3.89325">
        <ele>659.275</ele>
        <time>2021-09-27T10:41:41Z</time>
      </trkpt>
      <trkpt lat="45.04046" lon="3.89334">
        <ele>659.793</ele>
        <time>2021-09-27T10:42:21Z</time>
      </trkpt>
      <trkpt lat="45.04044" lon="3.89342">
        <ele>660.365</ele>
        <time>2021-09-27T10:43:01Z</time>
      </trkpt>
      <trkpt lat="45.04042" lon="3.8935">
        <ele>660.921</ele>
        <time>2021-09-27T10:43:41Z</time>
      </trkpt>
      <trkpt lat="45.0404" lon="3.89358">
        <ele>661.408</ele>
        <time>2021-09-27T10:44:21Z</time>
      </trkpt>
      <trkpt lat="45.04038" lon="3.89366">
        <ele>662.137</ele>
        <time>2021-09-27T10:45:01Z</time>
      </trkpt>
      <trkpt lat="45.04037" lon="3.89374">
        <ele>662.923</ele>
        <time>2021-09-27T10:45:41Z</time>
      </trkpt>
      <trkpt lat="45.04036" lon="3.89381">
        <ele>663.758</ele>
        <time>2021-09-27T10:46:21Z</time>
      </trkpt>
      <trkpt lat="45.04035" lon="3.89388">
        <ele>664.42</ele>
        <time>2021-09-27T10:47:01Z</time>
      </trkpt>
      <trkpt lat="45.04034" lon="3.89395">
        <ele>665.188</ele>
        <time>2021-09-27T10:47:41Z</time>
      </trkpt>
      <trkpt lat="45.04033" lon="3.89402">
        <ele>665.761</ele>
        <time>2021-09-27T10:48:21Z</time>
      </trkpt>
      <trkpt lat="45.04032" lon="3.8941">
        <ele>666.343</ele>
        <time>2021-09-27T10:49:01Z</time>
      </trkpt>
      <trkpt lat="45.04031" lon="3.89417">
        <ele>666.953</ele>
        <time>2021-09-27T10:49:41Z</time>
      </trkpt>
      <trkpt lat="45.0403" lon="3.89425">
        <ele>667.731</ele>
        <time>2021-09-27T10:50:21Z</time>
      </trkpt>
      <trkpt lat="45.04029" lon="3.89431">
        <ele>668.461</ele>
        <time>2021-09-27T10:51:01Z</time>
      </trkpt>
      <trkpt lat="45.04028" lon="3.89437">
        <ele>669.107</ele>
        <time>2021-09-27T10:51:41Z</time>
      </trkpt>
      <trkpt lat="45.04027" lon="3.89442">
        <ele>669.908</ele>
        <time>2021-09-27T10:52:21Z</time>
      </trkpt>
      <trkpt lat="45.04025" lon="3.89448">
        <ele>670.261</ele>
        <time>2021-09-27T10:53:01Z</time>
      </trkpt>
      <trkpt lat="45.04024" lon="3.89455">
        <ele>670.337</ele>
        <time>2021-09-27T10:53:41Z</time>
      </trkpt>
      <trkpt lat="45.04022" lon="3.89461">
        <ele>670.472</ele>
        <time>2021-09-27T10:54:21Z</time>
      </trkpt>
      <trkpt lat="45.0402" lon="3.89467">
        <ele>670.614</ele>
        <time>2021-09-27T10:55:01Z</time>
      </trkpt>
      <trkpt lat="45.04018" lon="3.89473">
        <ele>670.782</ele>
        <time>2021-09-27T10:55:41Z</time>
      </trkpt>
      <trkpt lat="45.04016" lon="3.8948">
        <ele>670.745</ele>
        <time>2021-09-27T10:56:21Z</time>
      </trkpt>
      <trkpt lat="45.04015" lon="3.89486">
        <ele>670.767</ele>
        <time>2021-09-27T10:57:01Z</time>
      </trkpt>
      <trkpt lat="45.04013" lon="3.89492">
        <ele>670.757</ele>
        <time>2021-09-27T10:57:41Z</time>
      </trkpt>
      <trkpt lat="45.04011" lon="3.89499">
        <ele>670.629</ele>
        <time>2021-09-27T10:58:21Z</time>
      </trkpt>
      <trkpt lat="45.0401" lon="3.89507">
        <ele>670.7</ele>
        <time>2021-09-27T10:59:01Z</time>
      </trkpt>
      <trkpt lat="45.04008" lon="3.89515">
        <ele>670.72</ele>
        <time>2021-09-27T10:59:41Z</time>
      </trkpt>
      <trkpt lat="45.04006" lon="3.89523">
        <ele>670.808</ele>
        <time>2021-09-27T11:00:21Z</time>
      </trkpt>
      <trkpt lat="45.04005" lon="3.89528">
        <ele>670.85</ele>
        <time>2021-09-27T11:01:01Z</time>
      </trkpt>
      <trkpt lat="45.04004" lon="3.89533">
        <ele>671.026</ele>
        <time>2021-09-27T11:01:41Z</time>
      </trkpt>
      <trkpt lat="45.04002" lon="3.8954">
        <ele>671.331</ele>
        <time>2021-09-27T11:02:21Z</time>
      </trkpt>
      <trkpt lat="45.04" lon="3.89548">
        <ele>671.713</ele>
        <time>2021-09-27T11:03:01Z</time>
      </trkpt>
      <trkpt lat="45.03998" lon="3.89554">
        <ele>672.341</ele>
        <time>2021-09-27T11:03:41Z</time>
      </trkpt>
      <trkpt lat="45.03994" lon="3.8956">
        <ele>673.594</ele>
        <time>2021-09-27T11:04:21Z</time>
      </trkpt>
      <trkpt lat="45.03991" lon="3.89563">
        <ele>674.336</ele>
        <time>2021-09-27T11:05:01Z</time>
      </trkpt>
      <trkpt lat="45.03989" lon="3.89566">
        <ele>675.286</ele>
        <time>2021-09-27T11:05:41Z</time>
      </trkpt>
      <trkpt lat="45.03985" lon="3.8957">
        <ele>676.334</ele>
        <time>2021-09-27T11:06:21Z</time>
      </trkpt>
      <trkpt lat="45.03981" lon="3.89574">
        <ele>677.355</ele>
        <time>2021-09-27T11:07:01Z</time>
      </trkpt>
      <trkpt lat="45.03978" lon="3.89578">
        <ele>678.41</ele>
        <time>2021-09-27T11:07:41Z</time>
      </trkpt>
      <trkpt lat="45.03972" lon="3.89582">
        <ele>679.708</ele>
        <time>2021-09-27T11:08:21Z</time>
      </trkpt>
      <trkpt lat="45.03967" lon="3.89586">
        <ele>680.691</ele>
        <time>2021-09-27T11:09:01Z</time>
      </trkpt>
      <trkpt lat="45.03962" lon="3.8959">
        <ele>681.417</ele>
        <time>2021-09-27T11:09:41Z</time>
      </trkpt>
      <trkpt lat="45.03958" lon="3.89592">
        <ele>682.092</ele>
        <time>2021-09-27T11:10:21Z</time>
      </trkpt>
      <trkpt lat="45.03953" lon="3.89594">
        <ele>682.584</ele>
        <time>2021-09-27T11:11:01Z</time>
      </trkpt>
      <trkpt lat="45.03949" lon="3.89596">
        <ele>683.122</ele>
        <time>2021-09-27T11:11:41Z</time>
      </trkpt>
      <trkpt lat="45.03946" lon="3.89598">
        <ele>683.565</ele>
        <time>2021-09-27T11:12:21Z</time>
      </trkpt>
      <trkpt lat="45.03943" lon="3.896">
        <ele>683.997</ele>
        <time>2021-09-27T11:13:01Z</time>
      </trkpt>
      <trkpt lat="45.03937" lon="3.89603">
        <ele>684.587</ele>
        <time>2021-09-27T11:13:41Z</time>
      </trkpt>
      <trkpt lat="45.03933" lon="3.89606">
        <ele>685.037</ele>
        <time>2021-09-27T11:14:21Z</time>
      </trkpt>
      <trkpt lat="45.0393" lon="3.8961">
        <ele>685.449</ele>
        <time>2021-09-27T11:15:01Z</time>
      </trkpt>
      <trkpt lat="45.03925" lon="3.89615">
        <ele>686.013</ele>
        <time>2021-09-27T11:15:41Z</time>
      </trkpt>
      <trkpt lat="45.03921" lon="3.89621">
        <ele>686.508</ele>
        <time>2021-09-27T11:16:21Z</time>
      </trkpt>
      <trkpt lat="45.03916" lon="3.89626">
        <ele>687.181</ele>
        <time>2021-09-27T11:17:01Z</time>
      </trkpt>
      <trkpt lat="45.03911" lon="3.89632">
        <ele>688.157</ele>
        <time>2021-09-27T11:17:41Z</time>
      </trkpt>
      <trkpt lat="45.03907" lon="3.89638">
        <ele>689.042</ele>
        <time>2021-09-27T11:18:21Z</time>
      </trkpt>
      <trkpt lat="45.03903" lon="3.89644">
        <ele>690.244</ele>
        <time>2021-09-27T11:19:01Z</time>
      </trkpt>
      <trkpt lat="45.03899" lon="3.8965">
        <ele>691.412</ele>
        <time>2021-09-27T11:19:41Z</time>
      </trkpt>
      <trkpt lat="45.03894" lon="3.89656">
        <ele>692.535</ele>
        <time>2021-09-27T11:20:21Z</time>
      </trkpt>
      <trkpt lat="45.03891" lon="3.89662">
        <ele>693.477</ele>
        <time>2021-09-27T11:21:01Z</time>
      </trkpt>
      <trkpt lat="45.03887" lon="3.89667">
        <ele>694.177</ele>
        <time>2021-09-27T11:21:41Z</time>
      </trkpt>
      <trkpt lat="45.03883" lon="3.89672">
        <ele>695.111</ele>
        <time>2021-09-27T11:22:21Z</time>
      </trkpt>
      <trkpt lat="45.03879" lon="3.89678">
        <ele>696.121</ele>
        <time>2021-09-27T11:23:01Z</time>
      </trkpt>
      <trkpt lat="45.03877" lon="3.89683">
        <ele>696.903</ele>
        <time>2021-09-27T11:23:41Z</time>
      </trkpt>
      <trkpt lat="45.03875" lon="3.89689">
        <ele>697.608</ele>
        <time>2021-09-27T11:24:21Z</time>
      </trkpt>
      <trkpt lat="45.03873" lon="3.89694">
        <ele>698.469</ele>
        <time>2021-09-27T11:25:01Z</time>
      </trkpt>
      <trkpt lat="45.0387" lon="3.897">
        <ele>698.845</ele>
        <time>2021-09-27T11:25:41Z</time>
      </trkpt>
      <trkpt lat="45.03869" lon="3.89705">
        <ele>699.18</ele>
        <time>2021-09-27T11:26:21Z</time>
      </trkpt>
      <trkpt lat="45.03864" lon="3.89704">
        <ele>698.822</ele>
        <time>2021-09-27T11:27:01Z</time>
      </trkpt>
      <trkpt lat="45.03858" lon="3.89704">
        <ele>698.88</ele>
        <time>2021-09-27T11:27:41Z</time>
      </trkpt>
      <trkpt lat="45.03852" lon="3.89704">
        <ele>698.913</ele>
        <time>2021-09-27T11:28:21Z</time>
      </trkpt>
      <trkpt lat="45.03846" lon="3.89703">
        <ele>699.015</ele>
        <time>2021-09-27T11:29:01Z</time>
      </trkpt>
      <trkpt lat="45.0384" lon="3.89703">
        <ele>699.195</ele>
        <time>2021-09-27T11:29:41Z</time>
      </trkpt>
      <trkpt lat="45.03837" lon="3.89702">
        <ele>699.244</ele>
        <time>2021-09-27T11:30:21Z</time>
      </trkpt>
      <trkpt lat="45.03833" lon="3.89702">
        <ele>699.305</ele>
        <time>2021-09-27T11:31:01Z</time>
      </trkpt>
      <trkpt lat="45.0383" lon="3.89702">
        <ele>699.315</ele>
        <time>2021-09-27T11:31:41Z</time>
      </trkpt>
      <trkpt lat="45.03826" lon="3.89702">
        <ele>699.408</ele>
        <time>2021-09-27T11:32:21Z</time>
      </trkpt>
      <trkpt lat="45.03822" lon="3.89702">
        <ele>699.542</ele>
        <time>2021-09-27T11:33:01Z</time>
      </trkpt>
      <trkpt lat="45.03817" lon="3.89701">
        <ele>699.518</ele>
        <time>2021-09-27T11:33:41Z</time>
      </trkpt>
      <trkpt lat="45.03811" lon="3.89701">
        <ele>699.623</ele>
        <time>2021-09-27T11:34:21Z</time>
      </trkpt>
      <trkpt lat="45.03805" lon="3.89701">
        <ele>699.745</ele>
        <time>2021-09-27T11:35:01Z</time>
      </trkpt>
      <trkpt lat="45.03798" lon="3.897">
        <ele>700.183</ele>
        <time>2021-09-27T11:35:41Z</time>
      </trkpt>
      <trkpt lat="45.03792" lon="3.897">
        <ele>700.526</ele>
        <time>2021-09-27T11:36:21Z</time>
      </trkpt>
      <trkpt lat="45.03786" lon="3.897">
        <ele>700.978</ele>
        <time>2021-09-27T11:37:01Z</time>
      </trkpt>
      <trkpt lat="45.0378" lon="3.89699">
        <ele>701.478</ele>
        <time>2021-09-27T11:37:41Z</time>
      </trkpt>
      <trkpt lat="45.03776" lon="3.89699">
        <ele>701.855</ele>
        <time>2021-09-27T11:38:21Z</time>
      </trkpt>
      <trkpt lat="45.03774" lon="3.89698">
        <ele>702.207</ele>
        <time>2021-09-27T11:39:01Z</time>
      </trkpt>
      <trkpt lat="45.03771" lon="3.89694">
        <ele>702.317</ele>
        <time>2021-09-27T11:39:41Z</time>
      </trkpt>
      <trkpt lat="45.03768" lon="3.8969">
        <ele>702.508</ele>
        <time>2021-09-27T11:40:21Z</time>
      </trkpt>
      <trkpt lat="45.03764" lon="3.89694">
        <ele>703.463</ele>
        <time>2021-09-27T11:41:01Z</time>
      </trkpt>
      <trkpt lat="45.03761" lon="3.89699">
        <ele>704.469</ele>
        <time>2021-09-27T11:41:41Z</time>
      </trkpt>
      <trkpt lat="45.03757" lon="3.89703">
        <ele>705.474</ele>
        <time>2021-09-27T11:42:21Z</time>
      </trkpt>
      <trkpt lat="45.03755" lon="3.89707">
        <ele>706.126</ele>
        <time>2021-09-27T11:43:01Z</time>
      </trkpt>
      <trkpt lat="45.03753" lon="3.89712">
        <ele>706.824</ele>
        <time>2021-09-27T11:43:41Z</time>
      </trkpt>
      <trkpt lat="45.03752" lon="3.89717">
        <ele>707.377</ele>
        <time>2021-09-27T11:44:21Z</time>
      </trkpt>
      <trkpt lat="45.03751" lon="3.89722">
        <ele>707.879</ele>
        <time>2021-09-27T11:45:01Z</time>
      </trkpt>
      <trkpt lat="45.03749" lon="3.89729">
        <ele>708.189</ele>
        <time>2021-09-27T11:45:41Z</time>
      </trkpt>
      <trkpt lat="45.03747" lon="3.89736">
        <ele>708.448</ele>
        <time>2021-09-27T11:46:21Z</time>
      </trkpt>
      <trkpt lat="45.03745" lon="3.8974">
        <ele>708.761</ele>
        <time>2021-09-27T11:47:01Z</time>
      </trkpt>
      <trkpt lat="45.03742" lon="3.89743">
        <ele>708.917</ele>
        <time>2021-09-27T11:47:41Z</time>
      </trkpt>
      <trkpt lat="45.03738" lon="3.89748">
        <ele>709.408</ele>
        <time>2021-09-27T11:48:21Z</time>
      </trkpt>
      <trkpt lat="45.03733" lon="3.89753">
        <ele>709.732</ele>
        <time>2021-09-27T11:49:01Z</time>
      </trkpt>
      <trkpt lat="45.03729" lon="3.89758">
        <ele>710.028</ele>
        <time>2021-09-27T11:49:41Z</time>
      </trkpt>
      <trkpt lat="45.03725" lon="3.89762">
        <ele>710.373</ele>
        <time>2021-09-27T11:50:21Z</time>
      </trkpt>
      <trkpt lat="45.03721" lon="3.89765">
        <ele>710.965</ele>
        <time>2021-09-27T11:51:01Z</time>
      </trkpt>
      <trkpt lat="45.03717" lon="3.89767">
        <ele>711.943</ele>
        <time>2021-09-27T11:51:41Z</time>
      </trkpt>
      <trkpt lat="45.03712" lon="3.89771">
        <ele>713.086</ele>
        <time>2021-09-27T11:52:21Z</time>
      </trkpt>
      <trkpt lat="45.03707" lon="3.89775">
        <ele>714.358</ele>
        <time>2021-09-27T11:53:01Z</time>
      </trkpt>
      <trkpt lat="45.03703" lon="3.8978">
        <ele>715.618</ele>
        <time>2021-09-27T11:53:41Z</time>
      </trkpt>
      <trkpt lat="45.03698" lon="3.89784">
        <ele>717.185</ele>
        <time>2021-09-27T11:54:21Z</time>
      </trkpt>
      <trkpt lat="45.03694" lon="3.89787">
        <ele>718.589</ele>
        <time>2021-09-27T11:55:01Z</time>
      </trkpt>
      <trkpt lat="45.03689" lon="3.8979">
        <ele>719.717</ele>
        <time>2021-09-27T11:55:41Z</time>
      </trkpt>
      <trkpt lat="45.03684" lon="3.89793">
        <ele>720.908</ele>
        <time>2021-09-27T11:56:21Z</time>
      </trkpt>
      <trkpt lat="45.0368" lon="3.89796">
        <ele>722.246</ele>
        <time>2021-09-27T11:57:01Z</time>
      </trkpt>
      <trkpt lat="45.03675" lon="3.89799">
        <ele>723.572</ele>
        <time>2021-09-27T11:57:41Z</time>
      </trkpt>
      <trkpt lat="45.03671" lon="3.89803">
        <ele>724.877</ele>
        <time>2021-09-27T11:58:21Z</time>
      </trkpt>
      <trkpt lat="45.03667" lon="3.89807">
        <ele>726.049</ele>
        <time>2021-09-27T11:59:01Z</time>
      </trkpt>
      <trkpt lat="45.03662" lon="3.89811">
        <ele>727.297</ele>
        <time>2021-09-27T11:59:41Z</time>
      </trkpt>
      <trkpt lat="45.03658" lon="3.89815">
        <ele>728.48</ele>
        <time>2021-09-27T12:00:21Z</time>
      </trkpt>
      <trkpt lat="45.03654" lon="3.89819">
        <ele>729.432</ele>
        <time>2021-09-27T12:01:01Z</time>
      </trkpt>
      <trkpt lat="45.03649" lon="3.89824">
        <ele>730.772</ele>
        <time>2021-09-27T12:01:41Z</time>
      </trkpt>
      <trkpt lat="45.03644" lon="3.89829">
        <ele>731.882</ele>
        <time>2021-09-27T12:02:21Z</time>
      </trkpt>
      <trkpt lat="45.0364" lon="3.89833">
        <ele>732.843</ele>
        <time>2021-09-27T12:03:01Z</time>
      </trkpt>
      <trkpt lat="45.03635" lon="3.89837">
        <ele>734.117</ele>
        <time>2021-09-27T12:03:41Z</time>
      </trkpt>
      <trkpt lat="45.0363" lon="3.89842">
        <ele>735.608</ele>
        <time>2021-09-27T12:04:21Z</time>
      </trkpt>
      <trkpt lat="45.03624" lon="3.89846">
        <ele>737.166</ele>
        <time>2021-09-27T12:05:01Z</time>
      </trkpt>
      <trkpt lat="45.03619" lon="3.89851">
        <ele>738.652</ele>
        <time>2021-09-27T12:05:41Z</time>
      </trkpt>
      <trkpt lat="45.03615" lon="3.89855">
        <ele>739.997</ele>
        <time>2021-09-27T12:06:21Z</time>
      </trkpt>
      <trkpt lat="45.0361" lon="3.89858">
        <ele>741.049</ele>
        <time>2021-09-27T12:07:01Z</time>
      </trkpt>
      <trkpt lat="45.03607" lon="3.89862">
        <ele>741.547</ele>
        <time>2021-09-27T12:07:41Z</time>
      </trkpt>
      <trkpt lat="45.03603" lon="3.89866">
        <ele>742.03</ele>
        <time>2021-09-27T12:08:21Z</time>
      </trkpt>
      <trkpt lat="45.03599" lon="3.8987">
        <ele>742.432</ele>
        <time>2021-09-27T12:09:01Z</time>
      </trkpt>
      <trkpt lat="45.03595" lon="3.89875">
        <ele>743.182</ele>
        <time>2021-09-27T12:09:41Z</time>
      </trkpt>
      <trkpt lat="45.0359" lon="3.8988">
        <ele>743.851</ele>
        <time>2021-09-27T12:10:21Z</time>
      </trkpt>
      <trkpt lat="45.03586" lon="3.89884">
        <ele>744.501</ele>
        <time>2021-09-27T12:11:01Z</time>
      </trkpt>
      <trkpt lat="45.03581" lon="3.89889">
        <ele>745.511</ele>
        <time>2021-09-27T12:11:41Z</time>
      </trkpt>
      <trkpt lat="45.03577" lon="3.89894">
        <ele>746.508</ele>
        <time>2021-09-27T12:12:21Z</time>
      </trkpt>
      <trkpt lat="45.03574" lon="3.89899">
        <ele>747.513</ele>
        <time>2021-09-27T12:13:01Z</time>
      </trkpt>
      <trkpt lat="45.0357" lon="3.89904">
        <ele>748.549</ele>
        <time>2021-09-27T12:13:41Z</time>
      </trkpt>
      <trkpt lat="45.03565" lon="3.8991">
        <ele>749.694</ele>
        <time>2021-09-27T12:14:21Z</time>
      </trkpt>
      <trkpt lat="45.03563" lon="3.89913">
        <ele>750.136</ele>
        <time>2021-09-27T12:15:01Z</time>
      </trkpt>
      <trkpt lat="45.03561" lon="3.89917">
        <ele>750.634</ele>
        <time>2021-09-27T12:15:41Z</time>
      </trkpt>
      <trkpt lat="45.03558" lon="3.89923">
        <ele>752.037</ele>
        <time>2021-09-27T12:16:21Z</time>
      </trkpt>
      <trkpt lat="45.03553" lon="3.89936">
        <ele>754.449</ele>
        <time>2021-09-27T12:17:01Z</time>
      </trkpt>
      <trkpt lat="45.03541" lon="3.89999">
        <ele>757.739</ele>
        <time>2021-09-27T12:17:41Z</time>
      </trkpt>
      <trkpt lat="45.03538" lon="3.9001">
        <ele>759.196</ele>
        <time>2021-09-27T12:18:21Z</time>
      </trkpt>
      <trkpt lat="45.03531" lon="3.90021">
        <ele>761.531</ele>
        <time>2021-09-27T12:19:01Z</time>
      </trkpt>
      <trkpt lat="45.0353" lon="3.90027">
        <ele>762.324</ele>
        <time>2021-09-27T12:19:41Z</time>
      </trkpt>
      <trkpt lat="45.0353" lon="3.90035">
        <ele>763.008</ele>
        <time>2021-09-27T12:20:21Z</time>
      </trkpt>
      <trkpt lat="45.03529" lon="3.90039">
        <ele>763.457</ele>
        <time>2021-09-27T12:21:01Z</time>
      </trkpt>
      <trkpt lat="45.03518" lon="3.90048">
        <ele>766.563</ele>
        <time>2021-09-27T12:21:41Z</time>
      </trkpt>
      <trkpt lat="45.03512" lon="3.90055">
        <ele>768.388</ele>
        <time>2021-09-27T12:22:21Z</time>
      </trkpt>
      <trkpt lat="45.03507" lon="3.9006">
        <ele>769.77</ele>
        <time>2021-09-27T12:23:01Z</time>
      </trkpt>
      <trkpt lat="45.03499" lon="3.9007">
        <ele>772.428</ele>
        <time>2021-09-27T12:23:41Z</time>
      </trkpt>
      <trkpt lat="45.03495" lon="3.90077">
        <ele>773.771</ele>
        <time>2021-09-27T12:24:21Z</time>
      </trkpt>
      <trkpt lat="45.03489" lon="3.90096">
        <ele>775.953</ele>
        <time>2021-09-27T12:25:01Z</time>
      </trkpt>
      <trkpt lat="45.03487" lon="3.90102">
        <ele>776.513</ele>
        <time>2021-09-27T12:25:41Z</time>
      </trkpt>
      <trkpt lat="45.03483" lon="3.90115">
        <ele>777.616</ele>
        <time>2021-09-27T12:26:21Z</time>
      </trkpt>
      <trkpt lat="45.0348" lon="3.90119">
        <ele>778.576</ele>
        <time>2021-09-27T12:27:01Z</time>
      </trkpt>
      <trkpt lat="45.03474" lon="3.9012">
        <ele>779.613</ele>
        <time>2021-09-27T12:27:41Z</time>
      </trkpt>
      <trkpt lat="45.03472" lon="3.90121">
        <ele>780.008</ele>
        <time>2021-09-27T12:28:21Z</time>
      </trkpt>
      <trkpt lat="45.03443" lon="3.9013">
        <ele>781.919</ele>
        <time>2021-09-27T12:29:01Z</time>
      </trkpt>
      <trkpt lat="45.03406" lon="3.90142">
        <ele>780.615</ele>
        <time>2021-09-27T12:29:41Z</time>
      </trkpt>
      <trkpt lat="45.03376" lon="3.90153">
        <ele>780.09</ele>
        <time>2021-09-27T12:30:21Z</time>
      </trkpt>
      <trkpt lat="45.03362" lon="3.90162">
        <ele>780.032</ele>
        <time>2021-09-27T12:31:01Z</time>
      </trkpt>
      <trkpt lat="45.03353" lon="3.90169">
        <ele>780.08</ele>
        <time>2021-09-27T12:31:41Z</time>
      </trkpt>
      <trkpt lat="45.03341" lon="3.90177">
        <ele>780.013</ele>
        <time>2021-09-27T12:32:21Z</time>
      </trkpt>
      <trkpt lat="45.03331" lon="3.90187">
        <ele>779.725</ele>
        <time>2021-09-27T12:33:01Z</time>
      </trkpt>
      <trkpt lat="45.03318" lon="3.90197">
        <ele>778.235</ele>
        <time>2021-09-27T12:33:41Z</time>
      </trkpt>
      <trkpt lat="45.03308" lon="3.90205">
        <ele>776.982</ele>
        <time>2021-09-27T12:34:21Z</time>
      </trkpt>
      <trkpt lat="45.03305" lon="3.90204">
        <ele>776.643</ele>
        <time>2021-09-27T12:35:01Z</time>
      </trkpt>
      <trkpt lat="45.033" lon="3.90202">
        <ele>776.017</ele>
        <time>2021-09-27T12:35:41Z</time>
      </trkpt>
      <trkpt lat="45.03297" lon="3.902">
        <ele>775.808</ele>
        <time>2021-09-27T12:36:21Z</time>
      </trkpt>
      <trkpt lat="45.03295" lon="3.90199">
        <ele>775.686</ele>
        <time>2021-09-27T12:37:01Z</time>
      </trkpt>
      <trkpt lat="45.03292" lon="3.90197">
        <ele>775.432</ele>
        <time>2021-09-27T12:37:41Z</time>
      </trkpt>
      <trkpt lat="45.03287" lon="3.90194">
        <ele>775.057</ele>
        <time>2021-09-27T12:38:21Z</time>
      </trkpt>
      <trkpt lat="45.03281" lon="3.9019">
        <ele>774.599</ele>
        <time>2021-09-27T12:39:01Z</time>
      </trkpt>
      <trkpt lat="45.03269" lon="3.90178">
        <ele>773.547</ele>
        <time>2021-09-27T12:39:41Z</time>
      </trkpt>
      <trkpt lat="45.03265" lon="3.90177">
        <ele>773.15</ele>
        <time>2021-09-27T12:40:21Z</time>
      </trkpt>
      <trkpt lat="45.03262" lon="3.90175">
        <ele>772.862</ele>
        <time>2021-09-27T12:41:01Z</time>
      </trkpt>
      <trkpt lat="45.03253" lon="3.90176">
        <ele>771.742</ele>
        <time>2021-09-27T12:41:41Z</time>
      </trkpt>
      <trkpt lat="45.03242" lon="3.90181">
        <ele>769.825</ele>
        <time>2021-09-27T12:42:21Z</time>
      </trkpt>
      <trkpt lat="45.03234" lon="3.90189">
        <ele>768.126</ele>
        <time>2021-09-27T12:43:01Z</time>
      </trkpt>
      <trkpt lat="45.03224" lon="3.90204">
        <ele>765.708</ele>
        <time>2021-09-27T12:43:41Z</time>
      </trkpt>
      <trkpt lat="45.03221" lon="3.90211">
        <ele>764.508</ele>
        <time>2021-09-27T12:44:21Z</time>
      </trkpt>
      <trkpt lat="45.0322" lon="3.90213">
        <ele>764.24</ele>
        <time>2021-09-27T12:45:01Z</time>
      </trkpt>
      <trkpt lat="45.03219" lon="3.90215">
        <ele>764.026</ele>
        <time>2021-09-27T12:45:41Z</time>
      </trkpt>
      <trkpt lat="45.03219" lon="3.90223">
        <ele>763.411</ele>
        <time>2021-09-27T12:46:21Z</time>
      </trkpt>
      <trkpt lat="45.03219" lon="3.90236">
        <ele>762.343</ele>
        <time>2021-09-27T12:47:01Z</time>
      </trkpt>
      <trkpt lat="45.03218" lon="3.90239">
        <ele>761.981</ele>
        <time>2021-09-27T12:47:41Z</time>
      </trkpt>
      <trkpt lat="45.03217" lon="3.90244">
        <ele>761.384</ele>
        <time>2021-09-27T12:48:21Z</time>
      </trkpt>
      <trkpt lat="45.03217" lon="3.90245">
        <ele>761.286</ele>
        <time>2021-09-27T12:49:01Z</time>
      </trkpt>
      <trkpt lat="45.03217" lon="3.90246">
        <ele>761.116</ele>
        <time>2021-09-27T12:49:41Z</time>
      </trkpt>
      <trkpt lat="45.03212" lon="3.90254">
        <ele>759.694</ele>
        <time>2021-09-27T12:50:21Z</time>
      </trkpt>
      <trkpt lat="45.03207" lon="3.90259">
        <ele>758.057</ele>
        <time>2021-09-27T12:51:01Z</time>
      </trkpt>
      <trkpt lat="45.03185" lon="3.90261">
        <ele>755.022</ele>
        <time>2021-09-27T12:51:41Z</time>
      </trkpt>
      <trkpt lat="45.03164" lon="3.90268">
        <ele>754.308</ele>
        <time>2021-09-27T12:52:21Z</time>
      </trkpt>
      <trkpt lat="45.03157" lon="3.90273">
        <ele>754.117</ele>
        <time>2021-09-27T12:53:01Z</time>
      </trkpt>
      <trkpt lat="45.03155" lon="3.90279">
        <ele>753.883</ele>
        <time>2021-09-27T12:53:41Z</time>
      </trkpt>
      <trkpt lat="45.03152" lon="3.90286">
        <ele>753.438</ele>
        <time>2021-09-27T12:54:21Z</time>
      </trkpt>
      <trkpt lat="45.03151" lon="3.90297">
        <ele>752.77</ele>
        <time>2021-09-27T12:55:01Z</time>
      </trkpt>
      <trkpt lat="45.03154" lon="3.90324">
        <ele>751.678</ele>
        <time>2021-09-27T12:55:41Z</time>
      </trkpt>
      <trkpt lat="45.03162" lon="3.90383">
        <ele>750.251</ele>
        <time>2021-09-27T12:56:21Z</time>
      </trkpt>
      <trkpt lat="45.03168" lon="3.90428">
        <ele>750.043</ele>
        <time>2021-09-27T12:57:01Z</time>
      </trkpt>
      <trkpt lat="45.03171" lon="3.90451">
        <ele>749.823</ele>
        <time>2021-09-27T12:57:41Z</time>
      </trkpt>
      <trkpt lat="45.03173" lon="3.9047">
        <ele>749.358</ele>
        <time>2021-09-27T12:58:21Z</time>
      </trkpt>
      <trkpt lat="45.03172" lon="3.90493">
        <ele>747.752</ele>
        <time>2021-09-27T12:59:01Z</time>
      </trkpt>
      <trkpt lat="45.03172" lon="3.90494">
        <ele>747.617</ele>
        <time>2021-09-27T12:59:41Z</time>
      </trkpt>
      <trkpt lat="45.03172" lon="3.90496">
        <ele>747.508</ele>
        <time>2021-09-27T13:00:21Z</time>
      </trkpt>
      <trkpt lat="45.03173" lon="3.90499">
        <ele>747.313</ele>
        <time>2021-09-27T13:01:01Z</time>
      </trkpt>
      <trkpt lat="45.03173" lon="3.90502">
        <ele>747.279</ele>
        <time>2021-09-27T13:01:41Z</time>
      </trkpt>
      <trkpt lat="45.03174" lon="3.90506">
        <ele>747.154</ele>
        <time>2021-09-27T13:02:21Z</time>
      </trkpt>
      <trkpt lat="45.03174" lon="3.9051">
        <ele>747.086</ele>
        <time>2021-09-27T13:03:01Z</time>
      </trkpt>
      <trkpt lat="45.03175" lon="3.90514">
        <ele>747.014</ele>
        <time>2021-09-27T13:03:41Z</time>
      </trkpt>
      <trkpt lat="45.03178" lon="3.9052">
        <ele>747.017</ele>
        <time>2021-09-27T13:04:21Z</time>
      </trkpt>
      <trkpt lat="45.03173" lon="3.90526">
        <ele>746.579</ele>
        <time>2021-09-27T13:05:01Z</time>
      </trkpt>
      <trkpt lat="45.0317" lon="3.90531">
        <ele>746.319</ele>
        <time>2021-09-27T13:05:41Z</time>
      </trkpt>
      <trkpt lat="45.03167" lon="3.90536">
        <ele>746.375</ele>
        <time>2021-09-27T13:06:21Z</time>
      </trkpt>
      <trkpt lat="45.03164" lon="3.90538">
        <ele>746.328</ele>
        <time>2021-09-27T13:07:01Z</time>
      </trkpt>
      <trkpt lat="45.0316" lon="3.90541">
        <ele>746.32</ele>
        <time>2021-09-27T13:07:41Z</time>
      </trkpt>
      <trkpt lat="45.03156" lon="3.90542">
        <ele>746.308</ele>
        <time>2021-09-27T13:08:21Z</time>
      </trkpt>
      <trkpt lat="45.03151" lon="3.90543">
        <ele>746.385</ele>
        <time>2021-09-27T13:09:01Z</time>
      </trkpt>
      <trkpt lat="45.03145" lon="3.90544">
        <ele>746.351</ele>
        <time>2021-09-27T13:09:41Z</time>
      </trkpt>
      <trkpt lat="45.03139" lon="3.90544">
        <ele>746.276</ele>
        <time>2021-09-27T13:10:21Z</time>
      </trkpt>
      <trkpt lat="45.03133" lon="3.90545">
        <ele>746.178</ele>
        <time>2021-09-27T13:11:01Z</time>
      </trkpt>
      <trkpt lat="45.03128" lon="3.90546">
        <ele>746.056</ele>
        <time>2021-09-27T13:11:41Z</time>
      </trkpt>
      <trkpt lat="45.03122" lon="3.90547">
        <ele>746.049</ele>
        <time>2021-09-27T13:12:21Z</time>
      </trkpt>
      <trkpt lat="45.03117" lon="3.90548">
        <ele>745.981</ele>
        <time>2021-09-27T13:13:01Z</time>
      </trkpt>
      <trkpt lat="45.03112" lon="3.90548">
        <ele>745.761</ele>
        <time>2021-09-27T13:13:41Z</time>
      </trkpt>
      <trkpt lat="45.03108" lon="3.90549">
        <ele>745.834</ele>
        <time>2021-09-27T13:14:21Z</time>
      </trkpt>
      <trkpt lat="45.03104" lon="3.9055">
        <ele>745.855</ele>
        <time>2021-09-27T13:15:01Z</time>
      </trkpt>
      <trkpt lat="45.031" lon="3.90553">
        <ele>745.91</ele>
        <time>2021-09-27T13:15:41Z</time>
      </trkpt>
      <trkpt lat="45.03098" lon="3.90557">
        <ele>746.108</ele>
        <time>2021-09-27T13:16:21Z</time>
      </trkpt>
      <trkpt lat="45.03097" lon="3.90561">
        <ele>746.551</ele>
        <time>2021-09-27T13:17:01Z</time>
      </trkpt>
      <trkpt lat="45.03097" lon="3.90565">
        <ele>746.887</ele>
        <time>2021-09-27T13:17:41Z</time>
      </trkpt>
      <trkpt lat="45.03098" lon="3.90569">
        <ele>747.352</ele>
        <time>2021-09-27T13:18:21Z</time>
      </trkpt>
      <trkpt lat="45.031" lon="3.90574">
        <ele>747.764</ele>
        <time>2021-09-27T13:19:01Z</time>
      </trkpt>
      <trkpt lat="45.03101" lon="3.90578">
        <ele>748.162</ele>
        <time>2021-09-27T13:19:41Z</time>
      </trkpt>
      <trkpt lat="45.03102" lon="3.90582">
        <ele>748.555</ele>
        <time>2021-09-27T13:20:21Z</time>
      </trkpt>
      <trkpt lat="45.03103" lon="3.90586">
        <ele>748.977</ele>
        <time>2021-09-27T13:21:01Z</time>
      </trkpt>
      <trkpt lat="45.03102" lon="3.90591">
        <ele>749.437</ele>
        <time>2021-09-27T13:21:41Z</time>
      </trkpt>
      <trkpt lat="45.03102" lon="3.90597">
        <ele>749.979</ele>
        <time>2021-09-27T13:22:21Z</time>
      </trkpt>
      <trkpt lat="45.03098" lon="3.90637">
        <ele>752.405</ele>
        <time>2021-09-27T13:23:01Z</time>
      </trkpt>
      <trkpt lat="45.03099" lon="3.90645">
        <ele>752.825</ele>
        <time>2021-09-27T13:23:41Z</time>
      </trkpt>
      <trkpt lat="45.03099" lon="3.90649">
        <ele>752.908</ele>
        <time>2021-09-27T13:24:21Z</time>
      </trkpt>
      <trkpt lat="45.031" lon="3.90652">
        <ele>753.015</ele>
        <time>2021-09-27T13:25:01Z</time>
      </trkpt>
      <trkpt lat="45.031" lon="3.90654">
        <ele>753.161</ele>
        <time>2021-09-27T13:25:41Z</time>
      </trkpt>
      <trkpt lat="45.03101" lon="3.90656">
        <ele>753.396</ele>
        <time>2021-09-27T13:26:21Z</time>
      </trkpt>
      <trkpt lat="45.03102" lon="3.90658">
        <ele>753.488</ele>
        <time>2021-09-27T13:27:01Z</time>
      </trkpt>
      <trkpt lat="45.03104" lon="3.90665">
        <ele>753.746</ele>
        <time>2021-09-27T13:27:41Z</time>
      </trkpt>
      <trkpt lat="45.03106" lon="3.9067">
        <ele>753.929</ele>
        <time>2021-09-27T13:28:21Z</time>
      </trkpt>
      <trkpt lat="45.03108" lon="3.90676">
        <ele>754.231</ele>
        <time>2021-09-27T13:29:01Z</time>
      </trkpt>
      <trkpt lat="45.03109" lon="3.90681">
        <ele>754.591</ele>
        <time>2021-09-27T13:29:41Z</time>
      </trkpt>
      <trkpt lat="45.03112" lon="3.90688">
        <ele>754.845</ele>
        <time>2021-09-27T13:30:21Z</time>
      </trkpt>
      <trkpt lat="45.03114" lon="3.90694">
        <ele>755.147</ele>
        <time>2021-09-27T13:31:01Z</time>
      </trkpt>
      <trkpt lat="45.03116" lon="3.90698">
        <ele>755.311</ele>
        <time>2021-09-27T13:31:41Z</time>
      </trkpt>
      <trkpt lat="45.03112" lon="3.90703">
        <ele>755.308</ele>
        <time>2021-09-27T13:32:21Z</time>
      </trkpt>
      <trkpt lat="45.0311" lon="3.90705">
        <ele>755.432</ele>
        <time>2021-09-27T13:33:01Z</time>
      </trkpt>
      <trkpt lat="45.03097" lon="3.90717">
        <ele>755.388</ele>
        <time>2021-09-27T13:33:41Z</time>
      </trkpt>
      <trkpt lat="45.0308" lon="3.90731">
        <ele>755.683</ele>
        <time>2021-09-27T13:34:21Z</time>
      </trkpt>
      <trkpt lat="45.03066" lon="3.90738">
        <ele>755.995</ele>
        <time>2021-09-27T13:35:01Z</time>
      </trkpt>
      <trkpt lat="45.03053" lon="3.90742">
        <ele>756.363</ele>
        <time>2021-09-27T13:35:41Z</time>
      </trkpt>
      <trkpt lat="45.03034" lon="3.90747">
        <ele>758.376</ele>
        <time>2021-09-27T13:36:21Z</time>
      </trkpt>
      <trkpt lat="45.03021" lon="3.90755">
        <ele>759.688</ele>
        <time>2021-09-27T13:37:01Z</time>
      </trkpt>
      <trkpt lat="45.03012" lon="3.90762">
        <ele>760.788</ele>
        <time>2021-09-27T13:37:41Z</time>
      </trkpt>
      <trkpt lat="45.03004" lon="3.90769">
        <ele>761.831</ele>
        <time>2021-09-27T13:38:21Z</time>
      </trkpt>
      <trkpt lat="45.02994" lon="3.90789">
        <ele>764.361</ele>
        <time>2021-09-27T13:39:01Z</time>
      </trkpt>
      <trkpt lat="45.02983" lon="3.90805">
        <ele>766.107</ele>
        <time>2021-09-27T13:39:41Z</time>
      </trkpt>
      <trkpt lat="45.02965" lon="3.90825">
        <ele>769.308</ele>
        <time>2021-09-27T13:40:21Z</time>
      </trkpt>
      <trkpt lat="45.02953" lon="3.90849">
        <ele>773.581</ele>
        <time>2021-09-27T13:41:01Z</time>
      </trkpt>
      <trkpt lat="45.02937" lon="3.90877">
        <ele>779.477</ele>
        <time>2021-09-27T13:41:41Z</time>
      </trkpt>
      <trkpt lat="45.02927" lon="3.90887">
        <ele>782.242</ele>
        <time>2021-09-27T13:42:21Z</time>
      </trkpt>
      <trkpt lat="45.02908" lon="3.90903">
        <ele>786.534</ele>
        <time>2021-09-27T13:43:01Z</time>
      </trkpt>
      <trkpt lat="45.02884" lon="3.90914">
        <ele>791.372</ele>
        <time>2021-09-27T13:43:41Z</time>
      </trkpt>
      <trkpt lat="45.02864" lon="3.90931">
        <ele>795.175</ele>
        <time>2021-09-27T13:44:21Z</time>
      </trkpt>
      <trkpt lat="45.02851" lon="3.90941">
        <ele>797.747</ele>
        <time>2021-09-27T13:45:01Z</time>
      </trkpt>
      <trkpt lat="45.02832" lon="3.90953">
        <ele>801.627</ele>
        <time>2021-09-27T13:45:41Z</time>
      </trkpt>
      <trkpt lat="45.0281" lon="3.90966">
        <ele>804.882</ele>
        <time>2021-09-27T13:46:21Z</time>
      </trkpt>
      <trkpt lat="45.02772" lon="3.90979">
        <ele>807.843</ele>
        <time>2021-09-27T13:47:01Z</time>
      </trkpt>
      <trkpt lat="45.02746" lon="3.90989">
        <ele>810.317</ele>
        <time>2021-09-27T13:47:41Z</time>
      </trkpt>
      <trkpt lat="45.02737" lon="3.90995">
        <ele>811.808</ele>
        <time>2021-09-27T13:48:21Z</time>
      </trkpt>
      <trkpt lat="45.02732" lon="3.91003">
        <ele>812.956</ele>
        <time>2021-09-27T13:49:01Z</time>
      </trkpt>
      <trkpt lat="45.02727" lon="3.91009">
        <ele>813.542</ele>
        <time>2021-09-27T13:49:41Z</time>
      </trkpt>
      <trkpt lat="45.02718" lon="3.91014">
        <ele>814.187</ele>
        <time>2021-09-27T13:50:21Z</time>
      </trkpt>
      <trkpt lat="45.02705" lon="3.91017">
        <ele>814.459</ele>
        <time>2021-09-27T13:51:01Z</time>
      </trkpt>
      <trkpt lat="45.02694" lon="3.91015">
        <ele>814.677</ele>
        <time>2021-09-27T13:51:41Z</time>
      </trkpt>
      <trkpt lat="45.0267" lon="3.91013">
        <ele>814.95</ele>
        <time>2021-09-27T13:52:21Z</time>
      </trkpt>
      <trkpt lat="45.02644" lon="3.91014">
        <ele>815.862</ele>
        <time>2021-09-27T13:53:01Z</time>
      </trkpt>
      <trkpt lat="45.02618" lon="3.91015">
        <ele>817.632</ele>
        <time>2021-09-27T13:53:41Z</time>
      </trkpt>
      <trkpt lat="45.02597" lon="3.91019">
        <ele>819.479</ele>
        <time>2021-09-27T13:54:21Z</time>
      </trkpt>
      <trkpt lat="45.02579" lon="3.91023">
        <ele>821.005</ele>
        <time>2021-09-27T13:55:01Z</time>
      </trkpt>
      <trkpt lat="45.02566" lon="3.91026">
        <ele>822.125</ele>
        <time>2021-09-27T13:55:41Z</time>
      </trkpt>
      <trkpt lat="45.02537" lon="3.9104">
        <ele>824.408</ele>
        <time>2021-09-27T13:56:21Z</time>
      </trkpt>
      <trkpt lat="45.02521" lon="3.91045">
        <ele>825.055</ele>
        <time>2021-09-27T13:57:01Z</time>
      </trkpt>
      <trkpt lat="45.02514" lon="3.91049">
        <ele>825.031</ele>
        <time>2021-09-27T13:57:41Z</time>
      </trkpt>
      <trkpt lat="45.0251" lon="3.91056">
        <ele>825.086</ele>
        <time>2021-09-27T13:58:21Z</time>
      </trkpt>
      <trkpt lat="45.02505" lon="3.91059">
        <ele>825.088</ele>
        <time>2021-09-27T13:59:01Z</time>
      </trkpt>
      <trkpt lat="45.02494" lon="3.9106">
        <ele>825.036</ele>
        <time>2021-09-27T13:59:41Z</time>
      </trkpt>
      <trkpt lat="45.02479" lon="3.91058">
        <ele>825.149</ele>
        <time>2021-09-27T14:00:21Z</time>
      </trkpt>
      <trkpt lat="45.02465" lon="3.91054">
        <ele>825.391</ele>
        <time>2021-09-27T14:01:01Z</time>
      </trkpt>
      <trkpt lat="45.02448" lon="3.91052">
        <ele>825.931</ele>
        <time>2021-09-27T14:01:41Z</time>
      </trkpt>
      <trkpt lat="45.02432" lon="3.91053">
        <ele>826.956</ele>
        <time>2021-09-27T14:02:21Z</time>
      </trkpt>
      <trkpt lat="45.02415" lon="3.91057">
        <ele>828.259</ele>
        <time>2021-09-27T14:03:01Z</time>
      </trkpt>
      <trkpt lat="45.02399" lon="3.91064">
        <ele>829.114</ele>
        <time>2021-09-27T14:03:41Z</time>
      </trkpt>
      <trkpt lat="45.02392" lon="3.91067">
        <ele>829.408</ele>
        <time>2021-09-27T14:04:21Z</time>
      </trkpt>
      <trkpt lat="45.02389" lon="3.91072">
        <ele>829.493</ele>
        <time>2021-09-27T14:05:01Z</time>
      </trkpt>
      <trkpt lat="45.02382" lon="3.91078">
        <ele>829.519</ele>
        <time>2021-09-27T14:05:41Z</time>
      </trkpt>
      <trkpt lat="45.02367" lon="3.91087">
        <ele>829.834</ele>
        <time>2021-09-27T14:06:21Z</time>
      </trkpt>
      <trkpt lat="45.02361" lon="3.91092">
        <ele>830.046</ele>
        <time>2021-09-27T14:07:01Z</time>
      </trkpt>
      <trkpt lat="45.02357" lon="3.91093">
        <ele>830.174</ele>
        <time>2021-09-27T14:07:41Z</time>
      </trkpt>
      <trkpt lat="45.02347" lon="3.91097">
        <ele>830.327</ele>
        <time>2021-09-27T14:08:21Z</time>
      </trkpt>
      <trkpt lat="45.02328" lon="3.9111">
        <ele>830.259</ele>
        <time>2021-09-27T14:09:01Z</time>
      </trkpt>
      <trkpt lat="45.02307" lon="3.91126">
        <ele>831.049</ele>
        <time>2021-09-27T14:09:41Z</time>
      </trkpt>
      <trkpt lat="45.02301" lon="3.91129">
        <ele>831.148</ele>
        <time>2021-09-27T14:10:21Z</time>
      </trkpt>
      <trkpt lat="45.02289" lon="3.91135">
        <ele>831.161</ele>
        <time>2021-09-27T14:11:01Z</time>
      </trkpt>
      <trkpt lat="45.02279" lon="3.91139">
        <ele>831.017</ele>
        <time>2021-09-27T14:11:41Z</time>
      </trkpt>
      <trkpt lat="45.02262" lon="3.91147">
        <ele>830.808</ele>
        <time>2021-09-27T14:12:21Z</time>
      </trkpt>
      <trkpt lat="45.02245" lon="3.91159">
        <ele>830.382</ele>
        <time>2021-09-27T14:13:01Z</time>
      </trkpt>
      <trkpt lat="45.02219" lon="3.91178">
        <ele>830.048</ele>
        <time>2021-09-27T14:13:41Z</time>
      </trkpt>
      <trkpt lat="45.02204" lon="3.91189">
        <ele>830.043</ele>
        <time>2021-09-27T14:14:21Z</time>
      </trkpt>
      <trkpt lat="45.02193" lon="3.91196">
        <ele>829.965</ele>
        <time>2021-09-27T14:15:01Z</time>
      </trkpt>
      <trkpt lat="45.02184" lon="3.91204">
        <ele>829.143</ele>
        <time>2021-09-27T14:15:41Z</time>
      </trkpt>
      <trkpt lat="45.02175" lon="3.91214">
        <ele>828.166</ele>
        <time>2021-09-27T14:16:21Z</time>
      </trkpt>
      <trkpt lat="45.0216" lon="3.91235">
        <ele>826.838</ele>
        <time>2021-09-27T14:17:01Z</time>
      </trkpt>
      <trkpt lat="45.02153" lon="3.91246">
        <ele>826.528</ele>
        <time>2021-09-27T14:17:41Z</time>
      </trkpt>
      <trkpt lat="45.02129" lon="3.9128">
        <ele>826.033</ele>
        <time>2021-09-27T14:18:21Z</time>
      </trkpt>
      <trkpt lat="45.02102" lon="3.91321">
        <ele>825.323</ele>
        <time>2021-09-27T14:19:01Z</time>
      </trkpt>
      <trkpt lat="45.02096" lon="3.91328">
        <ele>824.915</ele>
        <time>2021-09-27T14:19:41Z</time>
      </trkpt>
      <trkpt lat="45.02092" lon="3.91332">
        <ele>824.608</ele>
        <time>2021-09-27T14:20:21Z</time>
      </trkpt>
      <trkpt lat="45.02085" lon="3.91333">
        <ele>824.121</ele>
        <time>2021-09-27T14:21:01Z</time>
      </trkpt>
      <trkpt lat="45.02074" lon="3.91336">
        <ele>822.967</ele>
        <time>2021-09-27T14:21:41Z</time>
      </trkpt>
      <trkpt lat="45.02067" lon="3.91336">
        <ele>822.312</ele>
        <time>2021-09-27T14:22:21Z</time>
      </trkpt>
      <trkpt lat="45.02039" lon="3.91333">
        <ele>819.244</ele>
        <time>2021-09-27T14:23:01Z</time>
      </trkpt>
      <trkpt lat="45.02028" lon="3.91334">
        <ele>818.052</ele>
        <time>2021-09-27T14:23:41Z</time>
      </trkpt>
      <trkpt lat="45.02018" lon="3.91337">
        <ele>817.535</ele>
        <time>2021-09-27T14:24:21Z</time>
      </trkpt>
      <trkpt lat="45.02003" lon="3.91345">
        <ele>816.087</ele>
        <time>2021-09-27T14:25:01Z</time>
      </trkpt>
      <trkpt lat="45.01977" lon="3.91354">
        <ele>812.327</ele>
        <time>2021-09-27T14:25:41Z</time>
      </trkpt>
      <trkpt lat="45.01948" lon="3.91363">
        <ele>809.194</ele>
        <time>2021-09-27T14:26:21Z</time>
      </trkpt>
      <trkpt lat="45.01944" lon="3.91366">
        <ele>808.657</ele>
        <time>2021-09-27T14:27:01Z</time>
      </trkpt>
      <trkpt lat="45.01938" lon="3.91368">
        <ele>807.822</ele>
        <time>2021-09-27T14:27:41Z</time>
      </trkpt>
      <trkpt lat="45.01936" lon="3.91369">
        <ele>807.508</ele>
        <time>2021-09-27T14:28:21Z</time>
      </trkpt>
      <trkpt lat="45.01916" lon="3.91378">
        <ele>804.797</ele>
        <time>2021-09-27T14:29:01Z</time>
      </trkpt>
      <trkpt lat="45.01888" lon="3.91387">
        <ele>801.153</ele>
        <time>2021-09-27T14:29:41Z</time>
      </trkpt>
      <trkpt lat="45.01865" lon="3.9139">
        <ele>800.168</ele>
        <time>2021-09-27T14:30:21Z</time>
      </trkpt>
      <trkpt lat="45.01819" lon="3.91396">
        <ele>799.02</ele>
        <time>2021-09-27T14:31:01Z</time>
      </trkpt>
      <trkpt lat="45.01792" lon="3.91402">
        <ele>798.558</ele>
        <time>2021-09-27T14:31:41Z</time>
      </trkpt>
      <trkpt lat="45.0177" lon="3.91409">
        <ele>797.371</ele>
        <time>2021-09-27T14:32:21Z</time>
      </trkpt>
      <trkpt lat="45.0175" lon="3.91411">
        <ele>795.893</ele>
        <time>2021-09-27T14:33:01Z</time>
      </trkpt>
      <trkpt lat="45.01736" lon="3.91412">
        <ele>795.493</ele>
        <time>2021-09-27T14:33:41Z</time>
      </trkpt>
      <trkpt lat="45.01729" lon="3.91414">
        <ele>795.251</ele>
        <time>2021-09-27T14:34:21Z</time>
      </trkpt>
      <trkpt lat="45.01721" lon="3.91416">
        <ele>795.001</ele>
        <time>2021-09-27T14:35:01Z</time>
      </trkpt>
      <trkpt lat="45.01712" lon="3.91419">
        <ele>795.011</ele>
        <time>2021-09-27T14:35:41Z</time>
      </trkpt>
      <trkpt lat="45.01699" lon="3.91428">
        <ele>794.708</ele>
        <time>2021-09-27T14:36:21Z</time>
      </trkpt>
      <trkpt lat="45.01682" lon="3.91446">
        <ele>793.613</ele>
        <time>2021-09-27T14:37:01Z</time>
      </trkpt>
      <trkpt lat="45.01668" lon="3.91459">
        <ele>793.089</ele>
        <time>2021-09-27T14:37:41Z</time>
      </trkpt>
      <trkpt lat="45.01652" lon="3.9147">
        <ele>792.544</ele>
        <time>2021-09-27T14:38:21Z</time>
      </trkpt>
      <trkpt lat="45.01639" lon="3.91478">
        <ele>791.846</ele>
        <time>2021-09-27T14:39:01Z</time>
      </trkpt>
      <trkpt lat="45.01629" lon="3.91482">
        <ele>791.034</ele>
        <time>2021-09-27T14:39:41Z</time>
      </trkpt>
      <trkpt lat="45.01618" lon="3.91484">
        <ele>790.447</ele>
        <time>2021-09-27T14:40:21Z</time>
      </trkpt>
      <trkpt lat="45.01604" lon="3.91486">
        <ele>790.039</ele>
        <time>2021-09-27T14:41:01Z</time>
      </trkpt>
      <trkpt lat="45.01598" lon="3.91487">
        <ele>790.039</ele>
        <time>2021-09-27T14:41:41Z</time>
      </trkpt>
      <trkpt lat="45.01594" lon="3.91484">
        <ele>789.989</ele>
        <time>2021-09-27T14:42:21Z</time>
      </trkpt>
      <trkpt lat="45.01592" lon="3.91475">
        <ele>789.506</ele>
        <time>2021-09-27T14:43:01Z</time>
      </trkpt>
      <trkpt lat="45.0159" lon="3.91464">
        <ele>789.026</ele>
        <time>2021-09-27T14:43:41Z</time>
      </trkpt>
      <trkpt lat="45.01586" lon="3.91448">
        <ele>788.308</ele>
        <time>2021-09-27T14:44:21Z</time>
      </trkpt>
      <trkpt lat="45.01577" lon="3.91422">
        <ele>787.016</ele>
        <time>2021-09-27T14:45:01Z</time>
      </trkpt>
      <trkpt lat="45.01565" lon="3.91386">
        <ele>786.372</ele>
        <time>2021-09-27T14:45:41Z</time>
      </trkpt>
      <trkpt lat="45.01557" lon="3.9137">
        <ele>786.097</ele>
        <time>2021-09-27T14:46:21Z</time>
      </trkpt>
      <trkpt lat="45.01551" lon="3.91365">
        <ele>786.029</ele>
        <time>2021-09-27T14:47:01Z</time>
      </trkpt>
      <trkpt lat="45.01546" lon="3.91362">
        <ele>786.067</ele>
        <time>2021-09-27T14:47:41Z</time>
      </trkpt>
      <trkpt lat="45.01543" lon="3.91361">
        <ele>786.06</ele>
        <time>2021-09-27T14:48:21Z</time>
      </trkpt>
      <trkpt lat="45.01541" lon="3.91361">
        <ele>786.092</ele>
        <time>2021-09-27T14:49:01Z</time>
      </trkpt>
      <trkpt lat="45.01535" lon="3.91363">
        <ele>786.082</ele>
        <time>2021-09-27T14:49:41Z</time>
      </trkpt>
      <trkpt lat="45.01526" lon="3.9137">
        <ele>786.027</ele>
        <time>2021-09-27T14:50:21Z</time>
      </trkpt>
      <trkpt lat="45.01516" lon="3.91376">
        <ele>786.068</ele>
        <time>2021-09-27T14:51:01Z</time>
      </trkpt>
      <trkpt lat="45.01507" lon="3.9138">
        <ele>786.014</ele>
        <time>2021-09-27T14:51:41Z</time>
      </trkpt>
      <trkpt lat="45.01496" lon="3.91382">
        <ele>785.908</ele>
        <time>2021-09-27T14:52:21Z</time>
      </trkpt>
      <trkpt lat="45.01483" lon="3.9138">
        <ele>785.41</ele>
        <time>2021-09-27T14:53:01Z</time>
      </trkpt>
      <trkpt lat="45.01466" lon="3.91375">
        <ele>784.476</ele>
        <time>2021-09-27T14:53:41Z</time>
      </trkpt>
      <trkpt lat="45.0145" lon="3.91368">
        <ele>783.271</ele>
        <time>2021-09-27T14:54:21Z</time>
      </trkpt>
      <trkpt lat="45.01439" lon="3.91359">
        <ele>783.173</ele>
        <time>2021-09-27T14:55:01Z</time>
      </trkpt>
      <trkpt lat="45.01423" lon="3.91344">
        <ele>783.611</ele>
        <time>2021-09-27T14:55:41Z</time>
      </trkpt>
      <trkpt lat="45.01418" lon="3.91343">
        <ele>783.644</ele>
        <time>2021-09-27T14:56:21Z</time>
      </trkpt>
      <trkpt lat="45.01414" lon="3.91345">
        <ele>783.696</ele>
        <time>2021-09-27T14:57:01Z</time>
      </trkpt>
      <trkpt lat="45.01409" lon="3.91349">
        <ele>783.666</ele>
        <time>2021-09-27T14:57:41Z</time>
      </trkpt>
      <trkpt lat="45.01405" lon="3.91359">
        <ele>783.599</ele>
        <time>2021-09-27T14:58:21Z</time>
      </trkpt>
      <trkpt lat="45.01399" lon="3.91372">
        <ele>783.907</ele>
        <time>2021-09-27T14:59:01Z</time>
      </trkpt>
      <trkpt lat="45.01394" lon="3.91379">
        <ele>784.327</ele>
        <time>2021-09-27T14:59:41Z</time>
      </trkpt>
      <trkpt lat="45.01384" lon="3.91383">
        <ele>784.808</ele>
        <time>2021-09-27T15:00:21Z</time>
      </trkpt>
      <trkpt lat="45.01367" lon="3.91388">
        <ele>785.087</ele>
        <time>2021-09-27T15:01:01Z</time>
      </trkpt>
      <trkpt lat="45.0136" lon="3.91391">
        <ele>784.933</ele>
        <time>2021-09-27T15:01:41Z</time>
      </trkpt>
      <trkpt lat="45.01351" lon="3.91399">
        <ele>784.498</ele>
        <time>2021-09-27T15:02:21Z</time>
      </trkpt>
      <trkpt lat="45.01342" lon="3.91408">
        <ele>784.17</ele>
        <time>2021-09-27T15:03:01Z</time>
      </trkpt>
      <trkpt lat="45.01341" lon="3.91401">
        <ele>784.158</ele>
        <time>2021-09-27T15:03:41Z</time>
      </trkpt>
      <trkpt lat="45.01338" lon="3.91388">
        <ele>784.171</ele>
        <time>2021-09-27T15:04:21Z</time>
      </trkpt>
      <trkpt lat="45.01333" lon="3.91364">
        <ele>784.043</ele>
        <time>2021-09-27T15:05:01Z</time>
      </trkpt>
      <trkpt lat="45.01327" lon="3.91343">
        <ele>784.863</ele>
        <time>2021-09-27T15:05:41Z</time>
      </trkpt>
      <trkpt lat="45.01321" lon="3.91327">
        <ele>785.813</ele>
        <time>2021-09-27T15:06:21Z</time>
      </trkpt>
      <trkpt lat="45.01315" lon="3.91311">
        <ele>787.043</ele>
        <time>2021-09-27T15:07:01Z</time>
      </trkpt>
      <trkpt lat="45.01308" lon="3.91291">
        <ele>788.407</ele>
        <time>2021-09-27T15:07:41Z</time>
      </trkpt>
      <trkpt lat="45.01305" lon="3.91279">
        <ele>788.908</ele>
        <time>2021-09-27T15:08:21Z</time>
      </trkpt>
      <trkpt lat="45.01301" lon="3.91264">
        <ele>788.919</ele>
        <time>2021-09-27T15:09:01Z</time>
      </trkpt>
      <trkpt lat="45.013" lon="3.91249">
        <ele>788.875</ele>
        <time>2021-09-27T15:09:41Z</time>
      </trkpt>
      <trkpt lat="45.01299" lon="3.91237">
        <ele>788.39</ele>
        <time>2021-09-27T15:10:21Z</time>
      </trkpt>
      <trkpt lat="45.01301" lon="3.91224">
        <ele>787.912</ele>
        <time>2021-09-27T15:11:01Z</time>
      </trkpt>
      <trkpt lat="45.01308" lon="3.91185">
        <ele>787.03</ele>
        <time>2021-09-27T15:11:41Z</time>
      </trkpt>
      <trkpt lat="45.0132" lon="3.91123">
        <ele>789.083</ele>
        <time>2021-09-27T15:12:21Z</time>
      </trkpt>
      <trkpt lat="45.01332" lon="3.9106">
        <ele>789.125</ele>
        <time>2021-09-27T15:13:01Z</time>
      </trkpt>
      <trkpt lat="45.01339" lon="3.91023">
        <ele>789.495</ele>
        <time>2021-09-27T15:13:41Z</time>
      </trkpt>
      <trkpt lat="45.01342" lon="3.91011">
        <ele>789.914</ele>
        <time>2021-09-27T15:14:21Z</time>
      </trkpt>
      <trkpt lat="45.01342" lon="3.91002">
        <ele>790.354</ele>
        <time>2021-09-27T15:15:01Z</time>
      </trkpt>
      <trkpt lat="45.01342" lon="3.90991">
        <ele>791.009</ele>
        <time>2021-09-27T15:15:41Z</time>
      </trkpt>
      <trkpt lat="45.01341" lon="3.90975">
        <ele>792.108</ele>
        <time>2021-09-27T15:16:21Z</time>
      </trkpt>
      <trkpt lat="45.0134" lon="3.90953">
        <ele>793.619</ele>
        <time>2021-09-27T15:17:01Z</time>
      </trkpt>
      <trkpt lat="45.0134" lon="3.9094">
        <ele>794.455</ele>
        <time>2021-09-27T15:17:41Z</time>
      </trkpt>
      <trkpt lat="45.01341" lon="3.9093">
        <ele>794.96</ele>
        <time>2021-09-27T15:18:21Z</time>
      </trkpt>
      <trkpt lat="45.01343" lon="3.90917">
        <ele>795.792</ele>
        <time>2021-09-27T15:19:01Z</time>
      </trkpt>
      <trkpt lat="45.0135" lon="3.90899">
        <ele>797.66</ele>
        <time>2021-09-27T15:19:41Z</time>
      </trkpt>
      <trkpt lat="45.0135" lon="3.90889">
        <ele>798.453</ele>
        <time>2021-09-27T15:20:21Z</time>
      </trkpt>
      <trkpt lat="45.01349" lon="3.90882">
        <ele>799.295</ele>
        <time>2021-09-27T15:21:01Z</time>
      </trkpt>
      <trkpt lat="45.01346" lon="3.90878">
        <ele>799.225</ele>
        <time>2021-09-27T15:21:41Z</time>
      </trkpt>
      <trkpt lat="45.01345" lon="3.90876">
        <ele>799.128</ele>
        <time>2021-09-27T15:22:21Z</time>
      </trkpt>
      <trkpt lat="45.0134" lon="3.90871">
        <ele>799.089</ele>
        <time>2021-09-27T15:23:01Z</time>
      </trkpt>
      <trkpt lat="45.01333" lon="3.9086">
        <ele>799.117</ele>
        <time>2021-09-27T15:23:41Z</time>
      </trkpt>
      <trkpt lat="45.01323" lon="3.90838">
        <ele>800.608</ele>
        <time>2021-09-27T15:24:21Z</time>
      </trkpt>
      <trkpt lat="45.01308" lon="3.90808">
        <ele>802.02</ele>
        <time>2021-09-27T15:25:01Z</time>
      </trkpt>
      <trkpt lat="45.01292" lon="3.90781">
        <ele>805.526</ele>
        <time>2021-09-27T15:25:41Z</time>
      </trkpt>
      <trkpt lat="45.01284" lon="3.90762">
        <ele>807.111</ele>
        <time>2021-09-27T15:26:21Z</time>
      </trkpt>
      <trkpt lat="45.01275" lon="3.90748">
        <ele>807.913</ele>
        <time>2021-09-27T15:27:01Z</time>
      </trkpt>
      <trkpt lat="45.01262" lon="3.9073">
        <ele>807.661</ele>
        <time>2021-09-27T15:27:41Z</time>
      </trkpt>
      <trkpt lat="45.01252" lon="3.90713">
        <ele>807.194</ele>
        <time>2021-09-27T15:28:21Z</time>
      </trkpt>
      <trkpt lat="45.01247" lon="3.907">
        <ele>807.176</ele>
        <time>2021-09-27T15:29:01Z</time>
      </trkpt>
      <trkpt lat="45.01244" lon="3.90688">
        <ele>807.416</ele>
        <time>2021-09-27T15:29:41Z</time>
      </trkpt>
      <trkpt lat="45.01243" lon="3.90676">
        <ele>807.975</ele>
        <time>2021-09-27T15:30:21Z</time>
      </trkpt>
      <trkpt lat="45.01244" lon="3.90667">
        <ele>808.22</ele>
        <time>2021-09-27T15:31:41Z</time>
      </trkpt>
      <trkpt lat="45.0124" lon="3.90669">
        <ele>808.308</ele>
        <time>2021-09-27T15:32:21Z</time>
      </trkpt>
      <trkpt lat="45.01236" lon="3.90672">
        <ele>808.365</ele>
        <time>2021-09-27T15:33:01Z</time>
      </trkpt>
      <trkpt lat="45.01232" lon="3.90675">
        <ele>808.311</ele>
        <time>2021-09-27T15:33:41Z</time>
      </trkpt>
      <trkpt lat="45.01228" lon="3.90678">
        <ele>808.496</ele>
        <time>2021-09-27T15:34:21Z</time>
      </trkpt>
      <trkpt lat="45.01225" lon="3.90682">
        <ele>808.498</ele>
        <time>2021-09-27T15:35:01Z</time>
      </trkpt>
      <trkpt lat="45.01221" lon="3.90686">
        <ele>808.316</ele>
        <time>2021-09-27T15:35:41Z</time>
      </trkpt>
      <trkpt lat="45.01218" lon="3.9069">
        <ele>808.219</ele>
        <time>2021-09-27T15:36:21Z</time>
      </trkpt>
      <trkpt lat="45.01214" lon="3.90694">
        <ele>808.031</ele>
        <time>2021-09-27T15:37:01Z</time>
      </trkpt>
      <trkpt lat="45.01211" lon="3.90698">
        <ele>807.811</ele>
        <time>2021-09-27T15:37:41Z</time>
      </trkpt>
      <trkpt lat="45.01207" lon="3.90702">
        <ele>807.636</ele>
        <time>2021-09-27T15:38:21Z</time>
      </trkpt>
      <trkpt lat="45.01204" lon="3.90706">
        <ele>807.417</ele>
        <time>2021-09-27T15:39:01Z</time>
      </trkpt>
      <trkpt lat="45.012" lon="3.9071">
        <ele>807.318</ele>
        <time>2021-09-27T15:39:41Z</time>
      </trkpt>
      <trkpt lat="45.01197" lon="3.90715">
        <ele>807.208</ele>
        <time>2021-09-27T15:40:21Z</time>
      </trkpt>
      <trkpt lat="45.01193" lon="3.90719">
        <ele>807.151</ele>
        <time>2021-09-27T15:41:01Z</time>
      </trkpt>
      <trkpt lat="45.01189" lon="3.90723">
        <ele>806.797</ele>
        <time>2021-09-27T15:41:41Z</time>
      </trkpt>
      <trkpt lat="45.01186" lon="3.90727">
        <ele>806.472</ele>
        <time>2021-09-27T15:42:21Z</time>
      </trkpt>
      <trkpt lat="45.01182" lon="3.90731">
        <ele>806.234</ele>
        <time>2021-09-27T15:43:01Z</time>
      </trkpt>
      <trkpt lat="45.01178" lon="3.90735">
        <ele>806.012</ele>
        <time>2021-09-27T15:43:41Z</time>
      </trkpt>
      <trkpt lat="45.01175" lon="3.9074">
        <ele>805.975</ele>
        <time>2021-09-27T15:44:21Z</time>
      </trkpt>
      <trkpt lat="45.01171" lon="3.90744">
        <ele>805.957</ele>
        <time>2021-09-27T15:45:01Z</time>
      </trkpt>
      <trkpt lat="45.01167" lon="3.90748">
        <ele>806.037</ele>
        <time>2021-09-27T15:45:41Z</time>
      </trkpt>
      <trkpt lat="45.01164" lon="3.90752">
        <ele>805.961</ele>
        <time>2021-09-27T15:46:21Z</time>
      </trkpt>
      <trkpt lat="45.0116" lon="3.90756">
        <ele>805.621</ele>
        <time>2021-09-27T15:47:01Z</time>
      </trkpt>
      <trkpt lat="45.01157" lon="3.90761">
        <ele>805.413</ele>
        <time>2021-09-27T15:47:41Z</time>
      </trkpt>
      <trkpt lat="45.01154" lon="3.90765">
        <ele>805.208</ele>
        <time>2021-09-27T15:48:21Z</time>
      </trkpt>
      <trkpt lat="45.0115" lon="3.9077">
        <ele>805.084</ele>
        <time>2021-09-27T15:49:01Z</time>
      </trkpt>
      <trkpt lat="45.01147" lon="3.90774">
        <ele>804.97</ele>
        <time>2021-09-27T15:49:41Z</time>
      </trkpt>
      <trkpt lat="45.01143" lon="3.90779">
        <ele>804.765</ele>
        <time>2021-09-27T15:50:21Z</time>
      </trkpt>
      <trkpt lat="45.0114" lon="3.90784">
        <ele>804.597</ele>
        <time>2021-09-27T15:51:01Z</time>
      </trkpt>
      <trkpt lat="45.01137" lon="3.90789">
        <ele>804.385</ele>
        <time>2021-09-27T15:51:41Z</time>
      </trkpt>
      <trkpt lat="45.01134" lon="3.90795">
        <ele>804.318</ele>
        <time>2021-09-27T15:52:21Z</time>
      </trkpt>
      <trkpt lat="45.01132" lon="3.90801">
        <ele>804.31</ele>
        <time>2021-09-27T15:53:01Z</time>
      </trkpt>
      <trkpt lat="45.01129" lon="3.90806">
        <ele>804.44</ele>
        <time>2021-09-27T15:53:41Z</time>
      </trkpt>
      <trkpt lat="45.01126" lon="3.90812">
        <ele>804.079</ele>
        <time>2021-09-27T15:54:21Z</time>
      </trkpt>
      <trkpt lat="45.01124" lon="3.90818">
        <ele>803.605</ele>
        <time>2021-09-27T15:55:01Z</time>
      </trkpt>
      <trkpt lat="45.01122" lon="3.90823">
        <ele>803.325</ele>
        <time>2021-09-27T15:55:41Z</time>
      </trkpt>
      <trkpt lat="45.01119" lon="3.90829">
        <ele>803.108</ele>
        <time>2021-09-27T15:56:21Z</time>
      </trkpt>
      <trkpt lat="45.01117" lon="3.90835">
        <ele>802.995</ele>
        <time>2021-09-27T15:57:01Z</time>
      </trkpt>
      <trkpt lat="45.01114" lon="3.90841">
        <ele>802.791</ele>
        <time>2021-09-27T15:57:41Z</time>
      </trkpt>
      <trkpt lat="45.01112" lon="3.90847">
        <ele>802.526</ele>
        <time>2021-09-27T15:58:21Z</time>
      </trkpt>
      <trkpt lat="45.01109" lon="3.90853">
        <ele>802.428</ele>
        <time>2021-09-27T15:59:01Z</time>
      </trkpt>
      <trkpt lat="45.01107" lon="3.90859">
        <ele>802.366</ele>
        <time>2021-09-27T15:59:41Z</time>
      </trkpt>
      <trkpt lat="45.01104" lon="3.90864">
        <ele>802.419</ele>
        <time>2021-09-27T16:00:21Z</time>
      </trkpt>
      <trkpt lat="45.01101" lon="3.9087">
        <ele>802.541</ele>
        <time>2021-09-27T16:01:01Z</time>
      </trkpt>
      <trkpt lat="45.01099" lon="3.90876">
        <ele>802.671</ele>
        <time>2021-09-27T16:01:41Z</time>
      </trkpt>
      <trkpt lat="45.01096" lon="3.90882">
        <ele>802.615</ele>
        <time>2021-09-27T16:02:21Z</time>
      </trkpt>
      <trkpt lat="45.01094" lon="3.90888">
        <ele>802.565</ele>
        <time>2021-09-27T16:03:01Z</time>
      </trkpt>
      <trkpt lat="45.01092" lon="3.90895">
        <ele>802.511</ele>
        <time>2021-09-27T16:03:41Z</time>
      </trkpt>
      <trkpt lat="45.01089" lon="3.90901">
        <ele>802.408</ele>
        <time>2021-09-27T16:04:21Z</time>
      </trkpt>
      <trkpt lat="45.01087" lon="3.90907">
        <ele>802.349</ele>
        <time>2021-09-27T16:05:01Z</time>
      </trkpt>
      <trkpt lat="45.01085" lon="3.90914">
        <ele>802.135</ele>
        <time>2021-09-27T16:05:41Z</time>
      </trkpt>
      <trkpt lat="45.01083" lon="3.9092">
        <ele>801.96</ele>
        <time>2021-09-27T16:06:21Z</time>
      </trkpt>
      <trkpt lat="45.01081" lon="3.90927">
        <ele>801.842</ele>
        <time>2021-09-27T16:07:01Z</time>
      </trkpt>
      <trkpt lat="45.01079" lon="3.90934">
        <ele>801.61</ele>
        <time>2021-09-27T16:07:41Z</time>
      </trkpt>
      <trkpt lat="45.01076" lon="3.9094">
        <ele>801.523</ele>
        <time>2021-09-27T16:08:21Z</time>
      </trkpt>
      <trkpt lat="45.01074" lon="3.90946">
        <ele>801.285</ele>
        <time>2021-09-27T16:09:01Z</time>
      </trkpt>
      <trkpt lat="45.01072" lon="3.90952">
        <ele>801.095</ele>
        <time>2021-09-27T16:09:41Z</time>
      </trkpt>
      <trkpt lat="45.0107" lon="3.90959">
        <ele>800.741</ele>
        <time>2021-09-27T16:10:21Z</time>
      </trkpt>
      <trkpt lat="45.01067" lon="3.90965">
        <ele>800.481</ele>
        <time>2021-09-27T16:11:01Z</time>
      </trkpt>
      <trkpt lat="45.01065" lon="3.90971">
        <ele>800.109</ele>
        <time>2021-09-27T16:11:41Z</time>
      </trkpt>
      <trkpt lat="45.01063" lon="3.90977">
        <ele>799.608</ele>
        <time>2021-09-27T16:12:21Z</time>
      </trkpt>
      <trkpt lat="45.0106" lon="3.90983">
        <ele>799.282</ele>
        <time>2021-09-27T16:13:01Z</time>
      </trkpt>
      <trkpt lat="45.01058" lon="3.90988">
        <ele>798.898</ele>
        <time>2021-09-27T16:13:41Z</time>
      </trkpt>
      <trkpt lat="45.01056" lon="3.90994">
        <ele>798.593</ele>
        <time>2021-09-27T16:14:21Z</time>
      </trkpt>
      <trkpt lat="45.01053" lon="3.90999">
        <ele>798.315</ele>
        <time>2021-09-27T16:15:01Z</time>
      </trkpt>
      <trkpt lat="45.01051" lon="3.91005">
        <ele>798.193</ele>
        <time>2021-09-27T16:15:41Z</time>
      </trkpt>
      <trkpt lat="45.01048" lon="3.9101">
        <ele>797.996</ele>
        <time>2021-09-27T16:16:21Z</time>
      </trkpt>
      <trkpt lat="45.01046" lon="3.91016">
        <ele>797.778</ele>
        <time>2021-09-27T16:17:01Z</time>
      </trkpt>
      <trkpt lat="45.01043" lon="3.91022">
        <ele>797.468</ele>
        <time>2021-09-27T16:17:41Z</time>
      </trkpt>
      <trkpt lat="45.01041" lon="3.91027">
        <ele>797.147</ele>
        <time>2021-09-27T16:18:21Z</time>
      </trkpt>
      <trkpt lat="45.01038" lon="3.91033">
        <ele>797.029</ele>
        <time>2021-09-27T16:19:01Z</time>
      </trkpt>
      <trkpt lat="45.01035" lon="3.91038">
        <ele>796.821</ele>
        <time>2021-09-27T16:19:41Z</time>
      </trkpt>
      <trkpt lat="45.01033" lon="3.91044">
        <ele>796.608</ele>
        <time>2021-09-27T16:20:21Z</time>
      </trkpt>
      <trkpt lat="45.0103" lon="3.91049">
        <ele>796.472</ele>
        <time>2021-09-27T16:21:01Z</time>
      </trkpt>
      <trkpt lat="45.01028" lon="3.91055">
        <ele>796.128</ele>
        <time>2021-09-27T16:21:41Z</time>
      </trkpt>
      <trkpt lat="45.01024" lon="3.9106">
        <ele>795.823</ele>
        <time>2021-09-27T16:22:21Z</time>
      </trkpt>
      <trkpt lat="45.01021" lon="3.91066">
        <ele>795.425</ele>
        <time>2021-09-27T16:23:01Z</time>
      </trkpt>
      <trkpt lat="45.01018" lon="3.91071">
        <ele>794.913</ele>
        <time>2021-09-27T16:23:41Z</time>
      </trkpt>
      <trkpt lat="45.01014" lon="3.91076">
        <ele>794.356</ele>
        <time>2021-09-27T16:24:21Z</time>
      </trkpt>
      <trkpt lat="45.01011" lon="3.91082">
        <ele>793.648</ele>
        <time>2021-09-27T16:25:01Z</time>
      </trkpt>
      <trkpt lat="45.01007" lon="3.91087">
        <ele>792.958</ele>
        <time>2021-09-27T16:25:41Z</time>
      </trkpt>
      <trkpt lat="45.01004" lon="3.91091">
        <ele>792.398</ele>
        <time>2021-09-27T16:26:21Z</time>
      </trkpt>
      <trkpt lat="45.01" lon="3.91096">
        <ele>791.615</ele>
        <time>2021-09-27T16:27:01Z</time>
      </trkpt>
      <trkpt lat="45.00997" lon="3.911">
        <ele>790.926</ele>
        <time>2021-09-27T16:27:41Z</time>
      </trkpt>
      <trkpt lat="45.00993" lon="3.91104">
        <ele>790.108</ele>
        <time>2021-09-27T16:28:21Z</time>
      </trkpt>
      <trkpt lat="45.0099" lon="3.91106">
        <ele>789.527</ele>
        <time>2021-09-27T16:29:01Z</time>
      </trkpt>
      <trkpt lat="45.00987" lon="3.91108">
        <ele>789.063</ele>
        <time>2021-09-27T16:29:41Z</time>
      </trkpt>
      <trkpt lat="45.00984" lon="3.91108">
        <ele>788.618</ele>
        <time>2021-09-27T16:30:21Z</time>
      </trkpt>
      <trkpt lat="45.0098" lon="3.91109">
        <ele>788.28</ele>
        <time>2021-09-27T16:31:01Z</time>
      </trkpt>
      <trkpt lat="45.00976" lon="3.91108">
        <ele>787.898</ele>
        <time>2021-09-27T16:31:41Z</time>
      </trkpt>
      <trkpt lat="45.00971" lon="3.91108">
        <ele>787.441</ele>
        <time>2021-09-27T16:32:21Z</time>
      </trkpt>
      <trkpt lat="45.00967" lon="3.91106">
        <ele>787.453</ele>
        <time>2021-09-27T16:33:01Z</time>
      </trkpt>
      <trkpt lat="45.00963" lon="3.91105">
        <ele>787.453</ele>
        <time>2021-09-27T16:33:41Z</time>
      </trkpt>
      <trkpt lat="45.00959" lon="3.91103">
        <ele>787.471</ele>
        <time>2021-09-27T16:34:21Z</time>
      </trkpt>
      <trkpt lat="45.00955" lon="3.91101">
        <ele>787.541</ele>
        <time>2021-09-27T16:35:01Z</time>
      </trkpt>
      <trkpt lat="45.0095" lon="3.91098">
        <ele>787.615</ele>
        <time>2021-09-27T16:35:41Z</time>
      </trkpt>
      <trkpt lat="45.00946" lon="3.91096">
        <ele>787.808</ele>
        <time>2021-09-27T16:36:21Z</time>
      </trkpt>
      <trkpt lat="45.00941" lon="3.91094">
        <ele>787.735</ele>
        <time>2021-09-27T16:37:01Z</time>
      </trkpt>
      <trkpt lat="45.00937" lon="3.91091">
        <ele>787.611</ele>
        <time>2021-09-27T16:37:41Z</time>
      </trkpt>
      <trkpt lat="45.00932" lon="3.91089">
        <ele>787.636</ele>
        <time>2021-09-27T16:38:21Z</time>
      </trkpt>
      <trkpt lat="45.00928" lon="3.91086">
        <ele>787.658</ele>
        <time>2021-09-27T16:39:01Z</time>
      </trkpt>
      <trkpt lat="45.00924" lon="3.91084">
        <ele>787.756</ele>
        <time>2021-09-27T16:39:41Z</time>
      </trkpt>
      <trkpt lat="45.00919" lon="3.91081">
        <ele>787.829</ele>
        <time>2021-09-27T16:40:21Z</time>
      </trkpt>
      <trkpt lat="45.00915" lon="3.91079">
        <ele>788.051</ele>
        <time>2021-09-27T16:41:01Z</time>
      </trkpt>
      <trkpt lat="45.00911" lon="3.91076">
        <ele>788.111</ele>
        <time>2021-09-27T16:41:41Z</time>
      </trkpt>
      <trkpt lat="45.00906" lon="3.91074">
        <ele>788.244</ele>
        <time>2021-09-27T16:42:21Z</time>
      </trkpt>
      <trkpt lat="45.00902" lon="3.91072">
        <ele>788.005</ele>
        <time>2021-09-27T16:43:01Z</time>
      </trkpt>
      <trkpt lat="45.00897" lon="3.91071">
        <ele>787.715</ele>
        <time>2021-09-27T16:43:41Z</time>
      </trkpt>
      <trkpt lat="45.00893" lon="3.91069">
        <ele>787.508</ele>
        <time>2021-09-27T16:44:21Z</time>
      </trkpt>
      <trkpt lat="45.00888" lon="3.91068">
        <ele>787.332</ele>
        <time>2021-09-27T16:45:01Z</time>
      </trkpt>
      <trkpt lat="45.00884" lon="3.91066">
        <ele>786.938</ele>
        <time>2021-09-27T16:45:41Z</time>
      </trkpt>
      <trkpt lat="45.00879" lon="3.91065">
        <ele>786.373</ele>
        <time>2021-09-27T16:46:21Z</time>
      </trkpt>
      <trkpt lat="45.00874" lon="3.91065">
        <ele>785.865</ele>
        <time>2021-09-27T16:47:01Z</time>
      </trkpt>
      <trkpt lat="45.0087" lon="3.91064">
        <ele>785.373</ele>
        <time>2021-09-27T16:47:41Z</time>
      </trkpt>
      <trkpt lat="45.00865" lon="3.91063">
        <ele>784.876</ele>
        <time>2021-09-27T16:48:21Z</time>
      </trkpt>
      <trkpt lat="45.00861" lon="3.91062">
        <ele>784.318</ele>
        <time>2021-09-27T16:49:01Z</time>
      </trkpt>
      <trkpt lat="45.00856" lon="3.91062">
        <ele>783.878</ele>
        <time>2021-09-27T16:49:41Z</time>
      </trkpt>
      <trkpt lat="45.0085" lon="3.91062">
        <ele>783.311</ele>
        <time>2021-09-27T16:50:21Z</time>
      </trkpt>
      <trkpt lat="45.00845" lon="3.91062">
        <ele>782.821</ele>
        <time>2021-09-27T16:51:01Z</time>
      </trkpt>
      <trkpt lat="45.0084" lon="3.91061">
        <ele>782.303</ele>
        <time>2021-09-27T16:51:41Z</time>
      </trkpt>
      <trkpt lat="45.00835" lon="3.91061">
        <ele>781.808</ele>
        <time>2021-09-27T16:52:21Z</time>
      </trkpt>
      <trkpt lat="45.00831" lon="3.91061">
        <ele>781.469</ele>
        <time>2021-09-27T16:53:01Z</time>
      </trkpt>
      <trkpt lat="45.00826" lon="3.91061">
        <ele>780.855</ele>
        <time>2021-09-27T16:53:41Z</time>
      </trkpt>
      <trkpt lat="45.00822" lon="3.91061">
        <ele>780.43</ele>
        <time>2021-09-27T16:54:21Z</time>
      </trkpt>
      <trkpt lat="45.00818" lon="3.91061">
        <ele>779.982</ele>
        <time>2021-09-27T16:55:01Z</time>
      </trkpt>
      <trkpt lat="45.00813" lon="3.91061">
        <ele>779.41</ele>
        <time>2021-09-27T16:55:41Z</time>
      </trkpt>
      <trkpt lat="45.00809" lon="3.91061">
        <ele>778.913</ele>
        <time>2021-09-27T16:56:21Z</time>
      </trkpt>
      <trkpt lat="45.00804" lon="3.91061">
        <ele>778.095</ele>
        <time>2021-09-27T16:57:01Z</time>
      </trkpt>
      <trkpt lat="45.00799" lon="3.91062">
        <ele>776.755</ele>
        <time>2021-09-27T16:57:41Z</time>
      </trkpt>
      <trkpt lat="45.00794" lon="3.91062">
        <ele>775.494</ele>
        <time>2021-09-27T16:58:21Z</time>
      </trkpt>
      <trkpt lat="45.00789" lon="3.91063">
        <ele>774.157</ele>
        <time>2021-09-27T16:59:01Z</time>
      </trkpt>
      <trkpt lat="45.00784" lon="3.91063">
        <ele>772.922</ele>
        <time>2021-09-27T16:59:41Z</time>
      </trkpt>
      <trkpt lat="45.00779" lon="3.91064">
        <ele>771.708</ele>
        <time>2021-09-27T17:00:21Z</time>
      </trkpt>
      <trkpt lat="45.00775" lon="3.91064">
        <ele>770.127</ele>
        <time>2021-09-27T17:01:01Z</time>
      </trkpt>
      <trkpt lat="45.0077" lon="3.91065">
        <ele>768.313</ele>
        <time>2021-09-27T17:01:41Z</time>
      </trkpt>
      <trkpt lat="45.00765" lon="3.91065">
        <ele>766.518</ele>
        <time>2021-09-27T17:02:21Z</time>
      </trkpt>
      <trkpt lat="45.00762" lon="3.91066">
        <ele>765.13</ele>
        <time>2021-09-27T17:03:01Z</time>
      </trkpt>
      <trkpt lat="45.00758" lon="3.91067">
        <ele>763.728</ele>
        <time>2021-09-27T17:03:41Z</time>
      </trkpt>
      <trkpt lat="45.00757" lon="3.91067">
        <ele>763.381</ele>
        <time>2021-09-27T17:04:21Z</time>
      </trkpt>
      <trkpt lat="45.00752" lon="3.91068">
        <ele>761.583</ele>
        <time>2021-09-27T17:05:01Z</time>
      </trkpt>
      <trkpt lat="45.00748" lon="3.91069">
        <ele>760.283</ele>
        <time>2021-09-27T17:05:41Z</time>
      </trkpt>
      <trkpt lat="45.00743" lon="3.91071">
        <ele>759.315</ele>
        <time>2021-09-27T17:06:21Z</time>
      </trkpt>
      <trkpt lat="45.00739" lon="3.91072">
        <ele>758.565</ele>
        <time>2021-09-27T17:07:01Z</time>
      </trkpt>
      <trkpt lat="45.00734" lon="3.91073">
        <ele>757.811</ele>
        <time>2021-09-27T17:07:41Z</time>
      </trkpt>
      <trkpt lat="45.0073" lon="3.91074">
        <ele>757.008</ele>
        <time>2021-09-27T17:08:21Z</time>
      </trkpt>
      <trkpt lat="45.00725" lon="3.91077">
        <ele>756.019</ele>
        <time>2021-09-27T17:09:01Z</time>
      </trkpt>
      <trkpt lat="45.00721" lon="3.9108">
        <ele>755.595</ele>
        <time>2021-09-27T17:09:41Z</time>
      </trkpt>
      <trkpt lat="45.00717" lon="3.91084">
        <ele>755.35</ele>
        <time>2021-09-27T17:10:21Z</time>
      </trkpt>
      <trkpt lat="45.00713" lon="3.91088">
        <ele>755.072</ele>
        <time>2021-09-27T17:11:01Z</time>
      </trkpt>
      <trkpt lat="45.00709" lon="3.91092">
        <ele>754.84</ele>
        <time>2021-09-27T17:11:41Z</time>
      </trkpt>
      <trkpt lat="45.00705" lon="3.91096">
        <ele>754.513</ele>
        <time>2021-09-27T17:12:21Z</time>
      </trkpt>
      <trkpt lat="45.00701" lon="3.911">
        <ele>754.295</ele>
        <time>2021-09-27T17:13:01Z</time>
      </trkpt>
      <trkpt lat="45.00696" lon="3.91104">
        <ele>753.945</ele>
        <time>2021-09-27T17:13:41Z</time>
      </trkpt>
      <trkpt lat="45.00692" lon="3.91108">
        <ele>753.721</ele>
        <time>2021-09-27T17:14:21Z</time>
      </trkpt>
      <trkpt lat="45.00688" lon="3.91112">
        <ele>753.541</ele>
        <time>2021-09-27T17:15:01Z</time>
      </trkpt>
      <trkpt lat="45.00684" lon="3.91116">
        <ele>753.505</ele>
        <time>2021-09-27T17:15:41Z</time>
      </trkpt>
      <trkpt lat="45.0068" lon="3.91121">
        <ele>753.508</ele>
        <time>2021-09-27T17:16:21Z</time>
      </trkpt>
      <trkpt lat="45.00676" lon="3.91125">
        <ele>753.56</ele>
        <time>2021-09-27T17:17:01Z</time>
      </trkpt>
      <trkpt lat="45.00672" lon="3.91129">
        <ele>753.566</ele>
        <time>2021-09-27T17:17:41Z</time>
      </trkpt>
      <trkpt lat="45.00668" lon="3.91133">
        <ele>753.431</ele>
        <time>2021-09-27T17:18:21Z</time>
      </trkpt>
      <trkpt lat="45.00664" lon="3.91138">
        <ele>753.133</ele>
        <time>2021-09-27T17:19:01Z</time>
      </trkpt>
      <trkpt lat="45.0066" lon="3.91141">
        <ele>752.741</ele>
        <time>2021-09-27T17:19:41Z</time>
      </trkpt>
      <trkpt lat="45.00656" lon="3.91145">
        <ele>752.114</ele>
        <time>2021-09-27T17:20:21Z</time>
      </trkpt>
      <trkpt lat="45.00652" lon="3.91149">
        <ele>751.696</ele>
        <time>2021-09-27T17:21:01Z</time>
      </trkpt>
      <trkpt lat="45.00648" lon="3.91152">
        <ele>751.166</ele>
        <time>2021-09-27T17:21:41Z</time>
      </trkpt>
      <trkpt lat="45.00644" lon="3.91156">
        <ele>750.588</ele>
        <time>2021-09-27T17:22:21Z</time>
      </trkpt>
      <trkpt lat="45.0064" lon="3.9116">
        <ele>750.024</ele>
        <time>2021-09-27T17:23:01Z</time>
      </trkpt>
      <trkpt lat="45.00636" lon="3.91164">
        <ele>749.326</ele>
        <time>2021-09-27T17:23:41Z</time>
      </trkpt>
      <trkpt lat="45.00632" lon="3.91167">
        <ele>748.608</ele>
        <time>2021-09-27T17:24:21Z</time>
      </trkpt>
      <trkpt lat="45.00627" lon="3.91171">
        <ele>747.816</ele>
        <time>2021-09-27T17:25:01Z</time>
      </trkpt>
      <trkpt lat="45.00623" lon="3.91174">
        <ele>746.942</ele>
        <time>2021-09-27T17:25:41Z</time>
      </trkpt>
      <trkpt lat="45.00619" lon="3.91178">
        <ele>746.197</ele>
        <time>2021-09-27T17:26:21Z</time>
      </trkpt>
      <trkpt lat="45.00615" lon="3.91182">
        <ele>745.459</ele>
        <time>2021-09-27T17:27:01Z</time>
      </trkpt>
      <trkpt lat="45.00613" lon="3.91185">
        <ele>744.787</ele>
        <time>2021-09-27T17:27:41Z</time>
      </trkpt>
      <trkpt lat="45.0061" lon="3.91188">
        <ele>744.19</ele>
        <time>2021-09-27T17:28:21Z</time>
      </trkpt>
      <trkpt lat="45.00609" lon="3.91195">
        <ele>742.932</ele>
        <time>2021-09-27T17:29:01Z</time>
      </trkpt>
      <trkpt lat="45.00609" lon="3.912">
        <ele>742.332</ele>
        <time>2021-09-27T17:29:41Z</time>
      </trkpt>
      <trkpt lat="45.0061" lon="3.91206">
        <ele>741.766</ele>
        <time>2021-09-27T17:30:21Z</time>
      </trkpt>
      <trkpt lat="45.0061" lon="3.91213">
        <ele>741.029</ele>
        <time>2021-09-27T17:31:01Z</time>
      </trkpt>
      <trkpt lat="45.0061" lon="3.9122">
        <ele>740.221</ele>
        <time>2021-09-27T17:31:41Z</time>
      </trkpt>
      <trkpt lat="45.00607" lon="3.91226">
        <ele>739.408</ele>
        <time>2021-09-27T17:32:21Z</time>
      </trkpt>
      <trkpt lat="45.00604" lon="3.91229">
        <ele>738.784</ele>
        <time>2021-09-27T17:33:01Z</time>
      </trkpt>
      <trkpt lat="45.00601" lon="3.91233">
        <ele>738.12</ele>
        <time>2021-09-27T17:33:41Z</time>
      </trkpt>
      <trkpt lat="45.00596" lon="3.91234">
        <ele>737.835</ele>
        <time>2021-09-27T17:34:21Z</time>
      </trkpt>
      <trkpt lat="45.00592" lon="3.91235">
        <ele>737.497</ele>
        <time>2021-09-27T17:35:01Z</time>
      </trkpt>
      <trkpt lat="45.00587" lon="3.91237">
        <ele>737.015</ele>
        <time>2021-09-27T17:35:41Z</time>
      </trkpt>
      <trkpt lat="45.00583" lon="3.91237">
        <ele>736.748</ele>
        <time>2021-09-27T17:36:21Z</time>
      </trkpt>
      <trkpt lat="45.00578" lon="3.91238">
        <ele>735.92</ele>
        <time>2021-09-27T17:37:01Z</time>
      </trkpt>
      <trkpt lat="45.00573" lon="3.91239">
        <ele>735.06</ele>
        <time>2021-09-27T17:37:41Z</time>
      </trkpt>
      <trkpt lat="45.00568" lon="3.91238">
        <ele>734.373</ele>
        <time>2021-09-27T17:38:21Z</time>
      </trkpt>
      <trkpt lat="45.00563" lon="3.91237">
        <ele>733.685</ele>
        <time>2021-09-27T17:39:01Z</time>
      </trkpt>
      <trkpt lat="45.00558" lon="3.91236">
        <ele>732.913</ele>
        <time>2021-09-27T17:39:41Z</time>
      </trkpt>
      <trkpt lat="45.00553" lon="3.91238">
        <ele>732.008</ele>
        <time>2021-09-27T17:40:21Z</time>
      </trkpt>
      <trkpt lat="45.00548" lon="3.91239">
        <ele>731.295</ele>
        <time>2021-09-27T17:41:01Z</time>
      </trkpt>
      <trkpt lat="45.00544" lon="3.91242">
        <ele>730.421</ele>
        <time>2021-09-27T17:41:41Z</time>
      </trkpt>
      <trkpt lat="45.00541" lon="3.91244">
        <ele>729.916</ele>
        <time>2021-09-27T17:42:21Z</time>
      </trkpt>
      <trkpt lat="45.00538" lon="3.91245">
        <ele>729.318</ele>
        <time>2021-09-27T17:43:01Z</time>
      </trkpt>
      <trkpt lat="45.00534" lon="3.91247">
        <ele>728.876</ele>
        <time>2021-09-27T17:43:41Z</time>
      </trkpt>
      <trkpt lat="45.00532" lon="3.91249">
        <ele>728.539</ele>
        <time>2021-09-27T17:44:21Z</time>
      </trkpt>
      <trkpt lat="45.00528" lon="3.91251">
        <ele>728.021</ele>
        <time>2021-09-27T17:45:01Z</time>
      </trkpt>
      <trkpt lat="45.00525" lon="3.91253">
        <ele>727.541</ele>
        <time>2021-09-27T17:45:41Z</time>
      </trkpt>
      <trkpt lat="45.0052" lon="3.91256">
        <ele>726.991</ele>
        <time>2021-09-27T17:46:21Z</time>
      </trkpt>
      <trkpt lat="45.00516" lon="3.9126">
        <ele>726.381</ele>
        <time>2021-09-27T17:47:01Z</time>
      </trkpt>
      <trkpt lat="45.00512" lon="3.91262">
        <ele>725.819</ele>
        <time>2021-09-27T17:47:41Z</time>
      </trkpt>
      <trkpt lat="45.00508" lon="3.91266">
        <ele>725.308</ele>
        <time>2021-09-27T17:48:21Z</time>
      </trkpt>
      <trkpt lat="45.00504" lon="3.9127">
        <ele>724.727</ele>
        <time>2021-09-27T17:49:01Z</time>
      </trkpt>
      <trkpt lat="45.00499" lon="3.91274">
        <ele>724.353</ele>
        <time>2021-09-27T17:49:41Z</time>
      </trkpt>
      <trkpt lat="45.00495" lon="3.91278">
        <ele>723.858</ele>
        <time>2021-09-27T17:50:21Z</time>
      </trkpt>
      <trkpt lat="45.00491" lon="3.91282">
        <ele>723.55</ele>
        <time>2021-09-27T17:51:01Z</time>
      </trkpt>
      <trkpt lat="45.00487" lon="3.91286">
        <ele>723.228</ele>
        <time>2021-09-27T17:51:41Z</time>
      </trkpt>
      <trkpt lat="45.00484" lon="3.91291">
        <ele>723.021</ele>
        <time>2021-09-27T17:52:21Z</time>
      </trkpt>
      <trkpt lat="45.0048" lon="3.91295">
        <ele>722.723</ele>
        <time>2021-09-27T17:53:01Z</time>
      </trkpt>
      <trkpt lat="45.00477" lon="3.913">
        <ele>722.473</ele>
        <time>2021-09-27T17:53:41Z</time>
      </trkpt>
      <trkpt lat="45.00473" lon="3.91303">
        <ele>722.125</ele>
        <time>2021-09-27T17:54:21Z</time>
      </trkpt>
      <trkpt lat="45.0047" lon="3.91306">
        <ele>721.926</ele>
        <time>2021-09-27T17:55:01Z</time>
      </trkpt>
      <trkpt lat="45.00467" lon="3.91307">
        <ele>721.808</ele>
        <time>2021-09-27T17:55:41Z</time>
      </trkpt>
      <trkpt lat="45.00464" lon="3.91307">
        <ele>721.708</ele>
        <time>2021-09-27T17:56:21Z</time>
      </trkpt>
      <trkpt lat="45.00463" lon="3.91307">
        <ele>721.69</ele>
        <time>2021-09-27T17:57:01Z</time>
      </trkpt>
      <trkpt lat="45.0046" lon="3.91305">
        <ele>721.696</ele>
        <time>2021-09-27T17:57:41Z</time>
      </trkpt>
      <trkpt lat="45.0046" lon="3.9131">
        <ele>721.441</ele>
        <time>2021-09-27T17:58:21Z</time>
      </trkpt>
      <trkpt lat="45.0046" lon="3.91314">
        <ele>721.323</ele>
        <time>2021-09-27T17:59:01Z</time>
      </trkpt>
      <trkpt lat="45.00457" lon="3.91318">
        <ele>721.081</ele>
        <time>2021-09-27T17:59:41Z</time>
      </trkpt>
      <trkpt lat="45.00454" lon="3.91322">
        <ele>720.756</ele>
        <time>2021-09-27T18:01:01Z</time>
      </trkpt>
      <trkpt lat="45.0045" lon="3.91327">
        <ele>720.516</ele>
        <time>2021-09-27T18:01:41Z</time>
      </trkpt>
      <trkpt lat="45.00447" lon="3.91331">
        <ele>720.261</ele>
        <time>2021-09-27T18:02:21Z</time>
      </trkpt>
      <trkpt lat="45.00447" lon="3.9133">
        <ele>720.221</ele>
        <time>2021-09-27T18:03:01Z</time>
      </trkpt>
      <trkpt lat="45.00446" lon="3.9133">
        <ele>720.213</ele>
        <time>2021-09-27T18:03:41Z</time>
      </trkpt>
      <trkpt lat="45.00446" lon="3.91329">
        <ele>720.208</ele>
        <time>2021-09-27T18:04:21Z</time>
      </trkpt>
      <trkpt lat="45.00445" lon="3.91328">
        <ele>720.24</ele>
        <time>2021-09-27T18:05:41Z</time>
      </trkpt>
      <trkpt lat="45.00445" lon="3.91327">
        <ele>720.225</ele>
        <time>2021-09-27T18:07:41Z</time>
      </trkpt>
      <trkpt lat="45.00444" lon="3.91326">
        <ele>720.258</ele>
        <time>2021-09-27T18:08:21Z</time>
      </trkpt>
      <trkpt lat="45.00443" lon="3.91326">
        <ele>720.25</ele>
        <time>2021-09-27T18:09:41Z</time>
      </trkpt>
      <trkpt lat="45.00443" lon="3.91327">
        <ele>720.132</ele>
        <time>2021-09-27T18:10:21Z</time>
      </trkpt>
      <trkpt lat="45.00442" lon="3.91327">
        <ele>720.192</ele>
        <time>2021-09-27T18:11:01Z</time>
      </trkpt>
      <trkpt lat="45.00441" lon="3.91328">
        <ele>720.008</ele>
        <time>2021-09-27T18:12:21Z</time>
      </trkpt>
      <trkpt lat="45.0044" lon="3.91328">
        <ele>719.917</ele>
        <time>2021-09-27T18:13:41Z</time>
      </trkpt>
      <trkpt lat="45.0044" lon="3.91329">
        <ele>719.812</ele>
        <time>2021-09-27T18:14:21Z</time>
      </trkpt>
      <trkpt lat="45.00439" lon="3.91329">
        <ele>719.834</ele>
        <time>2021-09-27T18:15:01Z</time>
      </trkpt>
      <trkpt lat="45.00439" lon="3.9133">
        <ele>719.792</ele>
        <time>2021-09-27T18:15:41Z</time>
      </trkpt>
      <trkpt lat="45.00438" lon="3.9133">
        <ele>719.745</ele>
        <time>2021-09-27T18:16:21Z</time>
      </trkpt>
      <trkpt lat="45.00437" lon="3.91331">
        <ele>719.637</ele>
        <time>2021-09-27T18:17:41Z</time>
      </trkpt>
      <trkpt lat="45.00436" lon="3.91331">
        <ele>719.521</ele>
        <time>2021-09-27T18:19:01Z</time>
      </trkpt>
      <trkpt lat="45.00436" lon="3.91332">
        <ele>719.403</ele>
        <time>2021-09-27T18:19:41Z</time>
      </trkpt>
      <trkpt lat="45.00435" lon="3.91332">
        <ele>719.408</ele>
        <time>2021-09-27T18:20:21Z</time>
      </trkpt>
      <trkpt lat="45.00434" lon="3.91332">
        <ele>719.399</ele>
        <time>2021-09-27T18:21:01Z</time>
      </trkpt>
      <trkpt lat="45.00434" lon="3.91333">
        <ele>719.355</ele>
        <time>2021-09-27T18:21:41Z</time>
      </trkpt>
      <trkpt lat="45.00433" lon="3.91333">
        <ele>719.28</ele>
        <time>2021-09-27T18:22:21Z</time>
      </trkpt>
      <trkpt lat="45.00432" lon="3.91334">
        <ele>719.15</ele>
        <time>2021-09-27T18:23:41Z</time>
      </trkpt>
      <trkpt lat="45.00431" lon="3.91334">
        <ele>719.015</ele>
        <time>2021-09-27T18:25:01Z</time>
      </trkpt>
      <trkpt lat="45.0043" lon="3.91335">
        <ele>718.965</ele>
        <time>2021-09-27T18:26:21Z</time>
      </trkpt>
      <trkpt lat="45.00429" lon="3.91335">
        <ele>718.814</ele>
        <time>2021-09-27T18:27:41Z</time>
      </trkpt>
      <trkpt lat="45.00428" lon="3.91335">
        <ele>718.794</ele>
        <time>2021-09-27T18:29:01Z</time>
      </trkpt>
      <trkpt lat="45.00428" lon="3.91336">
        <ele>718.79</ele>
        <time>2021-09-27T18:29:41Z</time>
      </trkpt>
      <trkpt lat="45.00427" lon="3.91336">
        <ele>718.745</ele>
        <time>2021-09-27T18:30:21Z</time>
      </trkpt>
      <trkpt lat="45.00426" lon="3.91336">
        <ele>718.647</ele>
        <time>2021-09-27T18:31:01Z</time>
      </trkpt>
      <trkpt lat="45.00425" lon="3.91336">
        <ele>718.598</ele>
        <time>2021-09-27T18:32:21Z</time>
      </trkpt>
      <trkpt lat="45.00425" lon="3.91335">
        <ele>718.57</ele>
        <time>2021-09-27T18:33:01Z</time>
      </trkpt>
      <trkpt lat="45.00424" lon="3.91335">
        <ele>718.58</ele>
        <time>2021-09-27T18:33:41Z</time>
      </trkpt>
      <trkpt lat="45.00423" lon="3.91335">
        <ele>718.459</ele>
        <time>2021-09-27T18:35:01Z</time>
      </trkpt>
      <trkpt lat="45.00422" lon="3.91334">
        <ele>718.408</ele>
        <time>2021-09-27T18:36:21Z</time>
      </trkpt>
      <trkpt lat="45.00421" lon="3.91334">
        <ele>718.399</ele>
        <time>2021-09-27T18:37:41Z</time>
      </trkpt>
      <trkpt lat="45.00418" lon="3.91337">
        <ele>718.034</ele>
        <time>2021-09-27T18:38:21Z</time>
      </trkpt>
      <trkpt lat="45.00415" lon="3.9134">
        <ele>717.526</ele>
        <time>2021-09-27T18:39:01Z</time>
      </trkpt>
      <trkpt lat="45.00411" lon="3.91338">
        <ele>717.274</ele>
        <time>2021-09-27T18:39:41Z</time>
      </trkpt>
      <trkpt lat="45.00408" lon="3.91336">
        <ele>717.017</ele>
        <time>2021-09-27T18:40:21Z</time>
      </trkpt>
      <trkpt lat="45.00404" lon="3.91333">
        <ele>716.629</ele>
        <time>2021-09-27T18:41:01Z</time>
      </trkpt>
      <trkpt lat="45.00399" lon="3.91331">
        <ele>716.279</ele>
        <time>2021-09-27T18:41:41Z</time>
      </trkpt>
      <trkpt lat="45.00394" lon="3.91328">
        <ele>715.952</ele>
        <time>2021-09-27T18:42:21Z</time>
      </trkpt>
      <trkpt lat="45.00389" lon="3.91326">
        <ele>715.653</ele>
        <time>2021-09-27T18:43:01Z</time>
      </trkpt>
      <trkpt lat="45.00385" lon="3.91323">
        <ele>715.208</ele>
        <time>2021-09-27T18:43:41Z</time>
      </trkpt>
      <trkpt lat="45.0038" lon="3.9132">
        <ele>714.808</ele>
        <time>2021-09-27T18:44:21Z</time>
      </trkpt>
      <trkpt lat="45.00376" lon="3.91318">
        <ele>714.453</ele>
        <time>2021-09-27T18:45:01Z</time>
      </trkpt>
      <trkpt lat="45.00371" lon="3.91316">
        <ele>714.039</ele>
        <time>2021-09-27T18:45:41Z</time>
      </trkpt>
      <trkpt lat="45.00367" lon="3.91313">
        <ele>713.574</ele>
        <time>2021-09-27T18:46:21Z</time>
      </trkpt>
      <trkpt lat="45.00363" lon="3.91311">
        <ele>713.026</ele>
        <time>2021-09-27T18:47:01Z</time>
      </trkpt>
      <trkpt lat="45.00358" lon="3.91308">
        <ele>712.464</ele>
        <time>2021-09-27T18:47:41Z</time>
      </trkpt>
      <trkpt lat="45.00354" lon="3.91306">
        <ele>711.757</ele>
        <time>2021-09-27T18:48:21Z</time>
      </trkpt>
      <trkpt lat="45.00349" lon="3.91304">
        <ele>711.069</ele>
        <time>2021-09-27T18:49:01Z</time>
      </trkpt>
      <trkpt lat="45.00345" lon="3.91302">
        <ele>710.369</ele>
        <time>2021-09-27T18:49:41Z</time>
      </trkpt>
      <trkpt lat="45.00341" lon="3.91301">
        <ele>709.648</ele>
        <time>2021-09-27T18:50:21Z</time>
      </trkpt>
      <trkpt lat="45.00338" lon="3.913">
        <ele>708.961</ele>
        <time>2021-09-27T18:51:01Z</time>
      </trkpt>
      <trkpt lat="45.00334" lon="3.91299">
        <ele>708.317</ele>
        <time>2021-09-27T18:51:41Z</time>
      </trkpt>
      <trkpt lat="45.0033" lon="3.91298">
        <ele>707.808</ele>
        <time>2021-09-27T18:52:21Z</time>
      </trkpt>
      <trkpt lat="45.00325" lon="3.91297">
        <ele>707.272</ele>
        <time>2021-09-27T18:53:01Z</time>
      </trkpt>
      <trkpt lat="45.0032" lon="3.91296">
        <ele>706.618</ele>
        <time>2021-09-27T18:53:41Z</time>
      </trkpt>
      <trkpt lat="45.00317" lon="3.91297">
        <ele>706.253</ele>
        <time>2021-09-27T18:54:21Z</time>
      </trkpt>
      <trkpt lat="45.00315" lon="3.91298">
        <ele>705.885</ele>
        <time>2021-09-27T18:55:01Z</time>
      </trkpt>
      <trkpt lat="45.00312" lon="3.913">
        <ele>705.433</ele>
        <time>2021-09-27T18:55:41Z</time>
      </trkpt>
      <trkpt lat="45.0031" lon="3.91301">
        <ele>704.966</ele>
        <time>2021-09-27T18:56:21Z</time>
      </trkpt>
      <trkpt lat="45.00308" lon="3.91307">
        <ele>704.398</ele>
        <time>2021-09-27T18:57:01Z</time>
      </trkpt>
      <trkpt lat="45.00306" lon="3.91312">
        <ele>703.718</ele>
        <time>2021-09-27T18:57:41Z</time>
      </trkpt>
      <trkpt lat="45.00306" lon="3.91317">
        <ele>703.342</ele>
        <time>2021-09-27T18:58:21Z</time>
      </trkpt>
      <trkpt lat="45.00306" lon="3.91321">
        <ele>702.922</ele>
        <time>2021-09-27T18:59:01Z</time>
      </trkpt>
      <trkpt lat="45.00306" lon="3.91327">
        <ele>702.614</ele>
        <time>2021-09-27T18:59:41Z</time>
      </trkpt>
      <trkpt lat="45.00307" lon="3.91333">
        <ele>702.308</ele>
        <time>2021-09-27T19:00:21Z</time>
      </trkpt>
      <trkpt lat="45.00307" lon="3.91339">
        <ele>702.182</ele>
        <time>2021-09-27T19:01:01Z</time>
      </trkpt>
      <trkpt lat="45.00308" lon="3.91345">
        <ele>702.038</ele>
        <time>2021-09-27T19:01:41Z</time>
      </trkpt>
      <trkpt lat="45.00308" lon="3.91351">
        <ele>701.933</ele>
        <time>2021-09-27T19:02:21Z</time>
      </trkpt>
      <trkpt lat="45.00309" lon="3.91357">
        <ele>701.995</ele>
        <time>2021-09-27T19:03:01Z</time>
      </trkpt>
      <trkpt lat="45.0031" lon="3.91364">
        <ele>701.733</ele>
        <time>2021-09-27T19:03:41Z</time>
      </trkpt>
      <trkpt lat="45.00311" lon="3.9137">
        <ele>701.486</ele>
        <time>2021-09-27T19:04:21Z</time>
      </trkpt>
      <trkpt lat="45.00311" lon="3.91376">
        <ele>701.198</ele>
        <time>2021-09-27T19:05:01Z</time>
      </trkpt>
      <trkpt lat="45.00312" lon="3.91383">
        <ele>700.988</ele>
        <time>2021-09-27T19:05:41Z</time>
      </trkpt>
      <trkpt lat="45.00313" lon="3.91388">
        <ele>700.672</ele>
        <time>2021-09-27T19:06:21Z</time>
      </trkpt>
      <trkpt lat="45.00313" lon="3.91394">
        <ele>700.213</ele>
        <time>2021-09-27T19:07:01Z</time>
      </trkpt>
      <trkpt lat="45.00314" lon="3.914">
        <ele>699.714</ele>
        <time>2021-09-27T19:07:41Z</time>
      </trkpt>
      <trkpt lat="45.00314" lon="3.91406">
        <ele>699.308</ele>
        <time>2021-09-27T19:08:21Z</time>
      </trkpt>
      <trkpt lat="45.00314" lon="3.91411">
        <ele>698.735</ele>
        <time>2021-09-27T19:09:01Z</time>
      </trkpt>
      <trkpt lat="45.00313" lon="3.91416">
        <ele>698.241</ele>
        <time>2021-09-27T19:09:41Z</time>
      </trkpt>
      <trkpt lat="45.00311" lon="3.91422">
        <ele>697.356</ele>
        <time>2021-09-27T19:10:21Z</time>
      </trkpt>
      <trkpt lat="45.00308" lon="3.91427">
        <ele>696.698</ele>
        <time>2021-09-27T19:11:01Z</time>
      </trkpt>
      <trkpt lat="45.00305" lon="3.91431">
        <ele>695.836</ele>
        <time>2021-09-27T19:11:41Z</time>
      </trkpt>
      <trkpt lat="45.00301" lon="3.91435">
        <ele>694.899</ele>
        <time>2021-09-27T19:12:21Z</time>
      </trkpt>
      <trkpt lat="45.00298" lon="3.91439">
        <ele>693.741</ele>
        <time>2021-09-27T19:13:01Z</time>
      </trkpt>
      <trkpt lat="45.00294" lon="3.91442">
        <ele>692.751</ele>
        <time>2021-09-27T19:13:41Z</time>
      </trkpt>
      <trkpt lat="45.0029" lon="3.91445">
        <ele>691.671</ele>
        <time>2021-09-27T19:14:21Z</time>
      </trkpt>
      <trkpt lat="45.00286" lon="3.91448">
        <ele>690.741</ele>
        <time>2021-09-27T19:15:01Z</time>
      </trkpt>
      <trkpt lat="45.00282" lon="3.91452">
        <ele>689.615</ele>
        <time>2021-09-27T19:15:41Z</time>
      </trkpt>
      <trkpt lat="45.00278" lon="3.91455">
        <ele>688.608</ele>
        <time>2021-09-27T19:16:21Z</time>
      </trkpt>
      <trkpt lat="45.00273" lon="3.91459">
        <ele>688.065</ele>
        <time>2021-09-27T19:17:01Z</time>
      </trkpt>
      <trkpt lat="45.00269" lon="3.91463">
        <ele>687.481</ele>
        <time>2021-09-27T19:17:41Z</time>
      </trkpt>
      <trkpt lat="45.00265" lon="3.91466">
        <ele>686.856</ele>
        <time>2021-09-27T19:18:21Z</time>
      </trkpt>
      <trkpt lat="45.0026" lon="3.91469">
        <ele>686.278</ele>
        <time>2021-09-27T19:19:01Z</time>
      </trkpt>
      <trkpt lat="45.00256" lon="3.91473">
        <ele>685.686</ele>
        <time>2021-09-27T19:19:41Z</time>
      </trkpt>
      <trkpt lat="45.00251" lon="3.91476">
        <ele>685.099</ele>
        <time>2021-09-27T19:20:21Z</time>
      </trkpt>
      <trkpt lat="45.00247" lon="3.91479">
        <ele>684.671</ele>
        <time>2021-09-27T19:21:01Z</time>
      </trkpt>
      <trkpt lat="45.00242" lon="3.91482">
        <ele>684.491</ele>
        <time>2021-09-27T19:21:41Z</time>
      </trkpt>
      <trkpt lat="45.00238" lon="3.91485">
        <ele>684.118</ele>
        <time>2021-09-27T19:22:21Z</time>
      </trkpt>
      <trkpt lat="45.00234" lon="3.91487">
        <ele>683.998</ele>
        <time>2021-09-27T19:23:01Z</time>
      </trkpt>
      <trkpt lat="45.0023" lon="3.9149">
        <ele>683.717</ele>
        <time>2021-09-27T19:23:41Z</time>
      </trkpt>
      <trkpt lat="45.00226" lon="3.91492">
        <ele>683.408</ele>
        <time>2021-09-27T19:24:21Z</time>
      </trkpt>
      <trkpt lat="45.00222" lon="3.91494">
        <ele>683.289</ele>
        <time>2021-09-27T19:25:01Z</time>
      </trkpt>
      <trkpt lat="45.00218" lon="3.91497">
        <ele>683.195</ele>
        <time>2021-09-27T19:25:41Z</time>
      </trkpt>
      <trkpt lat="45.00214" lon="3.915">
        <ele>683.06</ele>
        <time>2021-09-27T19:26:21Z</time>
      </trkpt>
      <trkpt lat="45.0021" lon="3.91503">
        <ele>682.972</ele>
        <time>2021-09-27T19:27:01Z</time>
      </trkpt>
      <trkpt lat="45.00206" lon="3.91506">
        <ele>682.81</ele>
        <time>2021-09-27T19:27:41Z</time>
      </trkpt>
      <trkpt lat="45.00201" lon="3.91508">
        <ele>682.573</ele>
        <time>2021-09-27T19:28:21Z</time>
      </trkpt>
      <trkpt lat="45.00197" lon="3.91511">
        <ele>682.325</ele>
        <time>2021-09-27T19:29:01Z</time>
      </trkpt>
      <trkpt lat="45.00193" lon="3.91514">
        <ele>681.915</ele>
        <time>2021-09-27T19:29:41Z</time>
      </trkpt>
      <trkpt lat="45.00188" lon="3.91517">
        <ele>681.312</ele>
        <time>2021-09-27T19:30:21Z</time>
      </trkpt>
      <trkpt lat="45.00184" lon="3.9152">
        <ele>680.832</ele>
        <time>2021-09-27T19:31:01Z</time>
      </trkpt>
      <trkpt lat="45.0018" lon="3.91523">
        <ele>680.305</ele>
        <time>2021-09-27T19:31:41Z</time>
      </trkpt>
      <trkpt lat="45.00176" lon="3.91526">
        <ele>679.808</ele>
        <time>2021-09-27T19:32:21Z</time>
      </trkpt>
      <trkpt lat="45.00171" lon="3.91528">
        <ele>679.389</ele>
        <time>2021-09-27T19:33:01Z</time>
      </trkpt>
      <trkpt lat="45.00167" lon="3.91531">
        <ele>678.885</ele>
        <time>2021-09-27T19:33:41Z</time>
      </trkpt>
      <trkpt lat="45.00162" lon="3.91533">
        <ele>678.86</ele>
        <time>2021-09-27T19:34:21Z</time>
      </trkpt>
      <trkpt lat="45.00158" lon="3.91535">
        <ele>678.742</ele>
        <time>2021-09-27T19:35:01Z</time>
      </trkpt>
      <trkpt lat="45.00153" lon="3.91538">
        <ele>678.67</ele>
        <time>2021-09-27T19:35:41Z</time>
      </trkpt>
      <trkpt lat="45.00149" lon="3.9154">
        <ele>678.483</ele>
        <time>2021-09-27T19:36:21Z</time>
      </trkpt>
      <trkpt lat="45.00144" lon="3.91543">
        <ele>678.375</ele>
        <time>2021-09-27T19:37:01Z</time>
      </trkpt>
      <trkpt lat="45.00139" lon="3.91546">
        <ele>678.155</ele>
        <time>2021-09-27T19:37:41Z</time>
      </trkpt>
      <trkpt lat="45.00134" lon="3.91548">
        <ele>677.825</ele>
        <time>2021-09-27T19:38:21Z</time>
      </trkpt>
      <trkpt lat="45.0013" lon="3.91551">
        <ele>677.526</ele>
        <time>2021-09-27T19:39:01Z</time>
      </trkpt>
      <trkpt lat="45.00125" lon="3.91553">
        <ele>677.208</ele>
        <time>2021-09-27T19:39:41Z</time>
      </trkpt>
      <trkpt lat="45.0012" lon="3.91556">
        <ele>677.008</ele>
        <time>2021-09-27T19:40:21Z</time>
      </trkpt>
      <trkpt lat="45.00116" lon="3.91558">
        <ele>676.79</ele>
        <time>2021-09-27T19:41:01Z</time>
      </trkpt>
      <trkpt lat="45.00111" lon="3.91561">
        <ele>676.516</ele>
        <time>2021-09-27T19:41:41Z</time>
      </trkpt>
      <trkpt lat="45.00107" lon="3.91563">
        <ele>675.471</ele>
        <time>2021-09-27T19:42:21Z</time>
      </trkpt>
      <trkpt lat="45.00102" lon="3.91565">
        <ele>674.413</ele>
        <time>2021-09-27T19:43:01Z</time>
      </trkpt>
      <trkpt lat="45.00098" lon="3.91567">
        <ele>673.481</ele>
        <time>2021-09-27T19:43:41Z</time>
      </trkpt>
      <trkpt lat="45.00094" lon="3.91569">
        <ele>672.424</ele>
        <time>2021-09-27T19:44:21Z</time>
      </trkpt>
      <trkpt lat="45.0009" lon="3.91571">
        <ele>671.466</ele>
        <time>2021-09-27T19:45:01Z</time>
      </trkpt>
      <trkpt lat="45.00085" lon="3.91573">
        <ele>670.586</ele>
        <time>2021-09-27T19:45:41Z</time>
      </trkpt>
      <trkpt lat="45.00081" lon="3.91575">
        <ele>669.652</ele>
        <time>2021-09-27T19:46:21Z</time>
      </trkpt>
      <trkpt lat="45.00077" lon="3.91577">
        <ele>668.953</ele>
        <time>2021-09-27T19:47:01Z</time>
      </trkpt>
      <trkpt lat="45.00075" lon="3.91577">
        <ele>668.808</ele>
        <time>2021-09-27T19:47:41Z</time>
      </trkpt>
      <trkpt lat="45.00075" lon="3.91581">
        <ele>668.408</ele>
        <time>2021-09-27T19:48:21Z</time>
      </trkpt>
      <trkpt lat="45.00076" lon="3.91585">
        <ele>668.053</ele>
        <time>2021-09-27T19:49:01Z</time>
      </trkpt>
      <trkpt lat="45.00078" lon="3.91591">
        <ele>667.479</ele>
        <time>2021-09-27T19:49:41Z</time>
      </trkpt>
      <trkpt lat="45.00081" lon="3.91594">
        <ele>667.244</ele>
        <time>2021-09-27T19:50:21Z</time>
      </trkpt>
      <trkpt lat="45.00085" lon="3.91598">
        <ele>667.156</ele>
        <time>2021-09-27T19:51:01Z</time>
      </trkpt>
      <trkpt lat="45.00088" lon="3.91602">
        <ele>667.124</ele>
        <time>2021-09-27T19:51:41Z</time>
      </trkpt>
      <trkpt lat="45.00092" lon="3.91606">
        <ele>667.137</ele>
        <time>2021-09-27T19:52:21Z</time>
      </trkpt>
      <trkpt lat="45.00095" lon="3.91609">
        <ele>667.059</ele>
        <time>2021-09-27T19:53:01Z</time>
      </trkpt>
      <trkpt lat="45.00099" lon="3.91613">
        <ele>667.069</ele>
        <time>2021-09-27T19:53:41Z</time>
      </trkpt>
      <trkpt lat="45.00102" lon="3.91618">
        <ele>666.853</ele>
        <time>2021-09-27T19:54:21Z</time>
      </trkpt>
      <trkpt lat="45.00104" lon="3.91622">
        <ele>666.504</ele>
        <time>2021-09-27T19:55:01Z</time>
      </trkpt>
      <trkpt lat="45.00107" lon="3.91627">
        <ele>666.314</ele>
        <time>2021-09-27T19:55:41Z</time>
      </trkpt>
      <trkpt lat="45.00108" lon="3.91631">
        <ele>665.708</ele>
        <time>2021-09-27T19:56:21Z</time>
      </trkpt>
      <trkpt lat="45.00108" lon="3.91636">
        <ele>665.143</ele>
        <time>2021-09-27T19:57:01Z</time>
      </trkpt>
      <trkpt lat="45.00108" lon="3.91642">
        <ele>664.439</ele>
        <time>2021-09-27T19:57:41Z</time>
      </trkpt>
      <trkpt lat="45.00108" lon="3.91649">
        <ele>663.984</ele>
        <time>2021-09-27T19:58:21Z</time>
      </trkpt>
      <trkpt lat="45.00107" lon="3.91655">
        <ele>663.456</ele>
        <time>2021-09-27T19:59:01Z</time>
      </trkpt>
      <trkpt lat="45.00107" lon="3.91662">
        <ele>662.994</ele>
        <time>2021-09-27T19:59:41Z</time>
      </trkpt>
      <trkpt lat="45.00106" lon="3.91668">
        <ele>662.487</ele>
        <time>2021-09-27T20:00:21Z</time>
      </trkpt>
      <trkpt lat="45.00105" lon="3.91674">
        <ele>662.169</ele>
        <time>2021-09-27T20:01:01Z</time>
      </trkpt>
      <trkpt lat="45.00105" lon="3.9168">
        <ele>661.899</ele>
        <time>2021-09-27T20:01:41Z</time>
      </trkpt>
      <trkpt lat="45.00104" lon="3.91686">
        <ele>661.594</ele>
        <time>2021-09-27T20:02:21Z</time>
      </trkpt>
      <trkpt lat="45.00104" lon="3.91693">
        <ele>661.357</ele>
        <time>2021-09-27T20:03:01Z</time>
      </trkpt>
      <trkpt lat="45.00102" lon="3.91697">
        <ele>661.022</ele>
        <time>2021-09-27T20:03:41Z</time>
      </trkpt>
      <trkpt lat="45.00101" lon="3.917">
        <ele>660.908</ele>
        <time>2021-09-27T20:04:21Z</time>
      </trkpt>
      <trkpt lat="45.00097" lon="3.917">
        <ele>660.437</ele>
        <time>2021-09-27T20:05:01Z</time>
      </trkpt>
      <trkpt lat="45.00092" lon="3.917">
        <ele>659.993</ele>
        <time>2021-09-27T20:05:41Z</time>
      </trkpt>
      <trkpt lat="45.00088" lon="3.91701">
        <ele>659.558</ele>
        <time>2021-09-27T20:06:21Z</time>
      </trkpt>
      <trkpt lat="45.00083" lon="3.91701">
        <ele>659.08</ele>
        <time>2021-09-27T20:07:01Z</time>
      </trkpt>
      <trkpt lat="45.00079" lon="3.91701">
        <ele>658.698</ele>
        <time>2021-09-27T20:07:41Z</time>
      </trkpt>
      <trkpt lat="45.00074" lon="3.91701">
        <ele>658.191</ele>
        <time>2021-09-27T20:08:21Z</time>
      </trkpt>
      <trkpt lat="45.00069" lon="3.91701">
        <ele>657.733</ele>
        <time>2021-09-27T20:09:01Z</time>
      </trkpt>
      <trkpt lat="45.00064" lon="3.91701">
        <ele>657.223</ele>
        <time>2021-09-27T20:09:41Z</time>
      </trkpt>
      <trkpt lat="45.00059" lon="3.91702">
        <ele>656.864</ele>
        <time>2021-09-27T20:10:21Z</time>
      </trkpt>
      <trkpt lat="45.00054" lon="3.91702">
        <ele>656.306</ele>
        <time>2021-09-27T20:11:01Z</time>
      </trkpt>
      <trkpt lat="45.00049" lon="3.91702">
        <ele>655.816</ele>
        <time>2021-09-27T20:11:41Z</time>
      </trkpt>
      <trkpt lat="45.00045" lon="3.91702">
        <ele>655.308</ele>
        <time>2021-09-27T20:12:21Z</time>
      </trkpt>
      <trkpt lat="45.0004" lon="3.91702">
        <ele>654.824</ele>
        <time>2021-09-27T20:13:01Z</time>
      </trkpt>
      <trkpt lat="45.00035" lon="3.91702">
        <ele>654.38</ele>
        <time>2021-09-27T20:13:41Z</time>
      </trkpt>
      <trkpt lat="45.00031" lon="3.91702">
        <ele>653.785</ele>
        <time>2021-09-27T20:14:21Z</time>
      </trkpt>
      <trkpt lat="45.00026" lon="3.91703">
        <ele>653.257</ele>
        <time>2021-09-27T20:15:01Z</time>
      </trkpt>
      <trkpt lat="45.00021" lon="3.91703">
        <ele>652.785</ele>
        <time>2021-09-27T20:15:41Z</time>
      </trkpt>
      <trkpt lat="45.00016" lon="3.91703">
        <ele>652.218</ele>
        <time>2021-09-27T20:16:21Z</time>
      </trkpt>
      <trkpt lat="45.00012" lon="3.91703">
        <ele>651.76</ele>
        <time>2021-09-27T20:17:01Z</time>
      </trkpt>
      <trkpt lat="45.00008" lon="3.91703">
        <ele>651.28</ele>
        <time>2021-09-27T20:17:41Z</time>
      </trkpt>
      <trkpt lat="45.00003" lon="3.91703">
        <ele>650.738</ele>
        <time>2021-09-27T20:18:21Z</time>
      </trkpt>
      <trkpt lat="45" lon="3.91704">
        <ele>650.37</ele>
        <time>2021-09-27T20:19:01Z</time>
      </trkpt>
      <trkpt lat="44.99995" lon="3.91704">
        <ele>649.817</ele>
        <time>2021-09-27T20:19:41Z</time>
      </trkpt>
      <trkpt lat="44.99991" lon="3.91704">
        <ele>649.408</ele>
        <time>2021-09-27T20:20:21Z</time>
      </trkpt>
      <trkpt lat="44.99987" lon="3.91704">
        <ele>648.971</ele>
        <time>2021-09-27T20:21:01Z</time>
      </trkpt>
      <trkpt lat="44.99982" lon="3.91704">
        <ele>648.457</ele>
        <time>2021-09-27T20:21:41Z</time>
      </trkpt>
      <trkpt lat="44.99978" lon="3.91704">
        <ele>648.022</ele>
        <time>2021-09-27T20:22:21Z</time>
      </trkpt>
      <trkpt lat="44.99974" lon="3.91704">
        <ele>647.534</ele>
        <time>2021-09-27T20:23:01Z</time>
      </trkpt>
      <trkpt lat="44.99971" lon="3.91704">
        <ele>647.162</ele>
        <time>2021-09-27T20:23:41Z</time>
      </trkpt>
      <trkpt lat="44.99967" lon="3.91704">
        <ele>646.715</ele>
        <time>2021-09-27T20:24:21Z</time>
      </trkpt>
      <trkpt lat="44.99963" lon="3.91703">
        <ele>646.237</ele>
        <time>2021-09-27T20:25:01Z</time>
      </trkpt>
      <trkpt lat="44.99959" lon="3.91701">
        <ele>645.767</ele>
        <time>2021-09-27T20:25:41Z</time>
      </trkpt>
      <trkpt lat="44.99955" lon="3.917">
        <ele>645.214</ele>
        <time>2021-09-27T20:26:21Z</time>
      </trkpt>
      <trkpt lat="44.99951" lon="3.917">
        <ele>644.754</ele>
        <time>2021-09-27T20:27:01Z</time>
      </trkpt>
      <trkpt lat="44.99948" lon="3.917">
        <ele>644.209</ele>
        <time>2021-09-27T20:27:41Z</time>
      </trkpt>
      <trkpt lat="44.99944" lon="3.917">
        <ele>643.708</ele>
        <time>2021-09-27T20:28:21Z</time>
      </trkpt>
      <trkpt lat="44.9994" lon="3.91701">
        <ele>642.999</ele>
        <time>2021-09-27T20:29:01Z</time>
      </trkpt>
      <trkpt lat="44.99936" lon="3.91702">
        <ele>642.175</ele>
        <time>2021-09-27T20:29:41Z</time>
      </trkpt>
      <trkpt lat="44.99932" lon="3.91704">
        <ele>641.48</ele>
        <time>2021-09-27T20:30:21Z</time>
      </trkpt>
      <trkpt lat="44.99928" lon="3.91707">
        <ele>640.662</ele>
        <time>2021-09-27T20:31:01Z</time>
      </trkpt>
      <trkpt lat="44.99925" lon="3.91709">
        <ele>639.98</ele>
        <time>2021-09-27T20:31:41Z</time>
      </trkpt>
      <trkpt lat="44.99921" lon="3.91712">
        <ele>639.163</ele>
        <time>2021-09-27T20:32:21Z</time>
      </trkpt>
      <trkpt lat="44.99917" lon="3.91715">
        <ele>638.495</ele>
        <time>2021-09-27T20:33:01Z</time>
      </trkpt>
      <trkpt lat="44.99914" lon="3.91719">
        <ele>637.655</ele>
        <time>2021-09-27T20:33:41Z</time>
      </trkpt>
      <trkpt lat="44.9991" lon="3.91724">
        <ele>636.871</ele>
        <time>2021-09-27T20:34:21Z</time>
      </trkpt>
      <trkpt lat="44.99907" lon="3.91728">
        <ele>636.241</ele>
        <time>2021-09-27T20:35:01Z</time>
      </trkpt>
      <trkpt lat="44.99904" lon="3.91731">
        <ele>635.715</ele>
        <time>2021-09-27T20:35:41Z</time>
      </trkpt>
      <trkpt lat="44.99901" lon="3.91734">
        <ele>635.308</ele>
        <time>2021-09-27T20:36:21Z</time>
      </trkpt>
      <trkpt lat="44.99898" lon="3.91737">
        <ele>634.915</ele>
        <time>2021-09-27T20:37:01Z</time>
      </trkpt>
      <trkpt lat="44.99895" lon="3.9174">
        <ele>634.581</ele>
        <time>2021-09-27T20:37:41Z</time>
      </trkpt>
      <trkpt lat="44.99892" lon="3.91743">
        <ele>634.116</ele>
        <time>2021-09-27T20:38:21Z</time>
      </trkpt>
      <trkpt lat="44.99889" lon="3.91745">
        <ele>633.888</ele>
        <time>2021-09-27T20:39:01Z</time>
      </trkpt>
      <trkpt lat="44.99886" lon="3.91748">
        <ele>633.466</ele>
        <time>2021-09-27T20:39:41Z</time>
      </trkpt>
      <trkpt lat="44.99884" lon="3.91741">
        <ele>633.039</ele>
        <time>2021-09-27T20:40:21Z</time>
      </trkpt>
      <trkpt lat="44.99883" lon="3.91735">
        <ele>632.691</ele>
        <time>2021-09-27T20:41:01Z</time>
      </trkpt>
      <trkpt lat="44.99881" lon="3.91729">
        <ele>632.361</ele>
        <time>2021-09-27T20:41:41Z</time>
      </trkpt>
      <trkpt lat="44.9988" lon="3.91723">
        <ele>632.038</ele>
        <time>2021-09-27T20:42:21Z</time>
      </trkpt>
      <trkpt lat="44.99879" lon="3.91718">
        <ele>631.97</ele>
        <time>2021-09-27T20:43:01Z</time>
      </trkpt>
      <trkpt lat="44.99877" lon="3.91713">
        <ele>631.917</ele>
        <time>2021-09-27T20:43:41Z</time>
      </trkpt>
      <trkpt lat="44.99876" lon="3.91707">
        <ele>631.908</ele>
        <time>2021-09-27T20:44:21Z</time>
      </trkpt>
      <trkpt lat="44.99875" lon="3.91702">
        <ele>631.911</ele>
        <time>2021-09-27T20:45:01Z</time>
      </trkpt>
      <trkpt lat="44.99874" lon="3.91697">
        <ele>631.997</ele>
        <time>2021-09-27T20:45:41Z</time>
      </trkpt>
      <trkpt lat="44.99871" lon="3.91698">
        <ele>631.692</ele>
        <time>2021-09-27T20:46:21Z</time>
      </trkpt>
      <trkpt lat="44.99868" lon="3.917">
        <ele>631.494</ele>
        <time>2021-09-27T20:47:01Z</time>
      </trkpt>
      <trkpt lat="44.99865" lon="3.91701">
        <ele>631.142</ele>
        <time>2021-09-27T20:47:41Z</time>
      </trkpt>
      <trkpt lat="44.99861" lon="3.91702">
        <ele>630.765</ele>
        <time>2021-09-27T20:48:21Z</time>
      </trkpt>
      <trkpt lat="44.99856" lon="3.91704">
        <ele>630.017</ele>
        <time>2021-09-27T20:49:01Z</time>
      </trkpt>
      <trkpt lat="44.99851" lon="3.91705">
        <ele>629.237</ele>
        <time>2021-09-27T20:49:41Z</time>
      </trkpt>
      <trkpt lat="44.99847" lon="3.91706">
        <ele>628.527</ele>
        <time>2021-09-27T20:50:21Z</time>
      </trkpt>
      <trkpt lat="44.99842" lon="3.91707">
        <ele>627.868</ele>
        <time>2021-09-27T20:51:01Z</time>
      </trkpt>
      <trkpt lat="44.99838" lon="3.91709">
        <ele>627.114</ele>
        <time>2021-09-27T20:51:41Z</time>
      </trkpt>
      <trkpt lat="44.99833" lon="3.9171">
        <ele>626.408</ele>
        <time>2021-09-27T20:52:21Z</time>
      </trkpt>
      <trkpt lat="44.99828" lon="3.91711">
        <ele>626.03</ele>
        <time>2021-09-27T20:53:01Z</time>
      </trkpt>
      <trkpt lat="44.99824" lon="3.91713">
        <ele>625.546</ele>
        <time>2021-09-27T20:53:41Z</time>
      </trkpt>
      <trkpt lat="44.99819" lon="3.91714">
        <ele>625.181</ele>
        <time>2021-09-27T20:54:21Z</time>
      </trkpt>
      <trkpt lat="44.99815" lon="3.91715">
        <ele>624.783</ele>
        <time>2021-09-27T20:55:01Z</time>
      </trkpt>
      <trkpt lat="44.9981" lon="3.91716">
        <ele>624.461</ele>
        <time>2021-09-27T20:55:41Z</time>
      </trkpt>
      <trkpt lat="44.99806" lon="3.91717">
        <ele>624.054</ele>
        <time>2021-09-27T20:56:21Z</time>
      </trkpt>
      <trkpt lat="44.99801" lon="3.91718">
        <ele>624.186</ele>
        <time>2021-09-27T20:57:01Z</time>
      </trkpt>
      <trkpt lat="44.99797" lon="3.91719">
        <ele>624.326</ele>
        <time>2021-09-27T20:57:41Z</time>
      </trkpt>
      <trkpt lat="44.99793" lon="3.91721">
        <ele>624.448</ele>
        <time>2021-09-27T20:58:21Z</time>
      </trkpt>
      <trkpt lat="44.99788" lon="3.91722">
        <ele>624.661</ele>
        <time>2021-09-27T20:59:01Z</time>
      </trkpt>
      <trkpt lat="44.99784" lon="3.91723">
        <ele>624.817</ele>
        <time>2021-09-27T20:59:41Z</time>
      </trkpt>
      <trkpt lat="44.9978" lon="3.91724">
        <ele>625.008</ele>
        <time>2021-09-27T21:00:21Z</time>
      </trkpt>
      <trkpt lat="44.99776" lon="3.91725">
        <ele>625.492</ele>
        <time>2021-09-27T21:01:01Z</time>
      </trkpt>
      <trkpt lat="44.99771" lon="3.91727">
        <ele>626.088</ele>
        <time>2021-09-27T21:01:41Z</time>
      </trkpt>
      <trkpt lat="44.99767" lon="3.91728">
        <ele>626.753</ele>
        <time>2021-09-27T21:02:21Z</time>
      </trkpt>
      <trkpt lat="44.99763" lon="3.9173">
        <ele>627.335</ele>
        <time>2021-09-27T21:03:01Z</time>
      </trkpt>
      <trkpt lat="44.99759" lon="3.91732">
        <ele>627.923</ele>
        <time>2021-09-27T21:03:41Z</time>
      </trkpt>
      <trkpt lat="44.99754" lon="3.91734">
        <ele>628.566</ele>
        <time>2021-09-27T21:04:21Z</time>
      </trkpt>
      <trkpt lat="44.9975" lon="3.91736">
        <ele>629.048</ele>
        <time>2021-09-27T21:05:01Z</time>
      </trkpt>
      <trkpt lat="44.99746" lon="3.91738">
        <ele>629.558</ele>
        <time>2021-09-27T21:05:41Z</time>
      </trkpt>
      <trkpt lat="44.99743" lon="3.91742">
        <ele>629.827</ele>
        <time>2021-09-27T21:06:21Z</time>
      </trkpt>
      <trkpt lat="44.9974" lon="3.91745">
        <ele>630.168</ele>
        <time>2021-09-27T21:07:01Z</time>
      </trkpt>
      <trkpt lat="44.99738" lon="3.91749">
        <ele>630.314</ele>
        <time>2021-09-27T21:07:41Z</time>
      </trkpt>
      <trkpt lat="44.99736" lon="3.91753">
        <ele>630.608</ele>
        <time>2021-09-27T21:08:21Z</time>
      </trkpt>
      <trkpt lat="44.99734" lon="3.91756">
        <ele>630.88</ele>
        <time>2021-09-27T21:09:01Z</time>
      </trkpt>
      <trkpt lat="44.99733" lon="3.9176">
        <ele>631.076</ele>
        <time>2021-09-27T21:09:41Z</time>
      </trkpt>
      <trkpt lat="44.99731" lon="3.91765">
        <ele>631.241</ele>
        <time>2021-09-27T21:10:21Z</time>
      </trkpt>
      <trkpt lat="44.99729" lon="3.91771">
        <ele>631.553</ele>
        <time>2021-09-27T21:11:01Z</time>
      </trkpt>
      <trkpt lat="44.99727" lon="3.91777">
        <ele>631.731</ele>
        <time>2021-09-27T21:11:41Z</time>
      </trkpt>
      <trkpt lat="44.99726" lon="3.91779">
        <ele>631.794</ele>
        <time>2021-09-27T21:12:21Z</time>
      </trkpt>
      <trkpt lat="44.99724" lon="3.91785">
        <ele>631.996</ele>
        <time>2021-09-27T21:13:01Z</time>
      </trkpt>
      <trkpt lat="44.99722" lon="3.91791">
        <ele>632.086</ele>
        <time>2021-09-27T21:13:41Z</time>
      </trkpt>
      <trkpt lat="44.99719" lon="3.91796">
        <ele>632.181</ele>
        <time>2021-09-27T21:14:21Z</time>
      </trkpt>
      <trkpt lat="44.99716" lon="3.91801">
        <ele>632.261</ele>
        <time>2021-09-27T21:15:01Z</time>
      </trkpt>
      <trkpt lat="44.99711" lon="3.91808">
        <ele>632.517</ele>
        <time>2021-09-27T21:15:41Z</time>
      </trkpt>
      <trkpt lat="44.99709" lon="3.91809">
        <ele>632.508</ele>
        <time>2021-09-27T21:16:21Z</time>
      </trkpt>
      <trkpt lat="44.99703" lon="3.91815">
        <ele>632.836</ele>
        <time>2021-09-27T21:17:01Z</time>
      </trkpt>
      <trkpt lat="44.99698" lon="3.9182">
        <ele>632.982</ele>
        <time>2021-09-27T21:17:41Z</time>
      </trkpt>
      <trkpt lat="44.99697" lon="3.91821">
        <ele>633.057</ele>
        <time>2021-09-27T21:18:21Z</time>
      </trkpt>
      <trkpt lat="44.99695" lon="3.91822">
        <ele>633.069</ele>
        <time>2021-09-27T21:19:01Z</time>
      </trkpt>
      <trkpt lat="44.99689" lon="3.91827">
        <ele>633.097</ele>
        <time>2021-09-27T21:19:41Z</time>
      </trkpt>
      <trkpt lat="44.99684" lon="3.91829">
        <ele>633.07</ele>
        <time>2021-09-27T21:20:21Z</time>
      </trkpt>
      <trkpt lat="44.99679" lon="3.91832">
        <ele>633.022</ele>
        <time>2021-09-27T21:21:01Z</time>
      </trkpt>
      <trkpt lat="44.99672" lon="3.91834">
        <ele>633.092</ele>
        <time>2021-09-27T21:21:41Z</time>
      </trkpt>
      <trkpt lat="44.99665" lon="3.91837">
        <ele>633.136</ele>
        <time>2021-09-27T21:22:21Z</time>
      </trkpt>
      <trkpt lat="44.9966" lon="3.91838">
        <ele>633.117</ele>
        <time>2021-09-27T21:23:01Z</time>
      </trkpt>
      <trkpt lat="44.99656" lon="3.91839">
        <ele>633.118</ele>
        <time>2021-09-27T21:23:41Z</time>
      </trkpt>
      <trkpt lat="44.99651" lon="3.9184">
        <ele>633.108</ele>
        <time>2021-09-27T21:24:21Z</time>
      </trkpt>
      <trkpt lat="44.99649" lon="3.9184">
        <ele>633.111</ele>
        <time>2021-09-27T21:25:01Z</time>
      </trkpt>
      <trkpt lat="44.99644" lon="3.9184">
        <ele>633.047</ele>
        <time>2021-09-27T21:25:41Z</time>
      </trkpt>
      <trkpt lat="44.99638" lon="3.9184">
        <ele>633.092</ele>
        <time>2021-09-27T21:26:21Z</time>
      </trkpt>
      <trkpt lat="44.99633" lon="3.9184">
        <ele>633.034</ele>
        <time>2021-09-27T21:27:01Z</time>
      </trkpt>
      <trkpt lat="44.99628" lon="3.91839">
        <ele>633.072</ele>
        <time>2021-09-27T21:27:41Z</time>
      </trkpt>
      <trkpt lat="44.99623" lon="3.91838">
        <ele>633.015</ele>
        <time>2021-09-27T21:28:21Z</time>
      </trkpt>
      <trkpt lat="44.99615" lon="3.91836">
        <ele>633.047</ele>
        <time>2021-09-27T21:29:01Z</time>
      </trkpt>
      <trkpt lat="44.99608" lon="3.91834">
        <ele>633.187</ele>
        <time>2021-09-27T21:29:41Z</time>
      </trkpt>
      <trkpt lat="44.99601" lon="3.91832">
        <ele>633.421</ele>
        <time>2021-09-27T21:30:21Z</time>
      </trkpt>
      <trkpt lat="44.99595" lon="3.9183">
        <ele>633.741</ele>
        <time>2021-09-27T21:31:01Z</time>
      </trkpt>
      <trkpt lat="44.99589" lon="3.91828">
        <ele>634.005</ele>
        <time>2021-09-27T21:31:41Z</time>
      </trkpt>
      <trkpt lat="44.9958" lon="3.91825">
        <ele>634.608</ele>
        <time>2021-09-27T21:32:21Z</time>
      </trkpt>
      <trkpt lat="44.99575" lon="3.91825">
        <ele>634.93</ele>
        <time>2021-09-27T21:33:01Z</time>
      </trkpt>
      <trkpt lat="44.99572" lon="3.91821">
        <ele>635.246</ele>
        <time>2021-09-27T21:33:41Z</time>
      </trkpt>
      <trkpt lat="44.99571" lon="3.91819">
        <ele>635.471</ele>
        <time>2021-09-27T21:34:21Z</time>
      </trkpt>
      <trkpt lat="44.99564" lon="3.91815">
        <ele>636.053</ele>
        <time>2021-09-27T21:35:01Z</time>
      </trkpt>
      <trkpt lat="44.99557" lon="3.91812">
        <ele>636.791</ele>
        <time>2021-09-27T21:35:41Z</time>
      </trkpt>
      <trkpt lat="44.9955" lon="3.91808">
        <ele>637.844</ele>
        <time>2021-09-27T21:36:21Z</time>
      </trkpt>
      <trkpt lat="44.99542" lon="3.91804">
        <ele>639.066</ele>
        <time>2021-09-27T21:37:01Z</time>
      </trkpt>
      <trkpt lat="44.99534" lon="3.918">
        <ele>640.056</ele>
        <time>2021-09-27T21:37:41Z</time>
      </trkpt>
      <trkpt lat="44.99526" lon="3.91796">
        <ele>640.951</ele>
        <time>2021-09-27T21:38:21Z</time>
      </trkpt>
      <trkpt lat="44.9952" lon="3.91793">
        <ele>641.701</ele>
        <time>2021-09-27T21:39:01Z</time>
      </trkpt>
      <trkpt lat="44.99513" lon="3.9179">
        <ele>642.611</ele>
        <time>2021-09-27T21:39:41Z</time>
      </trkpt>
      <trkpt lat="44.99506" lon="3.91788">
        <ele>643.408</ele>
        <time>2021-09-27T21:40:21Z</time>
      </trkpt>
      <trkpt lat="44.99504" lon="3.91786">
        <ele>643.823</ele>
        <time>2021-09-27T21:41:01Z</time>
      </trkpt>
      <trkpt lat="44.99501" lon="3.91785">
        <ele>644.169</ele>
        <time>2021-09-27T21:41:41Z</time>
      </trkpt>
      <trkpt lat="44.99497" lon="3.91782">
        <ele>644.584</ele>
        <time>2021-09-27T21:42:21Z</time>
      </trkpt>
      <trkpt lat="44.99492" lon="3.91779">
        <ele>644.996</ele>
        <time>2021-09-27T21:43:01Z</time>
      </trkpt>
      <trkpt lat="44.99485" lon="3.91777">
        <ele>645.644</ele>
        <time>2021-09-27T21:43:41Z</time>
      </trkpt>
      <trkpt lat="44.99479" lon="3.91776">
        <ele>646.367</ele>
        <time>2021-09-27T21:44:21Z</time>
      </trkpt>
      <trkpt lat="44.99473" lon="3.91777">
        <ele>646.939</ele>
        <time>2021-09-27T21:45:01Z</time>
      </trkpt>
      <trkpt lat="44.99466" lon="3.91782">
        <ele>647.929</ele>
        <time>2021-09-27T21:45:41Z</time>
      </trkpt>
      <trkpt lat="44.99462" lon="3.91787">
        <ele>648.463</ele>
        <time>2021-09-27T21:46:21Z</time>
      </trkpt>
      <trkpt lat="44.99458" lon="3.91791">
        <ele>648.844</ele>
        <time>2021-09-27T21:47:01Z</time>
      </trkpt>
      <trkpt lat="44.99453" lon="3.91798">
        <ele>649.318</ele>
        <time>2021-09-27T21:47:41Z</time>
      </trkpt>
      <trkpt lat="44.99448" lon="3.91806">
        <ele>649.608</ele>
        <time>2021-09-27T21:48:21Z</time>
      </trkpt>
      <trkpt lat="44.99442" lon="3.91814">
        <ele>649.994</ele>
        <time>2021-09-27T21:49:01Z</time>
      </trkpt>
      <trkpt lat="44.99439" lon="3.9182">
        <ele>650.02</ele>
        <time>2021-09-27T21:49:41Z</time>
      </trkpt>
      <trkpt lat="44.99435" lon="3.91825">
        <ele>650.345</ele>
        <time>2021-09-27T21:50:21Z</time>
      </trkpt>
      <trkpt lat="44.99429" lon="3.91832">
        <ele>650.797</ele>
        <time>2021-09-27T21:51:01Z</time>
      </trkpt>
      <trkpt lat="44.99422" lon="3.91838">
        <ele>651.485</ele>
        <time>2021-09-27T21:51:41Z</time>
      </trkpt>
      <trkpt lat="44.99415" lon="3.91846">
        <ele>652.238</ele>
        <time>2021-09-27T21:52:21Z</time>
      </trkpt>
      <trkpt lat="44.99408" lon="3.91854">
        <ele>653.16</ele>
        <time>2021-09-27T21:53:01Z</time>
      </trkpt>
      <trkpt lat="44.994" lon="3.91861">
        <ele>654.48</ele>
        <time>2021-09-27T21:53:41Z</time>
      </trkpt>
      <trkpt lat="44.99393" lon="3.91869">
        <ele>656.354</ele>
        <time>2021-09-27T21:54:21Z</time>
      </trkpt>
      <trkpt lat="44.99387" lon="3.91875">
        <ele>657.956</ele>
        <time>2021-09-27T21:55:01Z</time>
      </trkpt>
      <trkpt lat="44.99381" lon="3.91881">
        <ele>659.611</ele>
        <time>2021-09-27T21:55:41Z</time>
      </trkpt>
      <trkpt lat="44.99375" lon="3.91887">
        <ele>661.308</ele>
        <time>2021-09-27T21:56:21Z</time>
      </trkpt>
      <trkpt lat="44.99369" lon="3.91893">
        <ele>662.933</ele>
        <time>2021-09-27T21:57:01Z</time>
      </trkpt>
      <trkpt lat="44.99363" lon="3.91901">
        <ele>664.619</ele>
        <time>2021-09-27T21:57:41Z</time>
      </trkpt>
      <trkpt lat="44.99359" lon="3.91911">
        <ele>665.854</ele>
        <time>2021-09-27T21:58:21Z</time>
      </trkpt>
      <trkpt lat="44.99354" lon="3.9192">
        <ele>666.946</ele>
        <time>2021-09-27T21:59:01Z</time>
      </trkpt>
      <trkpt lat="44.9935" lon="3.9193">
        <ele>667.834</ele>
        <time>2021-09-27T21:59:41Z</time>
      </trkpt>
      <trkpt lat="44.99345" lon="3.91939">
        <ele>668.467</ele>
        <time>2021-09-27T22:00:21Z</time>
      </trkpt>
      <trkpt lat="44.9934" lon="3.91949">
        <ele>669.199</ele>
        <time>2021-09-27T22:01:01Z</time>
      </trkpt>
      <trkpt lat="44.99336" lon="3.91959">
        <ele>670.079</ele>
        <time>2021-09-27T22:01:41Z</time>
      </trkpt>
      <trkpt lat="44.99331" lon="3.91969">
        <ele>671.054</ele>
        <time>2021-09-27T22:02:21Z</time>
      </trkpt>
      <trkpt lat="44.99327" lon="3.91979">
        <ele>672.156</ele>
        <time>2021-09-27T22:03:01Z</time>
      </trkpt>
      <trkpt lat="44.99322" lon="3.91989">
        <ele>673.311</ele>
        <time>2021-09-27T22:03:41Z</time>
      </trkpt>
      <trkpt lat="44.99318" lon="3.91998">
        <ele>674.408</ele>
        <time>2021-09-27T22:04:21Z</time>
      </trkpt>
      <trkpt lat="44.99314" lon="3.92008">
        <ele>675.083</ele>
        <time>2021-09-27T22:05:01Z</time>
      </trkpt>
      <trkpt lat="44.9931" lon="3.92015">
        <ele>675.439</ele>
        <time>2021-09-27T22:05:41Z</time>
      </trkpt>
      <trkpt lat="44.99307" lon="3.9202">
        <ele>675.774</ele>
        <time>2021-09-27T22:06:21Z</time>
      </trkpt>
      <trkpt lat="44.99304" lon="3.92026">
        <ele>676.176</ele>
        <time>2021-09-27T22:07:01Z</time>
      </trkpt>
      <trkpt lat="44.993" lon="3.92032">
        <ele>676.334</ele>
        <time>2021-09-27T22:07:41Z</time>
      </trkpt>
      <trkpt lat="44.99295" lon="3.9204">
        <ele>676.687</ele>
        <time>2021-09-27T22:08:21Z</time>
      </trkpt>
      <trkpt lat="44.99289" lon="3.92049">
        <ele>676.799</ele>
        <time>2021-09-27T22:09:01Z</time>
      </trkpt>
      <trkpt lat="44.99284" lon="3.92058">
        <ele>676.889</ele>
        <time>2021-09-27T22:09:41Z</time>
      </trkpt>
      <trkpt lat="44.99278" lon="3.92067">
        <ele>677.078</ele>
        <time>2021-09-27T22:10:21Z</time>
      </trkpt>
      <trkpt lat="44.99273" lon="3.92076">
        <ele>677.433</ele>
        <time>2021-09-27T22:11:01Z</time>
      </trkpt>
      <trkpt lat="44.99268" lon="3.92074">
        <ele>677.826</ele>
        <time>2021-09-27T22:11:41Z</time>
      </trkpt>
      <trkpt lat="44.99267" lon="3.92073">
        <ele>677.908</ele>
        <time>2021-09-27T22:12:21Z</time>
      </trkpt>
      <trkpt lat="44.99262" lon="3.92072">
        <ele>678.485</ele>
        <time>2021-09-27T22:13:01Z</time>
      </trkpt>
      <trkpt lat="44.99257" lon="3.92071">
        <ele>678.861</ele>
        <time>2021-09-27T22:13:41Z</time>
      </trkpt>
      <trkpt lat="44.9925" lon="3.9207">
        <ele>679.596</ele>
        <time>2021-09-27T22:14:21Z</time>
      </trkpt>
      <trkpt lat="44.99243" lon="3.92068">
        <ele>680.068</ele>
        <time>2021-09-27T22:15:01Z</time>
      </trkpt>
      <trkpt lat="44.99238" lon="3.92067">
        <ele>680.436</ele>
        <time>2021-09-27T22:15:41Z</time>
      </trkpt>
      <trkpt lat="44.99234" lon="3.92067">
        <ele>680.859</ele>
        <time>2021-09-27T22:16:21Z</time>
      </trkpt>
      <trkpt lat="44.99226" lon="3.92065">
        <ele>681.491</ele>
        <time>2021-09-27T22:17:01Z</time>
      </trkpt>
      <trkpt lat="44.99217" lon="3.92063">
        <ele>682.361</ele>
        <time>2021-09-27T22:17:41Z</time>
      </trkpt>
      <trkpt lat="44.99209" lon="3.92061">
        <ele>683.339</ele>
        <time>2021-09-27T22:18:21Z</time>
      </trkpt>
      <trkpt lat="44.992" lon="3.92058">
        <ele>684.301</ele>
        <time>2021-09-27T22:19:01Z</time>
      </trkpt>
      <trkpt lat="44.99192" lon="3.92056">
        <ele>685.421</ele>
        <time>2021-09-27T22:19:41Z</time>
      </trkpt>
      <trkpt lat="44.99183" lon="3.92054">
        <ele>686.808</ele>
        <time>2021-09-27T22:20:21Z</time>
      </trkpt>
      <trkpt lat="44.99175" lon="3.9205">
        <ele>688.471</ele>
        <time>2021-09-27T22:21:01Z</time>
      </trkpt>
      <trkpt lat="44.99168" lon="3.92044">
        <ele>690.017</ele>
        <time>2021-09-27T22:21:41Z</time>
      </trkpt>
      <trkpt lat="44.99163" lon="3.92036">
        <ele>691.582</ele>
        <time>2021-09-27T22:22:21Z</time>
      </trkpt>
      <trkpt lat="44.9916" lon="3.9203">
        <ele>692.554</ele>
        <time>2021-09-27T22:23:01Z</time>
      </trkpt>
      <trkpt lat="44.99156" lon="3.92024">
        <ele>693.562</ele>
        <time>2021-09-27T22:23:41Z</time>
      </trkpt>
      <trkpt lat="44.99153" lon="3.92014">
        <ele>695.095</ele>
        <time>2021-09-27T22:24:21Z</time>
      </trkpt>
      <trkpt lat="44.99149" lon="3.92005">
        <ele>696.637</ele>
        <time>2021-09-27T22:25:01Z</time>
      </trkpt>
      <trkpt lat="44.99146" lon="3.91995">
        <ele>697.917</ele>
        <time>2021-09-27T22:25:41Z</time>
      </trkpt>
      <trkpt lat="44.99143" lon="3.91986">
        <ele>698.922</ele>
        <time>2021-09-27T22:26:21Z</time>
      </trkpt>
      <trkpt lat="44.99139" lon="3.91976">
        <ele>699.862</ele>
        <time>2021-09-27T22:27:01Z</time>
      </trkpt>
      <trkpt lat="44.99136" lon="3.91964">
        <ele>701.008</ele>
        <time>2021-09-27T22:27:41Z</time>
      </trkpt>
      <trkpt lat="44.99132" lon="3.91955">
        <ele>702.308</ele>
        <time>2021-09-27T22:28:21Z</time>
      </trkpt>
      <trkpt lat="44.99128" lon="3.9195">
        <ele>703.22</ele>
        <time>2021-09-27T22:29:01Z</time>
      </trkpt>
      <trkpt lat="44.99126" lon="3.91947">
        <ele>703.786</ele>
        <time>2021-09-27T22:29:41Z</time>
      </trkpt>
      <trkpt lat="44.9912" lon="3.9194">
        <ele>704.791</ele>
        <time>2021-09-27T22:30:21Z</time>
      </trkpt>
      <trkpt lat="44.99114" lon="3.91933">
        <ele>705.683</ele>
        <time>2021-09-27T22:31:01Z</time>
      </trkpt>
      <trkpt lat="44.99108" lon="3.91926">
        <ele>706.511</ele>
        <time>2021-09-27T22:31:41Z</time>
      </trkpt>
      <trkpt lat="44.99102" lon="3.91919">
        <ele>707.654</ele>
        <time>2021-09-27T22:32:21Z</time>
      </trkpt>
      <trkpt lat="44.99096" lon="3.91911">
        <ele>708.886</ele>
        <time>2021-09-27T22:33:01Z</time>
      </trkpt>
      <trkpt lat="44.9909" lon="3.91904">
        <ele>709.976</ele>
        <time>2021-09-27T22:33:41Z</time>
      </trkpt>
      <trkpt lat="44.99083" lon="3.91896">
        <ele>711.062</ele>
        <time>2021-09-27T22:34:21Z</time>
      </trkpt>
      <trkpt lat="44.99077" lon="3.91888">
        <ele>711.783</ele>
        <time>2021-09-27T22:35:01Z</time>
      </trkpt>
      <trkpt lat="44.99072" lon="3.91881">
        <ele>712.911</ele>
        <time>2021-09-27T22:35:41Z</time>
      </trkpt>
      <trkpt lat="44.99067" lon="3.91874">
        <ele>714.108</ele>
        <time>2021-09-27T22:36:21Z</time>
      </trkpt>
      <trkpt lat="44.99065" lon="3.91868">
        <ele>715.194</ele>
        <time>2021-09-27T22:37:01Z</time>
      </trkpt>
      <trkpt lat="44.99062" lon="3.91862">
        <ele>716.19</ele>
        <time>2021-09-27T22:37:41Z</time>
      </trkpt>
      <trkpt lat="44.9906" lon="3.91854">
        <ele>717.035</ele>
        <time>2021-09-27T22:38:21Z</time>
      </trkpt>
      <trkpt lat="44.99059" lon="3.91847">
        <ele>718.097</ele>
        <time>2021-09-27T22:39:01Z</time>
      </trkpt>
      <trkpt lat="44.99057" lon="3.91834">
        <ele>719.645</ele>
        <time>2021-09-27T22:39:41Z</time>
      </trkpt>
      <trkpt lat="44.99058" lon="3.91822">
        <ele>720.168</ele>
        <time>2021-09-27T22:40:21Z</time>
      </trkpt>
      <trkpt lat="44.99058" lon="3.9181">
        <ele>720.55</ele>
        <time>2021-09-27T22:41:01Z</time>
      </trkpt>
      <trkpt lat="44.99059" lon="3.91798">
        <ele>721.17</ele>
        <time>2021-09-27T22:41:41Z</time>
      </trkpt>
      <trkpt lat="44.99061" lon="3.91788">
        <ele>721.719</ele>
        <time>2021-09-27T22:42:21Z</time>
      </trkpt>
      <trkpt lat="44.99063" lon="3.91779">
        <ele>722.209</ele>
        <time>2021-09-27T22:43:01Z</time>
      </trkpt>
      <trkpt lat="44.99064" lon="3.91769">
        <ele>723.019</ele>
        <time>2021-09-27T22:43:41Z</time>
      </trkpt>
      <trkpt lat="44.99067" lon="3.91758">
        <ele>724.008</ele>
        <time>2021-09-27T22:44:21Z</time>
      </trkpt>
      <trkpt lat="44.99069" lon="3.91747">
        <ele>725.149</ele>
        <time>2021-09-27T22:45:01Z</time>
      </trkpt>
      <trkpt lat="44.99071" lon="3.91736">
        <ele>726.995</ele>
        <time>2021-09-27T22:45:41Z</time>
      </trkpt>
      <trkpt lat="44.99073" lon="3.91727">
        <ele>728.37</ele>
        <time>2021-09-27T22:46:21Z</time>
      </trkpt>
      <trkpt lat="44.99075" lon="3.91718">
        <ele>729.812</ele>
        <time>2021-09-27T22:47:01Z</time>
      </trkpt>
      <trkpt lat="44.99077" lon="3.91709">
        <ele>731.48</ele>
        <time>2021-09-27T22:47:41Z</time>
      </trkpt>
      <trkpt lat="44.99077" lon="3.91703">
        <ele>732.633</ele>
        <time>2021-09-27T22:48:21Z</time>
      </trkpt>
      <trkpt lat="44.99076" lon="3.91697">
        <ele>733.965</ele>
        <time>2021-09-27T22:49:01Z</time>
      </trkpt>
      <trkpt lat="44.99073" lon="3.91693">
        <ele>734.975</ele>
        <time>2021-09-27T22:49:41Z</time>
      </trkpt>
      <trkpt lat="44.99066" lon="3.91689">
        <ele>736.124</ele>
        <time>2021-09-27T22:50:21Z</time>
      </trkpt>
      <trkpt lat="44.99058" lon="3.91686">
        <ele>737.204</ele>
        <time>2021-09-27T22:51:01Z</time>
      </trkpt>
      <trkpt lat="44.9905" lon="3.91682">
        <ele>738.214</ele>
        <time>2021-09-27T22:51:41Z</time>
      </trkpt>
      <trkpt lat="44.99042" lon="3.91678">
        <ele>739.108</ele>
        <time>2021-09-27T22:52:21Z</time>
      </trkpt>
      <trkpt lat="44.99034" lon="3.91674">
        <ele>739.95</ele>
        <time>2021-09-27T22:53:01Z</time>
      </trkpt>
      <trkpt lat="44.99028" lon="3.9167">
        <ele>740.656</ele>
        <time>2021-09-27T22:53:41Z</time>
      </trkpt>
      <trkpt lat="44.99027" lon="3.91664">
        <ele>741.321</ele>
        <time>2021-09-27T22:54:21Z</time>
      </trkpt>
      <trkpt lat="44.99028" lon="3.91658">
        <ele>742.013</ele>
        <time>2021-09-27T22:55:01Z</time>
      </trkpt>
      <trkpt lat="44.99034" lon="3.9165">
        <ele>742.491</ele>
        <time>2021-09-27T22:55:41Z</time>
      </trkpt>
      <trkpt lat="44.9904" lon="3.91643">
        <ele>742.814</ele>
        <time>2021-09-27T22:56:21Z</time>
      </trkpt>
      <trkpt lat="44.99046" lon="3.91635">
        <ele>742.926</ele>
        <time>2021-09-27T22:57:01Z</time>
      </trkpt>
      <trkpt lat="44.99052" lon="3.91628">
        <ele>743.016</ele>
        <time>2021-09-27T22:57:41Z</time>
      </trkpt>
      <trkpt lat="44.99058" lon="3.9162">
        <ele>743.266</ele>
        <time>2021-09-27T22:58:21Z</time>
      </trkpt>
      <trkpt lat="44.99064" lon="3.91613">
        <ele>743.629</ele>
        <time>2021-09-27T22:59:01Z</time>
      </trkpt>
      <trkpt lat="44.99071" lon="3.91605">
        <ele>743.821</ele>
        <time>2021-09-27T22:59:41Z</time>
      </trkpt>
      <trkpt lat="44.99077" lon="3.91598">
        <ele>743.808</ele>
        <time>2021-09-27T23:00:21Z</time>
      </trkpt>
      <trkpt lat="44.99083" lon="3.9159">
        <ele>743.834</ele>
        <time>2021-09-27T23:01:01Z</time>
      </trkpt>
      <trkpt lat="44.99087" lon="3.91584">
        <ele>744.12</ele>
        <time>2021-09-27T23:01:41Z</time>
      </trkpt>
      <trkpt lat="44.99092" lon="3.91577">
        <ele>744.995</ele>
        <time>2021-09-27T23:02:21Z</time>
      </trkpt>
      <trkpt lat="44.99093" lon="3.91573">
        <ele>745.237</ele>
        <time>2021-09-27T23:03:01Z</time>
      </trkpt>
      <trkpt lat="44.99093" lon="3.91569">
        <ele>745.615</ele>
        <time>2021-09-27T23:03:41Z</time>
      </trkpt>
      <trkpt lat="44.99092" lon="3.91564">
        <ele>746.058</ele>
        <time>2021-09-27T23:04:21Z</time>
      </trkpt>
      <trkpt lat="44.99086" lon="3.9156">
        <ele>746.54</ele>
        <time>2021-09-27T23:05:01Z</time>
      </trkpt>
      <trkpt lat="44.99081" lon="3.91558">
        <ele>746.94</ele>
        <time>2021-09-27T23:05:41Z</time>
      </trkpt>
      <trkpt lat="44.99076" lon="3.91557">
        <ele>747.631</ele>
        <time>2021-09-27T23:06:21Z</time>
      </trkpt>
      <trkpt lat="44.99069" lon="3.91554">
        <ele>748.761</ele>
        <time>2021-09-27T23:07:01Z</time>
      </trkpt>
      <trkpt lat="44.99061" lon="3.91552">
        <ele>749.807</ele>
        <time>2021-09-27T23:07:41Z</time>
      </trkpt>
      <trkpt lat="44.99053" lon="3.9155">
        <ele>751.108</ele>
        <time>2021-09-27T23:08:21Z</time>
      </trkpt>
      <trkpt lat="44.99044" lon="3.91547">
        <ele>753.021</ele>
        <time>2021-09-27T23:09:01Z</time>
      </trkpt>
      <trkpt lat="44.99036" lon="3.91545">
        <ele>754.967</ele>
        <time>2021-09-27T23:09:41Z</time>
      </trkpt>
      <trkpt lat="44.99027" lon="3.91543">
        <ele>756.822</ele>
        <time>2021-09-27T23:10:21Z</time>
      </trkpt>
      <trkpt lat="44.99019" lon="3.91541">
        <ele>757.744</ele>
        <time>2021-09-27T23:11:01Z</time>
      </trkpt>
      <trkpt lat="44.99011" lon="3.91539">
        <ele>758.662</ele>
        <time>2021-09-27T23:11:41Z</time>
      </trkpt>
      <trkpt lat="44.99005" lon="3.91536">
        <ele>759.555</ele>
        <time>2021-09-27T23:12:21Z</time>
      </trkpt>
      <trkpt lat="44.98999" lon="3.91533">
        <ele>760.317</ele>
        <time>2021-09-27T23:13:01Z</time>
      </trkpt>
      <trkpt lat="44.98991" lon="3.91528">
        <ele>761.667</ele>
        <time>2021-09-27T23:13:41Z</time>
      </trkpt>
      <trkpt lat="44.98984" lon="3.91523">
        <ele>762.738</ele>
        <time>2021-09-27T23:14:21Z</time>
      </trkpt>
      <trkpt lat="44.98979" lon="3.91518">
        <ele>763.87</ele>
        <time>2021-09-27T23:15:01Z</time>
      </trkpt>
      <trkpt lat="44.98974" lon="3.91513">
        <ele>765.017</ele>
        <time>2021-09-27T23:15:41Z</time>
      </trkpt>
      <trkpt lat="44.98969" lon="3.91505">
        <ele>767.108</ele>
        <time>2021-09-27T23:16:21Z</time>
      </trkpt>
      <trkpt lat="44.98965" lon="3.91497">
        <ele>768.981</ele>
        <time>2021-09-27T23:17:01Z</time>
      </trkpt>
      <trkpt lat="44.98961" lon="3.91488">
        <ele>770.217</ele>
        <time>2021-09-27T23:17:41Z</time>
      </trkpt>
      <trkpt lat="44.98957" lon="3.91479">
        <ele>771.662</ele>
        <time>2021-09-27T23:18:21Z</time>
      </trkpt>
      <trkpt lat="44.98954" lon="3.9147">
        <ele>773.054</ele>
        <time>2021-09-27T23:19:01Z</time>
      </trkpt>
      <trkpt lat="44.9895" lon="3.91462">
        <ele>773.852</ele>
        <time>2021-09-27T23:19:41Z</time>
      </trkpt>
      <trkpt lat="44.98946" lon="3.91454">
        <ele>774.385</ele>
        <time>2021-09-27T23:20:21Z</time>
      </trkpt>
      <trkpt lat="44.98942" lon="3.91446">
        <ele>774.637</ele>
        <time>2021-09-27T23:21:01Z</time>
      </trkpt>
      <trkpt lat="44.98936" lon="3.91436">
        <ele>775.477</ele>
        <time>2021-09-27T23:21:41Z</time>
      </trkpt>
      <trkpt lat="44.9893" lon="3.91426">
        <ele>776.254</ele>
        <time>2021-09-27T23:22:21Z</time>
      </trkpt>
      <trkpt lat="44.98924" lon="3.91416">
        <ele>777.056</ele>
        <time>2021-09-27T23:23:01Z</time>
      </trkpt>
      <trkpt lat="44.98918" lon="3.91407">
        <ele>776.811</ele>
        <time>2021-09-27T23:23:41Z</time>
      </trkpt>
      <trkpt lat="44.98912" lon="3.91399">
        <ele>776.508</ele>
        <time>2021-09-27T23:24:21Z</time>
      </trkpt>
      <trkpt lat="44.98906" lon="3.91391">
        <ele>776.213</ele>
        <time>2021-09-27T23:25:01Z</time>
      </trkpt>
      <trkpt lat="44.989" lon="3.91383">
        <ele>776.039</ele>
        <time>2021-09-27T23:25:41Z</time>
      </trkpt>
      <trkpt lat="44.98894" lon="3.91377">
        <ele>775.974</ele>
        <time>2021-09-27T23:26:21Z</time>
      </trkpt>
      <trkpt lat="44.98888" lon="3.91371">
        <ele>775.886</ele>
        <time>2021-09-27T23:27:01Z</time>
      </trkpt>
      <trkpt lat="44.98883" lon="3.91365">
        <ele>775.524</ele>
        <time>2021-09-27T23:27:41Z</time>
      </trkpt>
      <trkpt lat="44.98878" lon="3.91361">
        <ele>775.567</ele>
        <time>2021-09-27T23:28:21Z</time>
      </trkpt>
      <trkpt lat="44.98874" lon="3.91357">
        <ele>775.479</ele>
        <time>2021-09-27T23:29:01Z</time>
      </trkpt>
      <trkpt lat="44.98867" lon="3.91353">
        <ele>775.719</ele>
        <time>2021-09-27T23:29:41Z</time>
      </trkpt>
      <trkpt lat="44.9886" lon="3.91349">
        <ele>775.976</ele>
        <time>2021-09-27T23:30:21Z</time>
      </trkpt>
      <trkpt lat="44.98851" lon="3.91347">
        <ele>776.69</ele>
        <time>2021-09-27T23:31:01Z</time>
      </trkpt>
      <trkpt lat="44.98842" lon="3.91344">
        <ele>777.219</ele>
        <time>2021-09-27T23:31:41Z</time>
      </trkpt>
      <trkpt lat="44.98835" lon="3.91343">
        <ele>777.708</ele>
        <time>2021-09-27T23:32:21Z</time>
      </trkpt>
      <trkpt lat="44.98828" lon="3.91342">
        <ele>778.525</ele>
        <time>2021-09-27T23:33:01Z</time>
      </trkpt>
      <trkpt lat="44.9882" lon="3.91341">
        <ele>779.491</ele>
        <time>2021-09-27T23:33:41Z</time>
      </trkpt>
      <trkpt lat="44.98815" lon="3.91341">
        <ele>780.336</ele>
        <time>2021-09-27T23:34:21Z</time>
      </trkpt>
      <trkpt lat="44.98809" lon="3.91341">
        <ele>781.268</ele>
        <time>2021-09-27T23:35:01Z</time>
      </trkpt>
      <trkpt lat="44.98804" lon="3.91342">
        <ele>782.196</ele>
        <time>2021-09-27T23:35:41Z</time>
      </trkpt>
      <trkpt lat="44.98799" lon="3.91343">
        <ele>782.459</ele>
        <time>2021-09-27T23:36:21Z</time>
      </trkpt>
      <trkpt lat="44.98792" lon="3.91346">
        <ele>783.111</ele>
        <time>2021-09-27T23:37:01Z</time>
      </trkpt>
      <trkpt lat="44.98786" lon="3.9135">
        <ele>783.731</ele>
        <time>2021-09-27T23:37:41Z</time>
      </trkpt>
      <trkpt lat="44.9878" lon="3.91353">
        <ele>784.366</ele>
        <time>2021-09-27T23:38:21Z</time>
      </trkpt>
      <trkpt lat="44.98772" lon="3.91355">
        <ele>784.629</ele>
        <time>2021-09-27T23:39:01Z</time>
      </trkpt>
      <trkpt lat="44.98765" lon="3.91358">
        <ele>784.821</ele>
        <time>2021-09-27T23:39:41Z</time>
      </trkpt>
      <trkpt lat="44.98758" lon="3.9136">
        <ele>785.108</ele>
        <time>2021-09-27T23:40:21Z</time>
      </trkpt>
      <trkpt lat="44.98749" lon="3.91363">
        <ele>785.584</ele>
        <time>2021-09-27T23:41:01Z</time>
      </trkpt>
      <trkpt lat="44.9874" lon="3.91367">
        <ele>786.87</ele>
        <time>2021-09-27T23:41:41Z</time>
      </trkpt>
      <trkpt lat="44.98731" lon="3.9137">
        <ele>787.835</ele>
        <time>2021-09-27T23:42:21Z</time>
      </trkpt>
      <trkpt lat="44.98722" lon="3.91373">
        <ele>788.737</ele>
        <time>2021-09-27T23:43:01Z</time>
      </trkpt>
      <trkpt lat="44.98713" lon="3.91376">
        <ele>789.095</ele>
        <time>2021-09-27T23:43:41Z</time>
      </trkpt>
      <trkpt lat="44.98706" lon="3.91379">
        <ele>789.188</ele>
        <time>2021-09-27T23:44:21Z</time>
      </trkpt>
      <trkpt lat="44.98699" lon="3.91381">
        <ele>789.25</ele>
        <time>2021-09-27T23:45:01Z</time>
      </trkpt>
      <trkpt lat="44.98691" lon="3.91382">
        <ele>789.45</ele>
        <time>2021-09-27T23:45:41Z</time>
      </trkpt>
      <trkpt lat="44.98684" lon="3.91382">
        <ele>789.875</ele>
        <time>2021-09-27T23:46:21Z</time>
      </trkpt>
      <trkpt lat="44.98678" lon="3.91381">
        <ele>790.128</ele>
        <time>2021-09-27T23:47:01Z</time>
      </trkpt>
      <trkpt lat="44.98671" lon="3.9138">
        <ele>790.42</ele>
        <time>2021-09-27T23:47:41Z</time>
      </trkpt>
      <trkpt lat="44.98664" lon="3.91379">
        <ele>791.108</ele>
        <time>2021-09-27T23:48:21Z</time>
      </trkpt>
      <trkpt lat="44.98658" lon="3.91379">
        <ele>792.285</ele>
        <time>2021-09-27T23:49:01Z</time>
      </trkpt>
      <trkpt lat="44.98652" lon="3.9138">
        <ele>793.221</ele>
        <time>2021-09-27T23:49:41Z</time>
      </trkpt>
      <trkpt lat="44.98647" lon="3.91381">
        <ele>794.246</ele>
        <time>2021-09-27T23:50:21Z</time>
      </trkpt>
      <trkpt lat="44.98642" lon="3.91383">
        <ele>795.288</ele>
        <time>2021-09-27T23:51:01Z</time>
      </trkpt>
      <trkpt lat="44.98633" lon="3.91383">
        <ele>796.896</ele>
        <time>2021-09-27T23:51:41Z</time>
      </trkpt>
      <trkpt lat="44.98627" lon="3.91383">
        <ele>797.949</ele>
        <time>2021-09-27T23:52:21Z</time>
      </trkpt>
      <trkpt lat="44.98622" lon="3.91382">
        <ele>798.971</ele>
        <time>2021-09-27T23:53:01Z</time>
      </trkpt>
      <trkpt lat="44.98617" lon="3.91383">
        <ele>799.881</ele>
        <time>2021-09-27T23:53:41Z</time>
      </trkpt>
      <trkpt lat="44.98612" lon="3.91383">
        <ele>800.747</ele>
        <time>2021-09-27T23:54:21Z</time>
      </trkpt>
      <trkpt lat="44.98604" lon="3.91385">
        <ele>801.329</ele>
        <time>2021-09-27T23:55:01Z</time>
      </trkpt>
      <trkpt lat="44.98599" lon="3.91388">
        <ele>801.821</ele>
        <time>2021-09-27T23:55:41Z</time>
      </trkpt>
      <trkpt lat="44.98594" lon="3.91391">
        <ele>802.308</ele>
        <time>2021-09-27T23:56:21Z</time>
      </trkpt>
      <trkpt lat="44.98588" lon="3.91394">
        <ele>802.872</ele>
        <time>2021-09-27T23:57:01Z</time>
      </trkpt>
      <trkpt lat="44.98583" lon="3.91398">
        <ele>803.478</ele>
        <time>2021-09-27T23:57:41Z</time>
      </trkpt>
      <trkpt lat="44.98577" lon="3.91401">
        <ele>803.763</ele>
        <time>2021-09-27T23:58:21Z</time>
      </trkpt>
      <trkpt lat="44.9857" lon="3.91408">
        <ele>804.235</ele>
        <time>2021-09-27T23:59:01Z</time>
      </trkpt>
      <trkpt lat="44.98562" lon="3.91414">
        <ele>804.683</ele>
        <time>2021-09-27T23:59:41Z</time>
      </trkpt>
      <trkpt lat="44.98555" lon="3.9142">
        <ele>805.216</ele>
        <time>2021-09-28T00:00:21Z</time>
      </trkpt>
      <trkpt lat="44.98548" lon="3.91426">
        <ele>806.468</ele>
        <time>2021-09-28T00:01:01Z</time>
      </trkpt>
      <trkpt lat="44.98541" lon="3.91432">
        <ele>807.748</ele>
        <time>2021-09-28T00:01:41Z</time>
      </trkpt>
      <trkpt lat="44.98534" lon="3.91437">
        <ele>808.862</ele>
        <time>2021-09-28T00:02:21Z</time>
      </trkpt>
      <trkpt lat="44.98528" lon="3.91443">
        <ele>809.983</ele>
        <time>2021-09-28T00:03:01Z</time>
      </trkpt>
      <trkpt lat="44.98521" lon="3.91445">
        <ele>810.511</ele>
        <time>2021-09-28T00:03:41Z</time>
      </trkpt>
      <trkpt lat="44.98515" lon="3.91447">
        <ele>810.808</ele>
        <time>2021-09-28T00:04:21Z</time>
      </trkpt>
      <trkpt lat="44.98511" lon="3.91446">
        <ele>811.134</ele>
        <time>2021-09-28T00:05:01Z</time>
      </trkpt>
      <trkpt lat="44.98507" lon="3.91443">
        <ele>811.59</ele>
        <time>2021-09-28T00:05:41Z</time>
      </trkpt>
      <trkpt lat="44.98505" lon="3.91437">
        <ele>811.665</ele>
        <time>2021-09-28T00:06:21Z</time>
      </trkpt>
      <trkpt lat="44.98504" lon="3.91435">
        <ele>811.777</ele>
        <time>2021-09-28T00:07:01Z</time>
      </trkpt>
      <trkpt lat="44.98503" lon="3.91433">
        <ele>811.845</ele>
        <time>2021-09-28T00:07:41Z</time>
      </trkpt>
      <trkpt lat="44.98498" lon="3.91426">
        <ele>812.028</ele>
        <time>2021-09-28T00:08:21Z</time>
      </trkpt>
      <trkpt lat="44.98491" lon="3.91418">
        <ele>812.05</ele>
        <time>2021-09-28T00:09:01Z</time>
      </trkpt>
      <trkpt lat="44.98484" lon="3.9141">
        <ele>811.78</ele>
        <time>2021-09-28T00:09:41Z</time>
      </trkpt>
      <trkpt lat="44.98477" lon="3.91402">
        <ele>811.566</ele>
        <time>2021-09-28T00:10:21Z</time>
      </trkpt>
      <trkpt lat="44.9847" lon="3.91394">
        <ele>811.129</ele>
        <time>2021-09-28T00:11:01Z</time>
      </trkpt>
      <trkpt lat="44.98463" lon="3.91386">
        <ele>810.521</ele>
        <time>2021-09-28T00:11:41Z</time>
      </trkpt>
      <trkpt lat="44.98456" lon="3.91378">
        <ele>809.608</ele>
        <time>2021-09-28T00:12:21Z</time>
      </trkpt>
      <trkpt lat="44.9845" lon="3.91372">
        <ele>809.064</ele>
        <time>2021-09-28T00:13:01Z</time>
      </trkpt>
      <trkpt lat="44.98444" lon="3.91365">
        <ele>808.34</ele>
        <time>2021-09-28T00:13:41Z</time>
      </trkpt>
      <trkpt lat="44.98438" lon="3.91359">
        <ele>808.045</ele>
        <time>2021-09-28T00:14:21Z</time>
      </trkpt>
      <trkpt lat="44.98433" lon="3.91353">
        <ele>808.057</ele>
        <time>2021-09-28T00:15:01Z</time>
      </trkpt>
      <trkpt lat="44.98428" lon="3.91347">
        <ele>808.095</ele>
        <time>2021-09-28T00:15:41Z</time>
      </trkpt>
      <trkpt lat="44.98422" lon="3.91353">
        <ele>808.048</ele>
        <time>2021-09-28T00:16:21Z</time>
      </trkpt>
      <trkpt lat="44.98417" lon="3.9136">
        <ele>808.04</ele>
        <time>2021-09-28T00:17:01Z</time>
      </trkpt>
      <trkpt lat="44.98413" lon="3.91368">
        <ele>808.21</ele>
        <time>2021-09-28T00:17:41Z</time>
      </trkpt>
      <trkpt lat="44.98409" lon="3.91375">
        <ele>808.588</ele>
        <time>2021-09-28T00:18:21Z</time>
      </trkpt>
      <trkpt lat="44.98407" lon="3.91384">
        <ele>808.824</ele>
        <time>2021-09-28T00:19:01Z</time>
      </trkpt>
      <trkpt lat="44.98406" lon="3.91392">
        <ele>809.126</ele>
        <time>2021-09-28T00:19:41Z</time>
      </trkpt>
      <trkpt lat="44.98405" lon="3.91399">
        <ele>809.408</ele>
        <time>2021-09-28T00:20:21Z</time>
      </trkpt>
      <trkpt lat="44.98406" lon="3.91405">
        <ele>809.626</ele>
        <time>2021-09-28T00:21:01Z</time>
      </trkpt>
      <trkpt lat="44.98406" lon="3.91412">
        <ele>809.842</ele>
        <time>2021-09-28T00:21:41Z</time>
      </trkpt>
      <trkpt lat="44.98405" lon="3.9142">
        <ele>810.277</ele>
        <time>2021-09-28T00:22:21Z</time>
      </trkpt>
      <trkpt lat="44.98404" lon="3.91429">
        <ele>810.529</ele>
        <time>2021-09-28T00:23:01Z</time>
      </trkpt>
      <trkpt lat="44.98403" lon="3.91438">
        <ele>810.857</ele>
        <time>2021-09-28T00:23:41Z</time>
      </trkpt>
      <trkpt lat="44.98404" lon="3.91444">
        <ele>811.14</ele>
        <time>2021-09-28T00:24:21Z</time>
      </trkpt>
      <trkpt lat="44.98405" lon="3.91453">
        <ele>811.332</ele>
        <time>2021-09-28T00:25:01Z</time>
      </trkpt>
      <trkpt lat="44.98406" lon="3.91463">
        <ele>811.562</ele>
        <time>2021-09-28T00:25:41Z</time>
      </trkpt>
      <trkpt lat="44.98407" lon="3.91472">
        <ele>811.616</ele>
        <time>2021-09-28T00:26:21Z</time>
      </trkpt>
      <trkpt lat="44.98407" lon="3.91481">
        <ele>812.076</ele>
        <time>2021-09-28T00:27:01Z</time>
      </trkpt>
      <trkpt lat="44.98406" lon="3.91491">
        <ele>812.313</ele>
        <time>2021-09-28T00:27:41Z</time>
      </trkpt>
      <trkpt lat="44.98404" lon="3.91499">
        <ele>812.508</ele>
        <time>2021-09-28T00:28:21Z</time>
      </trkpt>
      <trkpt lat="44.98401" lon="3.91508">
        <ele>812.789</ele>
        <time>2021-09-28T00:29:01Z</time>
      </trkpt>
      <trkpt lat="44.98398" lon="3.91516">
        <ele>812.925</ele>
        <time>2021-09-28T00:29:41Z</time>
      </trkpt>
      <trkpt lat="44.98396" lon="3.91525">
        <ele>813.15</ele>
        <time>2021-09-28T00:30:21Z</time>
      </trkpt>
      <trkpt lat="44.98393" lon="3.91531">
        <ele>813.342</ele>
        <time>2021-09-28T00:31:01Z</time>
      </trkpt>
      <trkpt lat="44.9839" lon="3.91536">
        <ele>813.68</ele>
        <time>2021-09-28T00:31:41Z</time>
      </trkpt>
      <trkpt lat="44.98386" lon="3.91544">
        <ele>814.433</ele>
        <time>2021-09-28T00:32:21Z</time>
      </trkpt>
      <trkpt lat="44.98381" lon="3.91552">
        <ele>815.165</ele>
        <time>2021-09-28T00:33:01Z</time>
      </trkpt>
      <trkpt lat="44.98377" lon="3.91559">
        <ele>815.445</ele>
        <time>2021-09-28T00:33:41Z</time>
      </trkpt>
      <trkpt lat="44.98372" lon="3.91567">
        <ele>815.691</ele>
        <time>2021-09-28T00:34:21Z</time>
      </trkpt>
      <trkpt lat="44.98367" lon="3.91575">
        <ele>815.881</ele>
        <time>2021-09-28T00:35:01Z</time>
      </trkpt>
      <trkpt lat="44.98361" lon="3.91583">
        <ele>816.019</ele>
        <time>2021-09-28T00:35:41Z</time>
      </trkpt>
      <trkpt lat="44.98355" lon="3.91589">
        <ele>816.008</ele>
        <time>2021-09-28T00:36:21Z</time>
      </trkpt>
      <trkpt lat="44.9835" lon="3.91595">
        <ele>816.047</ele>
        <time>2021-09-28T00:37:01Z</time>
      </trkpt>
      <trkpt lat="44.98344" lon="3.91601">
        <ele>816.033</ele>
        <time>2021-09-28T00:37:41Z</time>
      </trkpt>
      <trkpt lat="44.98338" lon="3.91608">
        <ele>816.098</ele>
        <time>2021-09-28T00:38:21Z</time>
      </trkpt>
      <trkpt lat="44.98333" lon="3.91614">
        <ele>816.29</ele>
        <time>2021-09-28T00:39:01Z</time>
      </trkpt>
      <trkpt lat="44.98327" lon="3.91621">
        <ele>816.768</ele>
        <time>2021-09-28T00:39:41Z</time>
      </trkpt>
      <trkpt lat="44.98322" lon="3.91628">
        <ele>817.221</ele>
        <time>2021-09-28T00:40:21Z</time>
      </trkpt>
      <trkpt lat="44.98316" lon="3.91635">
        <ele>817.633</ele>
        <time>2021-09-28T00:41:01Z</time>
      </trkpt>
      <trkpt lat="44.98311" lon="3.91642">
        <ele>817.823</ele>
        <time>2021-09-28T00:41:41Z</time>
      </trkpt>
      <trkpt lat="44.98305" lon="3.91649">
        <ele>818.095</ele>
        <time>2021-09-28T00:42:21Z</time>
      </trkpt>
      <trkpt lat="44.983" lon="3.91657">
        <ele>818.749</ele>
        <time>2021-09-28T00:43:01Z</time>
      </trkpt>
      <trkpt lat="44.98294" lon="3.91664">
        <ele>819.323</ele>
        <time>2021-09-28T00:43:41Z</time>
      </trkpt>
      <trkpt lat="44.98289" lon="3.91671">
        <ele>819.908</ele>
        <time>2021-09-28T00:44:21Z</time>
      </trkpt>
      <trkpt lat="44.98284" lon="3.91679">
        <ele>820.587</ele>
        <time>2021-09-28T00:45:01Z</time>
      </trkpt>
      <trkpt lat="44.98278" lon="3.91684">
        <ele>821.033</ele>
        <time>2021-09-28T00:45:41Z</time>
      </trkpt>
      <trkpt lat="44.98273" lon="3.9169">
        <ele>821.778</ele>
        <time>2021-09-28T00:46:21Z</time>
      </trkpt>
      <trkpt lat="44.98267" lon="3.91695">
        <ele>822.68</ele>
        <time>2021-09-28T00:47:01Z</time>
      </trkpt>
      <trkpt lat="44.98263" lon="3.91696">
        <ele>823.398</ele>
        <time>2021-09-28T00:47:41Z</time>
      </trkpt>
      <trkpt lat="44.98259" lon="3.91698">
        <ele>823.991</ele>
        <time>2021-09-28T00:48:21Z</time>
      </trkpt>
      <trkpt lat="44.98254" lon="3.917">
        <ele>824.853</ele>
        <time>2021-09-28T00:49:01Z</time>
      </trkpt>
      <trkpt lat="44.98248" lon="3.91701">
        <ele>825.893</ele>
        <time>2021-09-28T00:49:41Z</time>
      </trkpt>
      <trkpt lat="44.98242" lon="3.917">
        <ele>826.794</ele>
        <time>2021-09-28T00:50:21Z</time>
      </trkpt>
      <trkpt lat="44.98238" lon="3.91698">
        <ele>827.157</ele>
        <time>2021-09-28T00:51:01Z</time>
      </trkpt>
      <trkpt lat="44.98234" lon="3.91695">
        <ele>827.422</ele>
        <time>2021-09-28T00:51:41Z</time>
      </trkpt>
      <trkpt lat="44.9823" lon="3.91693">
        <ele>828.008</ele>
        <time>2021-09-28T00:52:21Z</time>
      </trkpt>
      <trkpt lat="44.98226" lon="3.9169">
        <ele>828.787</ele>
        <time>2021-09-28T00:53:01Z</time>
      </trkpt>
      <trkpt lat="44.98219" lon="3.91687">
        <ele>829.963</ele>
        <time>2021-09-28T00:53:41Z</time>
      </trkpt>
      <trkpt lat="44.98213" lon="3.91684">
        <ele>831.098</ele>
        <time>2021-09-28T00:54:21Z</time>
      </trkpt>
      <trkpt lat="44.98206" lon="3.91683">
        <ele>831.93</ele>
        <time>2021-09-28T00:55:01Z</time>
      </trkpt>
      <trkpt lat="44.98199" lon="3.91682">
        <ele>832.938</ele>
        <time>2021-09-28T00:55:41Z</time>
      </trkpt>
      <trkpt lat="44.98193" lon="3.91683">
        <ele>833.441</ele>
        <time>2021-09-28T00:56:21Z</time>
      </trkpt>
      <trkpt lat="44.98188" lon="3.91684">
        <ele>833.453</ele>
        <time>2021-09-28T00:57:01Z</time>
      </trkpt>
      <trkpt lat="44.98183" lon="3.91686">
        <ele>833.353</ele>
        <time>2021-09-28T00:57:41Z</time>
      </trkpt>
      <trkpt lat="44.98179" lon="3.91688">
        <ele>833.229</ele>
        <time>2021-09-28T00:58:21Z</time>
      </trkpt>
      <trkpt lat="44.98175" lon="3.9169">
        <ele>833.2</ele>
        <time>2021-09-28T00:59:01Z</time>
      </trkpt>
      <trkpt lat="44.98171" lon="3.91693">
        <ele>833.12</ele>
        <time>2021-09-28T00:59:41Z</time>
      </trkpt>
      <trkpt lat="44.98167" lon="3.91698">
        <ele>833.308</ele>
        <time>2021-09-28T01:00:21Z</time>
      </trkpt>
      <trkpt lat="44.98163" lon="3.91704">
        <ele>834.21</ele>
        <time>2021-09-28T01:01:01Z</time>
      </trkpt>
      <trkpt lat="44.98159" lon="3.91711">
        <ele>835.126</ele>
        <time>2021-09-28T01:01:41Z</time>
      </trkpt>
      <trkpt lat="44.98156" lon="3.91718">
        <ele>836.011</ele>
        <time>2021-09-28T01:02:21Z</time>
      </trkpt>
      <trkpt lat="44.98153" lon="3.91727">
        <ele>836.873</ele>
        <time>2021-09-28T01:03:01Z</time>
      </trkpt>
      <trkpt lat="44.9815" lon="3.91736">
        <ele>837.551</ele>
        <time>2021-09-28T01:03:41Z</time>
      </trkpt>
      <trkpt lat="44.98147" lon="3.91744">
        <ele>838.124</ele>
        <time>2021-09-28T01:04:21Z</time>
      </trkpt>
      <trkpt lat="44.98145" lon="3.91753">
        <ele>838.756</ele>
        <time>2021-09-28T01:05:01Z</time>
      </trkpt>
      <trkpt lat="44.98144" lon="3.91758">
        <ele>838.916</ele>
        <time>2021-09-28T01:05:41Z</time>
      </trkpt>
      <trkpt lat="44.98143" lon="3.91764">
        <ele>839.288</ele>
        <time>2021-09-28T01:06:21Z</time>
      </trkpt>
      <trkpt lat="44.98142" lon="3.9177">
        <ele>839.524</ele>
        <time>2021-09-28T01:07:01Z</time>
      </trkpt>
      <trkpt lat="44.98141" lon="3.91778">
        <ele>839.826</ele>
        <time>2021-09-28T01:07:41Z</time>
      </trkpt>
      <trkpt lat="44.98141" lon="3.91787">
        <ele>839.908</ele>
        <time>2021-09-28T01:08:21Z</time>
      </trkpt>
      <trkpt lat="44.98142" lon="3.91798">
        <ele>839.876</ele>
        <time>2021-09-28T01:09:01Z</time>
      </trkpt>
      <trkpt lat="44.98143" lon="3.91809">
        <ele>839.722</ele>
        <time>2021-09-28T01:09:41Z</time>
      </trkpt>
      <trkpt lat="44.98144" lon="3.91817">
        <ele>839.767</ele>
        <time>2021-09-28T01:10:21Z</time>
      </trkpt>
      <trkpt lat="44.98144" lon="3.91825">
        <ele>839.699</ele>
        <time>2021-09-28T01:11:01Z</time>
      </trkpt>
      <trkpt lat="44.98145" lon="3.91834">
        <ele>839.687</ele>
        <time>2021-09-28T01:11:41Z</time>
      </trkpt>
      <trkpt lat="44.98145" lon="3.91842">
        <ele>840.14</ele>
        <time>2021-09-28T01:12:21Z</time>
      </trkpt>
      <trkpt lat="44.98143" lon="3.91847">
        <ele>840.692</ele>
        <time>2021-09-28T01:13:01Z</time>
      </trkpt>
      <trkpt lat="44.98142" lon="3.91852">
        <ele>841.062</ele>
        <time>2021-09-28T01:13:41Z</time>
      </trkpt>
      <trkpt lat="44.98139" lon="3.91859">
        <ele>841.935</ele>
        <time>2021-09-28T01:14:21Z</time>
      </trkpt>
      <trkpt lat="44.98135" lon="3.91866">
        <ele>842.486</ele>
        <time>2021-09-28T01:15:01Z</time>
      </trkpt>
      <trkpt lat="44.98131" lon="3.91873">
        <ele>843.214</ele>
        <time>2021-09-28T01:15:41Z</time>
      </trkpt>
      <trkpt lat="44.98126" lon="3.91881">
        <ele>843.908</ele>
        <time>2021-09-28T01:16:21Z</time>
      </trkpt>
      <trkpt lat="44.98121" lon="3.91888">
        <ele>844.831</ele>
        <time>2021-09-28T01:17:01Z</time>
      </trkpt>
      <trkpt lat="44.98117" lon="3.91895">
        <ele>845.667</ele>
        <time>2021-09-28T01:17:41Z</time>
      </trkpt>
      <trkpt lat="44.98112" lon="3.91903">
        <ele>846.432</ele>
        <time>2021-09-28T01:18:21Z</time>
      </trkpt>
      <trkpt lat="44.98107" lon="3.9191">
        <ele>846.924</ele>
        <time>2021-09-28T01:19:01Z</time>
      </trkpt>
      <trkpt lat="44.98103" lon="3.91918">
        <ele>847.332</ele>
        <time>2021-09-28T01:19:41Z</time>
      </trkpt>
      <trkpt lat="44.98098" lon="3.91925">
        <ele>847.675</ele>
        <time>2021-09-28T01:20:21Z</time>
      </trkpt>
      <trkpt lat="44.98093" lon="3.91932">
        <ele>847.827</ele>
        <time>2021-09-28T01:21:01Z</time>
      </trkpt>
      <trkpt lat="44.98089" lon="3.91939">
        <ele>848.067</ele>
        <time>2021-09-28T01:21:41Z</time>
      </trkpt>
      <trkpt lat="44.98084" lon="3.91946">
        <ele>848.045</ele>
        <time>2021-09-28T01:22:21Z</time>
      </trkpt>
      <trkpt lat="44.98079" lon="3.91953">
        <ele>848.147</ele>
        <time>2021-09-28T01:23:01Z</time>
      </trkpt>
      <trkpt lat="44.98074" lon="3.91961">
        <ele>848.111</ele>
        <time>2021-09-28T01:23:41Z</time>
      </trkpt>
      <trkpt lat="44.98069" lon="3.91968">
        <ele>848.108</ele>
        <time>2021-09-28T01:24:21Z</time>
      </trkpt>
      <trkpt lat="44.98064" lon="3.91976">
        <ele>848.152</ele>
        <time>2021-09-28T01:25:01Z</time>
      </trkpt>
      <trkpt lat="44.98059" lon="3.91985">
        <ele>848.398</ele>
        <time>2021-09-28T01:25:41Z</time>
      </trkpt>
      <trkpt lat="44.98054" lon="3.91993">
        <ele>848.983</ele>
        <time>2021-09-28T01:26:21Z</time>
      </trkpt>
      <trkpt lat="44.98049" lon="3.92002">
        <ele>849.565</ele>
        <time>2021-09-28T01:27:01Z</time>
      </trkpt>
      <trkpt lat="44.98045" lon="3.92009">
        <ele>849.853</ele>
        <time>2021-09-28T01:27:41Z</time>
      </trkpt>
      <trkpt lat="44.9804" lon="3.92017">
        <ele>850.176</ele>
        <time>2021-09-28T01:28:21Z</time>
      </trkpt>
      <trkpt lat="44.98036" lon="3.92025">
        <ele>850.498</ele>
        <time>2021-09-28T01:29:01Z</time>
      </trkpt>
      <trkpt lat="44.98031" lon="3.92033">
        <ele>850.668</ele>
        <time>2021-09-28T01:29:41Z</time>
      </trkpt>
      <trkpt lat="44.98026" lon="3.9204">
        <ele>850.666</ele>
        <time>2021-09-28T01:30:21Z</time>
      </trkpt>
      <trkpt lat="44.98022" lon="3.92048">
        <ele>850.829</ele>
        <time>2021-09-28T01:31:01Z</time>
      </trkpt>
      <trkpt lat="44.98018" lon="3.92055">
        <ele>851.121</ele>
        <time>2021-09-28T01:31:41Z</time>
      </trkpt>
      <trkpt lat="44.98013" lon="3.92062">
        <ele>851.808</ele>
        <time>2021-09-28T01:32:21Z</time>
      </trkpt>
      <trkpt lat="44.98009" lon="3.92069">
        <ele>852.514</ele>
        <time>2021-09-28T01:33:01Z</time>
      </trkpt>
      <trkpt lat="44.98005" lon="3.92076">
        <ele>853.27</ele>
        <time>2021-09-28T01:33:41Z</time>
      </trkpt>
      <trkpt lat="44.98001" lon="3.92082">
        <ele>853.985</ele>
        <time>2021-09-28T01:34:21Z</time>
      </trkpt>
      <trkpt lat="44.97996" lon="3.9209">
        <ele>854.797</ele>
        <time>2021-09-28T01:35:01Z</time>
      </trkpt>
      <trkpt lat="44.97991" lon="3.92097">
        <ele>855.485</ele>
        <time>2021-09-28T01:35:41Z</time>
      </trkpt>
      <trkpt lat="44.97986" lon="3.92104">
        <ele>856.298</ele>
        <time>2021-09-28T01:36:21Z</time>
      </trkpt>
      <trkpt lat="44.97982" lon="3.92109">
        <ele>856.91</ele>
        <time>2021-09-28T01:37:01Z</time>
      </trkpt>
      <trkpt lat="44.97978" lon="3.92115">
        <ele>857.33</ele>
        <time>2021-09-28T01:37:41Z</time>
      </trkpt>
      <trkpt lat="44.97974" lon="3.92121">
        <ele>857.542</ele>
        <time>2021-09-28T01:38:21Z</time>
      </trkpt>
      <trkpt lat="44.97969" lon="3.92127">
        <ele>857.522</ele>
        <time>2021-09-28T01:39:01Z</time>
      </trkpt>
      <trkpt lat="44.97965" lon="3.92133">
        <ele>857.514</ele>
        <time>2021-09-28T01:39:41Z</time>
      </trkpt>
      <trkpt lat="44.97961" lon="3.92139">
        <ele>857.408</ele>
        <time>2021-09-28T01:40:21Z</time>
      </trkpt>
      <trkpt lat="44.97956" lon="3.92145">
        <ele>857.732</ele>
        <time>2021-09-28T01:41:01Z</time>
      </trkpt>
      <trkpt lat="44.97952" lon="3.92152">
        <ele>858.118</ele>
        <time>2021-09-28T01:41:41Z</time>
      </trkpt>
      <trkpt lat="44.97948" lon="3.92159">
        <ele>858.533</ele>
        <time>2021-09-28T01:42:21Z</time>
      </trkpt>
      <trkpt lat="44.97944" lon="3.92165">
        <ele>859.095</ele>
        <time>2021-09-28T01:43:01Z</time>
      </trkpt>
      <trkpt lat="44.97941" lon="3.92173">
        <ele>859.313</ele>
        <time>2021-09-28T01:43:41Z</time>
      </trkpt>
      <trkpt lat="44.97937" lon="3.9218">
        <ele>859.756</ele>
        <time>2021-09-28T01:44:21Z</time>
      </trkpt>
      <trkpt lat="44.97933" lon="3.92188">
        <ele>860.168</ele>
        <time>2021-09-28T01:45:01Z</time>
      </trkpt>
      <trkpt lat="44.9793" lon="3.92196">
        <ele>860.618</ele>
        <time>2021-09-28T01:45:41Z</time>
      </trkpt>
      <trkpt lat="44.97926" lon="3.92203">
        <ele>861.281</ele>
        <time>2021-09-28T01:46:21Z</time>
      </trkpt>
      <trkpt lat="44.97922" lon="3.92211">
        <ele>861.961</ele>
        <time>2021-09-28T01:47:01Z</time>
      </trkpt>
      <trkpt lat="44.97919" lon="3.9222">
        <ele>862.717</ele>
        <time>2021-09-28T01:47:41Z</time>
      </trkpt>
      <trkpt lat="44.97915" lon="3.92228">
        <ele>863.708</ele>
        <time>2021-09-28T01:48:21Z</time>
      </trkpt>
      <trkpt lat="44.97911" lon="3.92236">
        <ele>864.636</ele>
        <time>2021-09-28T01:49:01Z</time>
      </trkpt>
      <trkpt lat="44.97907" lon="3.92245">
        <ele>865.492</ele>
        <time>2021-09-28T01:49:41Z</time>
      </trkpt>
      <trkpt lat="44.97903" lon="3.92253">
        <ele>866.077</ele>
        <time>2021-09-28T01:50:21Z</time>
      </trkpt>
      <trkpt lat="44.979" lon="3.92261">
        <ele>866.429</ele>
        <time>2021-09-28T01:51:01Z</time>
      </trkpt>
      <trkpt lat="44.97896" lon="3.92269">
        <ele>866.787</ele>
        <time>2021-09-28T01:51:41Z</time>
      </trkpt>
      <trkpt lat="44.97892" lon="3.92278">
        <ele>866.92</ele>
        <time>2021-09-28T01:52:21Z</time>
      </trkpt>
      <trkpt lat="44.97888" lon="3.92286">
        <ele>867.722</ele>
        <time>2021-09-28T01:53:01Z</time>
      </trkpt>
      <trkpt lat="44.97884" lon="3.92294">
        <ele>868.792</ele>
        <time>2021-09-28T01:53:41Z</time>
      </trkpt>
      <trkpt lat="44.97881" lon="3.92302">
        <ele>869.654</ele>
        <time>2021-09-28T01:54:21Z</time>
      </trkpt>
      <trkpt lat="44.97877" lon="3.9231">
        <ele>870.556</ele>
        <time>2021-09-28T01:55:01Z</time>
      </trkpt>
      <trkpt lat="44.97873" lon="3.92317">
        <ele>871.211</ele>
        <time>2021-09-28T01:55:41Z</time>
      </trkpt>
      <trkpt lat="44.97868" lon="3.92326">
        <ele>872.008</ele>
        <time>2021-09-28T01:56:21Z</time>
      </trkpt>
      <trkpt lat="44.97863" lon="3.92334">
        <ele>872.833</ele>
        <time>2021-09-28T01:57:01Z</time>
      </trkpt>
      <trkpt lat="44.97858" lon="3.92342">
        <ele>873.199</ele>
        <time>2021-09-28T01:57:41Z</time>
      </trkpt>
      <trkpt lat="44.97854" lon="3.9235">
        <ele>873.384</ele>
        <time>2021-09-28T01:58:21Z</time>
      </trkpt>
      <trkpt lat="44.97849" lon="3.92358">
        <ele>873.436</ele>
        <time>2021-09-28T01:59:01Z</time>
      </trkpt>
      <trkpt lat="44.97844" lon="3.92367">
        <ele>873.794</ele>
        <time>2021-09-28T01:59:41Z</time>
      </trkpt>
      <trkpt lat="44.97839" lon="3.92375">
        <ele>874.227</ele>
        <time>2021-09-28T02:00:21Z</time>
      </trkpt>
      <trkpt lat="44.97834" lon="3.92384">
        <ele>874.719</ele>
        <time>2021-09-28T02:01:01Z</time>
      </trkpt>
      <trkpt lat="44.9783" lon="3.92392">
        <ele>875.419</ele>
        <time>2021-09-28T02:01:41Z</time>
      </trkpt>
      <trkpt lat="44.97825" lon="3.924">
        <ele>876.016</ele>
        <time>2021-09-28T02:02:21Z</time>
      </trkpt>
      <trkpt lat="44.9782" lon="3.92409">
        <ele>876.776</ele>
        <time>2021-09-28T02:03:01Z</time>
      </trkpt>
      <trkpt lat="44.97815" lon="3.92417">
        <ele>877.313</ele>
        <time>2021-09-28T02:03:41Z</time>
      </trkpt>
      <trkpt lat="44.9781" lon="3.92426">
        <ele>878.008</ele>
        <time>2021-09-28T02:04:21Z</time>
      </trkpt>
      <trkpt lat="44.97805" lon="3.92434">
        <ele>878.699</ele>
        <time>2021-09-28T02:05:01Z</time>
      </trkpt>
      <trkpt lat="44.978" lon="3.92443">
        <ele>879.195</ele>
        <time>2021-09-28T02:05:41Z</time>
      </trkpt>
      <trkpt lat="44.97795" lon="3.92451">
        <ele>879.42</ele>
        <time>2021-09-28T02:06:21Z</time>
      </trkpt>
      <trkpt lat="44.97791" lon="3.9246">
        <ele>879.522</ele>
        <time>2021-09-28T02:07:01Z</time>
      </trkpt>
      <trkpt lat="44.97786" lon="3.92466">
        <ele>879.74</ele>
        <time>2021-09-28T02:07:41Z</time>
      </trkpt>
      <trkpt lat="44.97783" lon="3.92472">
        <ele>879.873</ele>
        <time>2021-09-28T02:08:21Z</time>
      </trkpt>
      <trkpt lat="44.9778" lon="3.92477">
        <ele>880.385</ele>
        <time>2021-09-28T02:09:01Z</time>
      </trkpt>
      <trkpt lat="44.97775" lon="3.92485">
        <ele>880.935</ele>
        <time>2021-09-28T02:09:41Z</time>
      </trkpt>
      <trkpt lat="44.97772" lon="3.9249">
        <ele>881.477</ele>
        <time>2021-09-28T02:10:21Z</time>
      </trkpt>
      <trkpt lat="44.97768" lon="3.92496">
        <ele>881.861</ele>
        <time>2021-09-28T02:11:01Z</time>
      </trkpt>
      <trkpt lat="44.97764" lon="3.92502">
        <ele>882.127</ele>
        <time>2021-09-28T02:11:41Z</time>
      </trkpt>
      <trkpt lat="44.97759" lon="3.92508">
        <ele>882.508</ele>
        <time>2021-09-28T02:12:21Z</time>
      </trkpt>
      <trkpt lat="44.97754" lon="3.92514">
        <ele>883.055</ele>
        <time>2021-09-28T02:13:01Z</time>
      </trkpt>
      <trkpt lat="44.97747" lon="3.92519">
        <ele>883.531</ele>
        <time>2021-09-28T02:13:41Z</time>
      </trkpt>
      <trkpt lat="44.97741" lon="3.92525">
        <ele>884.196</ele>
        <time>2021-09-28T02:14:21Z</time>
      </trkpt>
      <trkpt lat="44.97735" lon="3.9253">
        <ele>884.688</ele>
        <time>2021-09-28T02:15:01Z</time>
      </trkpt>
      <trkpt lat="44.97731" lon="3.92534">
        <ele>884.996</ele>
        <time>2021-09-28T02:15:41Z</time>
      </trkpt>
      <trkpt lat="44.97726" lon="3.92538">
        <ele>885.259</ele>
        <time>2021-09-28T02:16:21Z</time>
      </trkpt>
      <trkpt lat="44.97722" lon="3.92541">
        <ele>885.541</ele>
        <time>2021-09-28T02:17:01Z</time>
      </trkpt>
      <trkpt lat="44.97716" lon="3.92548">
        <ele>885.821</ele>
        <time>2021-09-28T02:17:41Z</time>
      </trkpt>
      <trkpt lat="44.9771" lon="3.92555">
        <ele>886.035</ele>
        <time>2021-09-28T02:18:21Z</time>
      </trkpt>
      <trkpt lat="44.97705" lon="3.92562">
        <ele>886.186</ele>
        <time>2021-09-28T02:19:01Z</time>
      </trkpt>
      <trkpt lat="44.97699" lon="3.92569">
        <ele>886.114</ele>
        <time>2021-09-28T02:19:41Z</time>
      </trkpt>
      <trkpt lat="44.97694" lon="3.92577">
        <ele>886.008</ele>
        <time>2021-09-28T02:20:21Z</time>
      </trkpt>
      <trkpt lat="44.97688" lon="3.92584">
        <ele>886.261</ele>
        <time>2021-09-28T02:21:01Z</time>
      </trkpt>
      <trkpt lat="44.97683" lon="3.92592">
        <ele>886.747</ele>
        <time>2021-09-28T02:21:41Z</time>
      </trkpt>
      <trkpt lat="44.97679" lon="3.92599">
        <ele>887.142</ele>
        <time>2021-09-28T02:22:21Z</time>
      </trkpt>
      <trkpt lat="44.97674" lon="3.92605">
        <ele>887.554</ele>
        <time>2021-09-28T02:23:01Z</time>
      </trkpt>
      <trkpt lat="44.9767" lon="3.92612">
        <ele>887.992</ele>
        <time>2021-09-28T02:23:41Z</time>
      </trkpt>
      <trkpt lat="44.97666" lon="3.92619">
        <ele>888.415</ele>
        <time>2021-09-28T02:24:21Z</time>
      </trkpt>
      <trkpt lat="44.97662" lon="3.92625">
        <ele>889.027</ele>
        <time>2021-09-28T02:25:01Z</time>
      </trkpt>
      <trkpt lat="44.97658" lon="3.92631">
        <ele>889.737</ele>
        <time>2021-09-28T02:25:41Z</time>
      </trkpt>
      <trkpt lat="44.97654" lon="3.92637">
        <ele>890.325</ele>
        <time>2021-09-28T02:26:21Z</time>
      </trkpt>
      <trkpt lat="44.97649" lon="3.92646">
        <ele>890.626</ele>
        <time>2021-09-28T02:27:01Z</time>
      </trkpt>
      <trkpt lat="44.97645" lon="3.92655">
        <ele>890.808</ele>
        <time>2021-09-28T02:27:41Z</time>
      </trkpt>
      <trkpt lat="44.9764" lon="3.92663">
        <ele>891.008</ele>
        <time>2021-09-28T02:28:21Z</time>
      </trkpt>
      <trkpt lat="44.97636" lon="3.9267">
        <ele>890.95</ele>
        <time>2021-09-28T02:29:01Z</time>
      </trkpt>
      <trkpt lat="44.97633" lon="3.92676">
        <ele>890.576</ele>
        <time>2021-09-28T02:29:41Z</time>
      </trkpt>
      <trkpt lat="44.97629" lon="3.92683">
        <ele>890.261</ele>
        <time>2021-09-28T02:30:21Z</time>
      </trkpt>
      <trkpt lat="44.97625" lon="3.92689">
        <ele>889.923</ele>
        <time>2021-09-28T02:31:01Z</time>
      </trkpt>
      <trkpt lat="44.9762" lon="3.92696">
        <ele>889.591</ele>
        <time>2021-09-28T02:31:41Z</time>
      </trkpt>
      <trkpt lat="44.97616" lon="3.92702">
        <ele>889.064</ele>
        <time>2021-09-28T02:32:21Z</time>
      </trkpt>
      <trkpt lat="44.97612" lon="3.92709">
        <ele>888.516</ele>
        <time>2021-09-28T02:33:01Z</time>
      </trkpt>
      <trkpt lat="44.97608" lon="3.92715">
        <ele>888.066</ele>
        <time>2021-09-28T02:33:41Z</time>
      </trkpt>
      <trkpt lat="44.97603" lon="3.92721">
        <ele>887.731</ele>
        <time>2021-09-28T02:34:21Z</time>
      </trkpt>
      <trkpt lat="44.97598" lon="3.92727">
        <ele>887.561</ele>
        <time>2021-09-28T02:35:01Z</time>
      </trkpt>
      <trkpt lat="44.97593" lon="3.92733">
        <ele>887.407</ele>
        <time>2021-09-28T02:35:41Z</time>
      </trkpt>
      <trkpt lat="44.97589" lon="3.92737">
        <ele>887.408</ele>
        <time>2021-09-28T02:36:21Z</time>
      </trkpt>
      <trkpt lat="44.97584" lon="3.92742">
        <ele>887.591</ele>
        <time>2021-09-28T02:37:01Z</time>
      </trkpt>
      <trkpt lat="44.97579" lon="3.92745">
        <ele>887.477</ele>
        <time>2021-09-28T02:37:41Z</time>
      </trkpt>
      <trkpt lat="44.97575" lon="3.92749">
        <ele>887.142</ele>
        <time>2021-09-28T02:38:21Z</time>
      </trkpt>
      <trkpt lat="44.9757" lon="3.92753">
        <ele>886.714</ele>
        <time>2021-09-28T02:39:01Z</time>
      </trkpt>
      <trkpt lat="44.97563" lon="3.92756">
        <ele>886.352</ele>
        <time>2021-09-28T02:39:41Z</time>
      </trkpt>
      <trkpt lat="44.97556" lon="3.92759">
        <ele>886.025</ele>
        <time>2021-09-28T02:40:21Z</time>
      </trkpt>
      <trkpt lat="44.9755" lon="3.92762">
        <ele>885.737</ele>
        <time>2021-09-28T02:41:01Z</time>
      </trkpt>
      <trkpt lat="44.97542" lon="3.92765">
        <ele>885.377</ele>
        <time>2021-09-28T02:41:41Z</time>
      </trkpt>
      <trkpt lat="44.97535" lon="3.92769">
        <ele>884.765</ele>
        <time>2021-09-28T02:42:21Z</time>
      </trkpt>
      <trkpt lat="44.9753" lon="3.92772">
        <ele>884.168</ele>
        <time>2021-09-28T02:43:01Z</time>
      </trkpt>
      <trkpt lat="44.97525" lon="3.92776">
        <ele>883.614</ele>
        <time>2021-09-28T02:43:41Z</time>
      </trkpt>
      <trkpt lat="44.9752" lon="3.92779">
        <ele>883.508</ele>
        <time>2021-09-28T02:44:21Z</time>
      </trkpt>
      <trkpt lat="44.97515" lon="3.92782">
        <ele>883.564</ele>
        <time>2021-09-28T02:45:01Z</time>
      </trkpt>
      <trkpt lat="44.9751" lon="3.92785">
        <ele>883.46</ele>
        <time>2021-09-28T02:45:41Z</time>
      </trkpt>
      <trkpt lat="44.97505" lon="3.92787">
        <ele>883.355</ele>
        <time>2021-09-28T02:46:21Z</time>
      </trkpt>
      <trkpt lat="44.975" lon="3.92789">
        <ele>883.437</ele>
        <time>2021-09-28T02:47:01Z</time>
      </trkpt>
      <trkpt lat="44.97495" lon="3.92791">
        <ele>882.895</ele>
        <time>2021-09-28T02:47:41Z</time>
      </trkpt>
      <trkpt lat="44.97489" lon="3.92793">
        <ele>882.358</ele>
        <time>2021-09-28T02:48:21Z</time>
      </trkpt>
      <trkpt lat="44.97483" lon="3.92795">
        <ele>881.71</ele>
        <time>2021-09-28T02:49:01Z</time>
      </trkpt>
      <trkpt lat="44.97478" lon="3.92796">
        <ele>881.33</ele>
        <time>2021-09-28T02:49:41Z</time>
      </trkpt>
      <trkpt lat="44.97472" lon="3.92796">
        <ele>881.032</ele>
        <time>2021-09-28T02:50:21Z</time>
      </trkpt>
      <trkpt lat="44.97467" lon="3.92797">
        <ele>880.792</ele>
        <time>2021-09-28T02:51:01Z</time>
      </trkpt>
      <trkpt lat="44.9746" lon="3.92799">
        <ele>880.211</ele>
        <time>2021-09-28T02:51:41Z</time>
      </trkpt>
      <trkpt lat="44.97452" lon="3.92801">
        <ele>879.808</ele>
        <time>2021-09-28T02:52:21Z</time>
      </trkpt>
      <trkpt lat="44.97447" lon="3.92804">
        <ele>879.381</ele>
        <time>2021-09-28T02:53:01Z</time>
      </trkpt>
      <trkpt lat="44.97442" lon="3.92806">
        <ele>879.267</ele>
        <time>2021-09-28T02:53:41Z</time>
      </trkpt>
      <trkpt lat="44.97437" lon="3.92809">
        <ele>879.712</ele>
        <time>2021-09-28T02:54:21Z</time>
      </trkpt>
      <trkpt lat="44.97431" lon="3.92814">
        <ele>880.324</ele>
        <time>2021-09-28T02:55:01Z</time>
      </trkpt>
      <trkpt lat="44.97424" lon="3.92818">
        <ele>881.072</ele>
        <time>2021-09-28T02:55:41Z</time>
      </trkpt>
      <trkpt lat="44.97418" lon="3.92822">
        <ele>881.925</ele>
        <time>2021-09-28T02:56:21Z</time>
      </trkpt>
      <trkpt lat="44.97412" lon="3.92826">
        <ele>882.147</ele>
        <time>2021-09-28T02:57:01Z</time>
      </trkpt>
      <trkpt lat="44.97406" lon="3.9283">
        <ele>882.357</ele>
        <time>2021-09-28T02:57:41Z</time>
      </trkpt>
      <trkpt lat="44.97401" lon="3.92836">
        <ele>882.517</ele>
        <time>2021-09-28T02:58:21Z</time>
      </trkpt>
      <trkpt lat="44.97397" lon="3.92843">
        <ele>882.687</ele>
        <time>2021-09-28T02:59:01Z</time>
      </trkpt>
      <trkpt lat="44.97391" lon="3.92851">
        <ele>882.415</ele>
        <time>2021-09-28T02:59:41Z</time>
      </trkpt>
      <trkpt lat="44.97385" lon="3.92858">
        <ele>881.808</ele>
        <time>2021-09-28T03:00:21Z</time>
      </trkpt>
      <trkpt lat="44.97379" lon="3.92866">
        <ele>881.179</ele>
        <time>2021-09-28T03:01:01Z</time>
      </trkpt>
      <trkpt lat="44.97375" lon="3.92873">
        <ele>880.655</ele>
        <time>2021-09-28T03:01:41Z</time>
      </trkpt>
      <trkpt lat="44.97371" lon="3.92879">
        <ele>880.14</ele>
        <time>2021-09-28T03:02:21Z</time>
      </trkpt>
      <trkpt lat="44.97367" lon="3.92885">
        <ele>879.512</ele>
        <time>2021-09-28T03:03:01Z</time>
      </trkpt>
      <trkpt lat="44.97362" lon="3.92892">
        <ele>878.96</ele>
        <time>2021-09-28T03:03:41Z</time>
      </trkpt>
      <trkpt lat="44.97356" lon="3.92899">
        <ele>878.713</ele>
        <time>2021-09-28T03:04:21Z</time>
      </trkpt>
      <trkpt lat="44.97351" lon="3.92907">
        <ele>878.665</ele>
        <time>2021-09-28T03:05:01Z</time>
      </trkpt>
      <trkpt lat="44.97347" lon="3.92914">
        <ele>878.645</ele>
        <time>2021-09-28T03:05:41Z</time>
      </trkpt>
      <trkpt lat="44.97343" lon="3.92922">
        <ele>878.741</ele>
        <time>2021-09-28T03:06:21Z</time>
      </trkpt>
      <trkpt lat="44.97339" lon="3.9293">
        <ele>878.881</ele>
        <time>2021-09-28T03:07:01Z</time>
      </trkpt>
      <trkpt lat="44.97335" lon="3.9294">
        <ele>878.909</ele>
        <time>2021-09-28T03:07:41Z</time>
      </trkpt>
      <trkpt lat="44.97331" lon="3.92949">
        <ele>878.808</ele>
        <time>2021-09-28T03:08:21Z</time>
      </trkpt>
      <trkpt lat="44.97328" lon="3.92958">
        <ele>878.632</ele>
        <time>2021-09-28T03:09:01Z</time>
      </trkpt>
      <trkpt lat="44.97325" lon="3.92967">
        <ele>878.458</ele>
        <time>2021-09-28T03:09:41Z</time>
      </trkpt>
      <trkpt lat="44.97323" lon="3.92976">
        <ele>878.443</ele>
        <time>2021-09-28T03:10:21Z</time>
      </trkpt>
      <trkpt lat="44.9732" lon="3.9298">
        <ele>878.615</ele>
        <time>2021-09-28T03:11:01Z</time>
      </trkpt>
      <trkpt lat="44.97319" lon="3.92983">
        <ele>878.743</ele>
        <time>2021-09-28T03:11:41Z</time>
      </trkpt>
      <trkpt lat="44.97318" lon="3.92985">
        <ele>878.846</ele>
        <time>2021-09-28T03:12:21Z</time>
      </trkpt>
      <trkpt lat="44.97312" lon="3.92993">
        <ele>879.488</ele>
        <time>2021-09-28T03:13:01Z</time>
      </trkpt>
      <trkpt lat="44.97306" lon="3.93001">
        <ele>880.048</ele>
        <time>2021-09-28T03:13:41Z</time>
      </trkpt>
      <trkpt lat="44.97305" lon="3.93003">
        <ele>879.827</ele>
        <time>2021-09-28T03:14:21Z</time>
      </trkpt>
      <trkpt lat="44.97302" lon="3.93012">
        <ele>879.368</ele>
        <time>2021-09-28T03:15:01Z</time>
      </trkpt>
      <trkpt lat="44.97298" lon="3.93022">
        <ele>878.814</ele>
        <time>2021-09-28T03:15:41Z</time>
      </trkpt>
      <trkpt lat="44.97294" lon="3.93033">
        <ele>878.208</ele>
        <time>2021-09-28T03:16:21Z</time>
      </trkpt>
      <trkpt lat="44.97289" lon="3.93044">
        <ele>877.48</ele>
        <time>2021-09-28T03:17:01Z</time>
      </trkpt>
      <trkpt lat="44.97285" lon="3.93055">
        <ele>876.886</ele>
        <time>2021-09-28T03:17:41Z</time>
      </trkpt>
      <trkpt lat="44.97281" lon="3.93065">
        <ele>876.411</ele>
        <time>2021-09-28T03:18:21Z</time>
      </trkpt>
      <trkpt lat="44.97278" lon="3.93076">
        <ele>876.383</ele>
        <time>2021-09-28T03:19:01Z</time>
      </trkpt>
      <trkpt lat="44.97274" lon="3.93086">
        <ele>876.081</ele>
        <time>2021-09-28T03:19:41Z</time>
      </trkpt>
      <trkpt lat="44.97271" lon="3.93096">
        <ele>876.144</ele>
        <time>2021-09-28T03:20:21Z</time>
      </trkpt>
      <trkpt lat="44.97267" lon="3.93106">
        <ele>876.396</ele>
        <time>2021-09-28T03:21:01Z</time>
      </trkpt>
      <trkpt lat="44.97263" lon="3.93116">
        <ele>876.576</ele>
        <time>2021-09-28T03:21:41Z</time>
      </trkpt>
      <trkpt lat="44.9726" lon="3.93127">
        <ele>876.566</ele>
        <time>2021-09-28T03:22:21Z</time>
      </trkpt>
      <trkpt lat="44.97256" lon="3.93137">
        <ele>876.329</ele>
        <time>2021-09-28T03:23:01Z</time>
      </trkpt>
      <trkpt lat="44.97252" lon="3.93148">
        <ele>876.121</ele>
        <time>2021-09-28T03:23:41Z</time>
      </trkpt>
      <trkpt lat="44.97248" lon="3.9316">
        <ele>876.108</ele>
        <time>2021-09-28T03:24:21Z</time>
      </trkpt>
      <trkpt lat="44.97244" lon="3.93171">
        <ele>876.694</ele>
        <time>2021-09-28T03:25:01Z</time>
      </trkpt>
      <trkpt lat="44.9724" lon="3.93182">
        <ele>877.19</ele>
        <time>2021-09-28T03:25:41Z</time>
      </trkpt>
      <trkpt lat="44.97236" lon="3.93193">
        <ele>877.515</ele>
        <time>2021-09-28T03:26:21Z</time>
      </trkpt>
      <trkpt lat="44.97231" lon="3.93204">
        <ele>877.917</ele>
        <time>2021-09-28T03:27:01Z</time>
      </trkpt>
      <trkpt lat="44.97227" lon="3.93215">
        <ele>878.585</ele>
        <time>2021-09-28T03:27:41Z</time>
      </trkpt>
      <trkpt lat="44.97222" lon="3.93226">
        <ele>879.058</ele>
        <time>2021-09-28T03:28:21Z</time>
      </trkpt>
      <trkpt lat="44.97218" lon="3.93237">
        <ele>879.35</ele>
        <time>2021-09-28T03:29:01Z</time>
      </trkpt>
      <trkpt lat="44.97214" lon="3.93248">
        <ele>879.64</ele>
        <time>2021-09-28T03:29:41Z</time>
      </trkpt>
      <trkpt lat="44.9721" lon="3.93259">
        <ele>879.943</ele>
        <time>2021-09-28T03:30:21Z</time>
      </trkpt>
      <trkpt lat="44.97206" lon="3.9327">
        <ele>880.264</ele>
        <time>2021-09-28T03:31:01Z</time>
      </trkpt>
      <trkpt lat="44.97202" lon="3.93281">
        <ele>880.51</ele>
        <time>2021-09-28T03:31:41Z</time>
      </trkpt>
      <trkpt lat="44.97198" lon="3.93291">
        <ele>880.808</ele>
        <time>2021-09-28T03:32:21Z</time>
      </trkpt>
      <trkpt lat="44.97194" lon="3.93301">
        <ele>881.022</ele>
        <time>2021-09-28T03:33:01Z</time>
      </trkpt>
      <trkpt lat="44.9719" lon="3.93311">
        <ele>881.068</ele>
        <time>2021-09-28T03:33:41Z</time>
      </trkpt>
      <trkpt lat="44.97186" lon="3.9332">
        <ele>880.983</ele>
        <time>2021-09-28T03:34:21Z</time>
      </trkpt>
      <trkpt lat="44.97183" lon="3.9333">
        <ele>880.775</ele>
        <time>2021-09-28T03:35:01Z</time>
      </trkpt>
      <trkpt lat="44.97179" lon="3.9334">
        <ele>880.363</ele>
        <time>2021-09-28T03:35:41Z</time>
      </trkpt>
      <trkpt lat="44.97175" lon="3.93349">
        <ele>879.926</ele>
        <time>2021-09-28T03:36:21Z</time>
      </trkpt>
      <trkpt lat="44.97172" lon="3.93358">
        <ele>879.688</ele>
        <time>2021-09-28T03:37:01Z</time>
      </trkpt>
      <trkpt lat="44.97169" lon="3.93367">
        <ele>879.668</ele>
        <time>2021-09-28T03:37:41Z</time>
      </trkpt>
      <trkpt lat="44.97166" lon="3.93375">
        <ele>879.912</ele>
        <time>2021-09-28T03:38:21Z</time>
      </trkpt>
      <trkpt lat="44.97164" lon="3.93381">
        <ele>880.332</ele>
        <time>2021-09-28T03:39:01Z</time>
      </trkpt>
      <trkpt lat="44.9716" lon="3.93391">
        <ele>881.005</ele>
        <time>2021-09-28T03:39:41Z</time>
      </trkpt>
      <trkpt lat="44.9716" lon="3.93393">
        <ele>881.108</ele>
        <time>2021-09-28T03:40:21Z</time>
      </trkpt>
      <trkpt lat="44.97156" lon="3.93402">
        <ele>882.039</ele>
        <time>2021-09-28T03:41:01Z</time>
      </trkpt>
      <trkpt lat="44.97152" lon="3.93412">
        <ele>882.955</ele>
        <time>2021-09-28T03:41:41Z</time>
      </trkpt>
      <trkpt lat="44.97148" lon="3.93421">
        <ele>884.08</ele>
        <time>2021-09-28T03:42:21Z</time>
      </trkpt>
      <trkpt lat="44.97144" lon="3.93431">
        <ele>885.372</ele>
        <time>2021-09-28T03:43:01Z</time>
      </trkpt>
      <trkpt lat="44.9714" lon="3.9344">
        <ele>886.47</ele>
        <time>2021-09-28T03:43:41Z</time>
      </trkpt>
      <trkpt lat="44.97135" lon="3.93449">
        <ele>886.613</ele>
        <time>2021-09-28T03:44:21Z</time>
      </trkpt>
      <trkpt lat="44.97132" lon="3.93455">
        <ele>886.545</ele>
        <time>2021-09-28T03:45:01Z</time>
      </trkpt>
      <trkpt lat="44.9713" lon="3.93457">
        <ele>886.485</ele>
        <time>2021-09-28T03:45:41Z</time>
      </trkpt>
      <trkpt lat="44.97126" lon="3.93464">
        <ele>886.157</ele>
        <time>2021-09-28T03:46:21Z</time>
      </trkpt>
      <trkpt lat="44.97123" lon="3.9347">
        <ele>885.7</ele>
        <time>2021-09-28T03:47:01Z</time>
      </trkpt>
      <trkpt lat="44.97118" lon="3.93477">
        <ele>885.22</ele>
        <time>2021-09-28T03:47:41Z</time>
      </trkpt>
      <trkpt lat="44.97112" lon="3.93485">
        <ele>884.608</ele>
        <time>2021-09-28T03:48:21Z</time>
      </trkpt>
      <trkpt lat="44.97109" lon="3.93489">
        <ele>884.423</ele>
        <time>2021-09-28T03:49:01Z</time>
      </trkpt>
      <trkpt lat="44.97103" lon="3.93498">
        <ele>884.059</ele>
        <time>2021-09-28T03:49:41Z</time>
      </trkpt>
      <trkpt lat="44.97096" lon="3.93507">
        <ele>883.494</ele>
        <time>2021-09-28T03:50:21Z</time>
      </trkpt>
      <trkpt lat="44.9709" lon="3.93516">
        <ele>883.056</ele>
        <time>2021-09-28T03:51:01Z</time>
      </trkpt>
      <trkpt lat="44.97085" lon="3.93522">
        <ele>882.764</ele>
        <time>2021-09-28T03:51:41Z</time>
      </trkpt>
      <trkpt lat="44.97081" lon="3.93528">
        <ele>882.987</ele>
        <time>2021-09-28T03:52:21Z</time>
      </trkpt>
      <trkpt lat="44.97076" lon="3.93534">
        <ele>883.659</ele>
        <time>2021-09-28T03:53:01Z</time>
      </trkpt>
      <trkpt lat="44.97072" lon="3.93542">
        <ele>884.489</ele>
        <time>2021-09-28T03:53:41Z</time>
      </trkpt>
      <trkpt lat="44.97069" lon="3.93546">
        <ele>884.823</ele>
        <time>2021-09-28T03:54:21Z</time>
      </trkpt>
      <trkpt lat="44.97066" lon="3.93557">
        <ele>885.983</ele>
        <time>2021-09-28T03:55:01Z</time>
      </trkpt>
      <trkpt lat="44.97063" lon="3.93568">
        <ele>886.611</ele>
        <time>2021-09-28T03:55:41Z</time>
      </trkpt>
      <trkpt lat="44.97059" lon="3.93576">
        <ele>886.808</ele>
        <time>2021-09-28T03:56:21Z</time>
      </trkpt>
      <trkpt lat="44.97056" lon="3.93583">
        <ele>887.05</ele>
        <time>2021-09-28T03:57:01Z</time>
      </trkpt>
      <trkpt lat="44.97051" lon="3.93591">
        <ele>887.756</ele>
        <time>2021-09-28T03:57:41Z</time>
      </trkpt>
      <trkpt lat="44.97047" lon="3.936">
        <ele>888.321</ele>
        <time>2021-09-28T03:58:21Z</time>
      </trkpt>
      <trkpt lat="44.97042" lon="3.93609">
        <ele>888.893</ele>
        <time>2021-09-28T03:59:01Z</time>
      </trkpt>
      <trkpt lat="44.97037" lon="3.93617">
        <ele>889.311</ele>
        <time>2021-09-28T03:59:41Z</time>
      </trkpt>
      <trkpt lat="44.97033" lon="3.93626">
        <ele>889.684</ele>
        <time>2021-09-28T04:00:21Z</time>
      </trkpt>
      <trkpt lat="44.97029" lon="3.93634">
        <ele>889.856</ele>
        <time>2021-09-28T04:01:01Z</time>
      </trkpt>
      <trkpt lat="44.97025" lon="3.93643">
        <ele>890.216</ele>
        <time>2021-09-28T04:01:41Z</time>
      </trkpt>
      <trkpt lat="44.97021" lon="3.93651">
        <ele>890.943</ele>
        <time>2021-09-28T04:02:21Z</time>
      </trkpt>
      <trkpt lat="44.97016" lon="3.93659">
        <ele>891.364</ele>
        <time>2021-09-28T04:03:01Z</time>
      </trkpt>
      <trkpt lat="44.97012" lon="3.93666">
        <ele>891.61</ele>
        <time>2021-09-28T04:03:41Z</time>
      </trkpt>
      <trkpt lat="44.97008" lon="3.93673">
        <ele>891.808</ele>
        <time>2021-09-28T04:04:21Z</time>
      </trkpt>
      <trkpt lat="44.97003" lon="3.93682">
        <ele>892.072</ele>
        <time>2021-09-28T04:05:01Z</time>
      </trkpt>
      <trkpt lat="44.96998" lon="3.93691">
        <ele>892.138</ele>
        <time>2021-09-28T04:05:41Z</time>
      </trkpt>
      <trkpt lat="44.96993" lon="3.93698">
        <ele>891.723</ele>
        <time>2021-09-28T04:06:21Z</time>
      </trkpt>
      <trkpt lat="44.96988" lon="3.93706">
        <ele>891.225</ele>
        <time>2021-09-28T04:07:01Z</time>
      </trkpt>
      <trkpt lat="44.96983" lon="3.93714">
        <ele>890.783</ele>
        <time>2021-09-28T04:07:41Z</time>
      </trkpt>
      <trkpt lat="44.96978" lon="3.93724">
        <ele>890.256</ele>
        <time>2021-09-28T04:08:21Z</time>
      </trkpt>
      <trkpt lat="44.96973" lon="3.93734">
        <ele>889.138</ele>
        <time>2021-09-28T04:09:01Z</time>
      </trkpt>
      <trkpt lat="44.96968" lon="3.93744">
        <ele>887.968</ele>
        <time>2021-09-28T04:09:41Z</time>
      </trkpt>
      <trkpt lat="44.96963" lon="3.93753">
        <ele>887.383</ele>
        <time>2021-09-28T04:10:21Z</time>
      </trkpt>
      <trkpt lat="44.96959" lon="3.93763">
        <ele>887.125</ele>
        <time>2021-09-28T04:11:01Z</time>
      </trkpt>
      <trkpt lat="44.96955" lon="3.93772">
        <ele>886.917</ele>
        <time>2021-09-28T04:11:41Z</time>
      </trkpt>
      <trkpt lat="44.96951" lon="3.93782">
        <ele>886.808</ele>
        <time>2021-09-28T04:12:21Z</time>
      </trkpt>
      <trkpt lat="44.96948" lon="3.93791">
        <ele>886.636</ele>
        <time>2021-09-28T04:13:01Z</time>
      </trkpt>
      <trkpt lat="44.96944" lon="3.93801">
        <ele>886.512</ele>
        <time>2021-09-28T04:13:41Z</time>
      </trkpt>
      <trkpt lat="44.9694" lon="3.93811">
        <ele>886.587</ele>
        <time>2021-09-28T04:14:21Z</time>
      </trkpt>
      <trkpt lat="44.96936" lon="3.93821">
        <ele>886.669</ele>
        <time>2021-09-28T04:15:01Z</time>
      </trkpt>
      <trkpt lat="44.96932" lon="3.93831">
        <ele>886.617</ele>
        <time>2021-09-28T04:15:41Z</time>
      </trkpt>
      <trkpt lat="44.96928" lon="3.93842">
        <ele>886.44</ele>
        <time>2021-09-28T04:16:21Z</time>
      </trkpt>
      <trkpt lat="44.96924" lon="3.93853">
        <ele>886.412</ele>
        <time>2021-09-28T04:17:01Z</time>
      </trkpt>
      <trkpt lat="44.96919" lon="3.93864">
        <ele>886.442</ele>
        <time>2021-09-28T04:17:41Z</time>
      </trkpt>
      <trkpt lat="44.96915" lon="3.93875">
        <ele>886.046</ele>
        <time>2021-09-28T04:18:21Z</time>
      </trkpt>
      <trkpt lat="44.9691" lon="3.93882">
        <ele>885.388</ele>
        <time>2021-09-28T04:19:01Z</time>
      </trkpt>
      <trkpt lat="44.96906" lon="3.9389">
        <ele>884.616</ele>
        <time>2021-09-28T04:19:41Z</time>
      </trkpt>
      <trkpt lat="44.96901" lon="3.93897">
        <ele>884.408</ele>
        <time>2021-09-28T04:20:21Z</time>
      </trkpt>
      <trkpt lat="44.96896" lon="3.93906">
        <ele>884.222</ele>
        <time>2021-09-28T04:21:01Z</time>
      </trkpt>
      <trkpt lat="44.9689" lon="3.93915">
        <ele>884.168</ele>
        <time>2021-09-28T04:21:41Z</time>
      </trkpt>
      <trkpt lat="44.96885" lon="3.93925">
        <ele>885.133</ele>
        <time>2021-09-28T04:22:21Z</time>
      </trkpt>
      <trkpt lat="44.96878" lon="3.93933">
        <ele>886.025</ele>
        <time>2021-09-28T04:23:01Z</time>
      </trkpt>
      <trkpt lat="44.96872" lon="3.93941">
        <ele>886.883</ele>
        <time>2021-09-28T04:23:41Z</time>
      </trkpt>
      <trkpt lat="44.96865" lon="3.9395">
        <ele>887.656</ele>
        <time>2021-09-28T04:24:21Z</time>
      </trkpt>
      <trkpt lat="44.96859" lon="3.93958">
        <ele>888.048</ele>
        <time>2021-09-28T04:25:01Z</time>
      </trkpt>
      <trkpt lat="44.96853" lon="3.93965">
        <ele>888.328</ele>
        <time>2021-09-28T04:25:41Z</time>
      </trkpt>
      <trkpt lat="44.96847" lon="3.93973">
        <ele>888.787</ele>
        <time>2021-09-28T04:26:21Z</time>
      </trkpt>
      <trkpt lat="44.96842" lon="3.93981">
        <ele>889.042</ele>
        <time>2021-09-28T04:27:01Z</time>
      </trkpt>
      <trkpt lat="44.96836" lon="3.93988">
        <ele>889.326</ele>
        <time>2021-09-28T04:27:41Z</time>
      </trkpt>
      <trkpt lat="44.96831" lon="3.93994">
        <ele>889.808</ele>
        <time>2021-09-28T04:28:21Z</time>
      </trkpt>
      <trkpt lat="44.96826" lon="3.94001">
        <ele>890.396</ele>
        <time>2021-09-28T04:29:01Z</time>
      </trkpt>
      <trkpt lat="44.96821" lon="3.94007">
        <ele>890.882</ele>
        <time>2021-09-28T04:29:41Z</time>
      </trkpt>
      <trkpt lat="44.96816" lon="3.94012">
        <ele>891.047</ele>
        <time>2021-09-28T04:30:21Z</time>
      </trkpt>
      <trkpt lat="44.9681" lon="3.94018">
        <ele>891.149</ele>
        <time>2021-09-28T04:31:01Z</time>
      </trkpt>
      <trkpt lat="44.96805" lon="3.94023">
        <ele>891.297</ele>
        <time>2021-09-28T04:31:41Z</time>
      </trkpt>
      <trkpt lat="44.96798" lon="3.94029">
        <ele>891.13</ele>
        <time>2021-09-28T04:32:21Z</time>
      </trkpt>
      <trkpt lat="44.96791" lon="3.94035">
        <ele>890.942</ele>
        <time>2021-09-28T04:33:01Z</time>
      </trkpt>
      <trkpt lat="44.96785" lon="3.94041">
        <ele>890.622</ele>
        <time>2021-09-28T04:33:41Z</time>
      </trkpt>
      <trkpt lat="44.96778" lon="3.94048">
        <ele>890.287</ele>
        <time>2021-09-28T04:34:21Z</time>
      </trkpt>
      <trkpt lat="44.96771" lon="3.94054">
        <ele>890.142</ele>
        <time>2021-09-28T04:35:01Z</time>
      </trkpt>
      <trkpt lat="44.96765" lon="3.9406">
        <ele>890.026</ele>
        <time>2021-09-28T04:35:41Z</time>
      </trkpt>
      <trkpt lat="44.96758" lon="3.94067">
        <ele>889.808</ele>
        <time>2021-09-28T04:36:21Z</time>
      </trkpt>
      <trkpt lat="44.96751" lon="3.94073">
        <ele>889.496</ele>
        <time>2021-09-28T04:37:01Z</time>
      </trkpt>
      <trkpt lat="44.96745" lon="3.94079">
        <ele>889.482</ele>
        <time>2021-09-28T04:37:41Z</time>
      </trkpt>
      <trkpt lat="44.96739" lon="3.94085">
        <ele>889.327</ele>
        <time>2021-09-28T04:38:21Z</time>
      </trkpt>
      <trkpt lat="44.96735" lon="3.94089">
        <ele>889.359</ele>
        <time>2021-09-28T04:39:01Z</time>
      </trkpt>
      <trkpt lat="44.96729" lon="3.94096">
        <ele>889.427</ele>
        <time>2021-09-28T04:39:41Z</time>
      </trkpt>
      <trkpt lat="44.96723" lon="3.94102">
        <ele>889.41</ele>
        <time>2021-09-28T04:40:21Z</time>
      </trkpt>
      <trkpt lat="44.96721" lon="3.94104">
        <ele>889.562</ele>
        <time>2021-09-28T04:41:01Z</time>
      </trkpt>
      <trkpt lat="44.96718" lon="3.94106">
        <ele>889.512</ele>
        <time>2021-09-28T04:41:41Z</time>
      </trkpt>
      <trkpt lat="44.96713" lon="3.9411">
        <ele>889.611</ele>
        <time>2021-09-28T04:42:21Z</time>
      </trkpt>
      <trkpt lat="44.9671" lon="3.94112">
        <ele>889.621</ele>
        <time>2021-09-28T04:43:01Z</time>
      </trkpt>
      <trkpt lat="44.96704" lon="3.94117">
        <ele>889.203</ele>
        <time>2021-09-28T04:43:41Z</time>
      </trkpt>
      <trkpt lat="44.96697" lon="3.94123">
        <ele>888.708</ele>
        <time>2021-09-28T04:44:21Z</time>
      </trkpt>
      <trkpt lat="44.9669" lon="3.94128">
        <ele>888.879</ele>
        <time>2021-09-28T04:45:01Z</time>
      </trkpt>
      <trkpt lat="44.96684" lon="3.94134">
        <ele>889.185</ele>
        <time>2021-09-28T04:45:41Z</time>
      </trkpt>
      <trkpt lat="44.96677" lon="3.94142">
        <ele>889.19</ele>
        <time>2021-09-28T04:46:21Z</time>
      </trkpt>
      <trkpt lat="44.9667" lon="3.94149">
        <ele>889.142</ele>
        <time>2021-09-28T04:47:01Z</time>
      </trkpt>
      <trkpt lat="44.96663" lon="3.94157">
        <ele>889.16</ele>
        <time>2021-09-28T04:47:41Z</time>
      </trkpt>
      <trkpt lat="44.96656" lon="3.94165">
        <ele>889.363</ele>
        <time>2021-09-28T04:48:21Z</time>
      </trkpt>
      <trkpt lat="44.96649" lon="3.94173">
        <ele>889.325</ele>
        <time>2021-09-28T04:49:01Z</time>
      </trkpt>
      <trkpt lat="44.96643" lon="3.94181">
        <ele>889.095</ele>
        <time>2021-09-28T04:49:41Z</time>
      </trkpt>
      <trkpt lat="44.96637" lon="3.9419">
        <ele>888.916</ele>
        <time>2021-09-28T04:50:21Z</time>
      </trkpt>
      <trkpt lat="44.96631" lon="3.94198">
        <ele>889.076</ele>
        <time>2021-09-28T04:51:01Z</time>
      </trkpt>
      <trkpt lat="44.96625" lon="3.94206">
        <ele>888.913</ele>
        <time>2021-09-28T04:51:41Z</time>
      </trkpt>
      <trkpt lat="44.96619" lon="3.94213">
        <ele>888.908</ele>
        <time>2021-09-28T04:52:21Z</time>
      </trkpt>
      <trkpt lat="44.96614" lon="3.9422">
        <ele>888.959</ele>
        <time>2021-09-28T04:53:01Z</time>
      </trkpt>
      <trkpt lat="44.96608" lon="3.94226">
        <ele>889.275</ele>
        <time>2021-09-28T04:53:41Z</time>
      </trkpt>
      <trkpt lat="44.96602" lon="3.94231">
        <ele>889.88</ele>
        <time>2021-09-28T04:54:21Z</time>
      </trkpt>
      <trkpt lat="44.96596" lon="3.94236">
        <ele>890.412</ele>
        <time>2021-09-28T04:55:01Z</time>
      </trkpt>
      <trkpt lat="44.96591" lon="3.94241">
        <ele>890.96</ele>
        <time>2021-09-28T04:55:41Z</time>
      </trkpt>
      <trkpt lat="44.96584" lon="3.94248">
        <ele>891.393</ele>
        <time>2021-09-28T04:56:21Z</time>
      </trkpt>
      <trkpt lat="44.96577" lon="3.94254">
        <ele>891.415</ele>
        <time>2021-09-28T04:57:01Z</time>
      </trkpt>
      <trkpt lat="44.9657" lon="3.94261">
        <ele>891.455</ele>
        <time>2021-09-28T04:57:41Z</time>
      </trkpt>
      <trkpt lat="44.96563" lon="3.94269">
        <ele>891.277</ele>
        <time>2021-09-28T04:58:21Z</time>
      </trkpt>
      <trkpt lat="44.96557" lon="3.94277">
        <ele>891.061</ele>
        <time>2021-09-28T04:59:01Z</time>
      </trkpt>
      <trkpt lat="44.9655" lon="3.94285">
        <ele>890.827</ele>
        <time>2021-09-28T04:59:41Z</time>
      </trkpt>
      <trkpt lat="44.96544" lon="3.94293">
        <ele>890.408</ele>
        <time>2021-09-28T05:00:21Z</time>
      </trkpt>
      <trkpt lat="44.96538" lon="3.94301">
        <ele>889.935</ele>
        <time>2021-09-28T05:01:01Z</time>
      </trkpt>
      <trkpt lat="44.96532" lon="3.94309">
        <ele>889.571</ele>
        <time>2021-09-28T05:01:41Z</time>
      </trkpt>
      <trkpt lat="44.96527" lon="3.94317">
        <ele>889.756</ele>
        <time>2021-09-28T05:02:21Z</time>
      </trkpt>
      <trkpt lat="44.96521" lon="3.94326">
        <ele>889.998</ele>
        <time>2021-09-28T05:03:01Z</time>
      </trkpt>
      <trkpt lat="44.96516" lon="3.94334">
        <ele>889.836</ele>
        <time>2021-09-28T05:03:41Z</time>
      </trkpt>
      <trkpt lat="44.9651" lon="3.94343">
        <ele>889.959</ele>
        <time>2021-09-28T05:04:21Z</time>
      </trkpt>
      <trkpt lat="44.96505" lon="3.94351">
        <ele>890.021</ele>
        <time>2021-09-28T05:05:01Z</time>
      </trkpt>
      <trkpt lat="44.96499" lon="3.9436">
        <ele>890.181</ele>
        <time>2021-09-28T05:05:41Z</time>
      </trkpt>
      <trkpt lat="44.96494" lon="3.94368">
        <ele>890.042</ele>
        <time>2021-09-28T05:06:21Z</time>
      </trkpt>
      <trkpt lat="44.96489" lon="3.94377">
        <ele>889.922</ele>
        <time>2021-09-28T05:07:01Z</time>
      </trkpt>
      <trkpt lat="44.96483" lon="3.94385">
        <ele>889.714</ele>
        <time>2021-09-28T05:07:41Z</time>
      </trkpt>
      <trkpt lat="44.96478" lon="3.94394">
        <ele>889.608</ele>
        <time>2021-09-28T05:08:21Z</time>
      </trkpt>
      <trkpt lat="44.96473" lon="3.94403">
        <ele>889.532</ele>
        <time>2021-09-28T05:09:01Z</time>
      </trkpt>
      <trkpt lat="44.96468" lon="3.94412">
        <ele>889.318</ele>
        <time>2021-09-28T05:09:41Z</time>
      </trkpt>
      <trkpt lat="44.96463" lon="3.94421">
        <ele>889.333</ele>
        <time>2021-09-28T05:10:21Z</time>
      </trkpt>
      <trkpt lat="44.96457" lon="3.9443">
        <ele>889.345</ele>
        <time>2021-09-28T05:11:01Z</time>
      </trkpt>
      <trkpt lat="44.96453" lon="3.94439">
        <ele>889.513</ele>
        <time>2021-09-28T05:11:41Z</time>
      </trkpt>
      <trkpt lat="44.96448" lon="3.94448">
        <ele>889.816</ele>
        <time>2021-09-28T05:12:21Z</time>
      </trkpt>
      <trkpt lat="44.96443" lon="3.94458">
        <ele>890.088</ele>
        <time>2021-09-28T05:13:01Z</time>
      </trkpt>
      <trkpt lat="44.96438" lon="3.94467">
        <ele>890.068</ele>
        <time>2021-09-28T05:13:41Z</time>
      </trkpt>
      <trkpt lat="44.96433" lon="3.94476">
        <ele>890.021</ele>
        <time>2021-09-28T05:14:21Z</time>
      </trkpt>
      <trkpt lat="44.96432" lon="3.94479">
        <ele>890.041</ele>
        <time>2021-09-28T05:15:01Z</time>
      </trkpt>
      <trkpt lat="44.96428" lon="3.94487">
        <ele>890.005</ele>
        <time>2021-09-28T05:15:41Z</time>
      </trkpt>
      <trkpt lat="44.96424" lon="3.94495">
        <ele>890.008</ele>
        <time>2021-09-28T05:16:21Z</time>
      </trkpt>
      <trkpt lat="44.9642" lon="3.94503">
        <ele>890.02</ele>
        <time>2021-09-28T05:17:01Z</time>
      </trkpt>
      <trkpt lat="44.96416" lon="3.94511">
        <ele>890.036</ele>
        <time>2021-09-28T05:17:41Z</time>
      </trkpt>
      <trkpt lat="44.96411" lon="3.94521">
        <ele>890.111</ele>
        <time>2021-09-28T05:18:21Z</time>
      </trkpt>
      <trkpt lat="44.96405" lon="3.94532">
        <ele>889.943</ele>
        <time>2021-09-28T05:19:01Z</time>
      </trkpt>
      <trkpt lat="44.964" lon="3.94542">
        <ele>889.861</ele>
        <time>2021-09-28T05:19:41Z</time>
      </trkpt>
      <trkpt lat="44.96395" lon="3.94549">
        <ele>889.844</ele>
        <time>2021-09-28T05:20:21Z</time>
      </trkpt>
      <trkpt lat="44.9639" lon="3.94556">
        <ele>889.996</ele>
        <time>2021-09-28T05:21:01Z</time>
      </trkpt>
      <trkpt lat="44.96386" lon="3.94564">
        <ele>889.486</ele>
        <time>2021-09-28T05:21:41Z</time>
      </trkpt>
      <trkpt lat="44.96381" lon="3.9457">
        <ele>888.854</ele>
        <time>2021-09-28T05:22:21Z</time>
      </trkpt>
      <trkpt lat="44.96377" lon="3.94577">
        <ele>888.056</ele>
        <time>2021-09-28T05:23:01Z</time>
      </trkpt>
      <trkpt lat="44.96373" lon="3.94584">
        <ele>887.311</ele>
        <time>2021-09-28T05:23:41Z</time>
      </trkpt>
      <trkpt lat="44.96366" lon="3.94592">
        <ele>886.908</ele>
        <time>2021-09-28T05:24:21Z</time>
      </trkpt>
      <trkpt lat="44.9636" lon="3.94601">
        <ele>886.563</ele>
        <time>2021-09-28T05:25:01Z</time>
      </trkpt>
      <trkpt lat="44.96353" lon="3.94609">
        <ele>886.149</ele>
        <time>2021-09-28T05:25:41Z</time>
      </trkpt>
      <trkpt lat="44.96347" lon="3.94617">
        <ele>886.384</ele>
        <time>2021-09-28T05:26:21Z</time>
      </trkpt>
      <trkpt lat="44.96341" lon="3.94625">
        <ele>886.366</ele>
        <time>2021-09-28T05:27:01Z</time>
      </trkpt>
      <trkpt lat="44.96335" lon="3.94632">
        <ele>885.994</ele>
        <time>2021-09-28T05:27:41Z</time>
      </trkpt>
      <trkpt lat="44.96329" lon="3.9464">
        <ele>886.257</ele>
        <time>2021-09-28T05:28:21Z</time>
      </trkpt>
      <trkpt lat="44.96323" lon="3.94649">
        <ele>887.699</ele>
        <time>2021-09-28T05:29:01Z</time>
      </trkpt>
      <trkpt lat="44.96316" lon="3.94657">
        <ele>888.129</ele>
        <time>2021-09-28T05:29:41Z</time>
      </trkpt>
      <trkpt lat="44.9631" lon="3.94665">
        <ele>887.846</ele>
        <time>2021-09-28T05:30:21Z</time>
      </trkpt>
      <trkpt lat="44.96303" lon="3.94673">
        <ele>887.888</ele>
        <time>2021-09-28T05:31:01Z</time>
      </trkpt>
      <trkpt lat="44.96297" lon="3.94681">
        <ele>888.616</ele>
        <time>2021-09-28T05:31:41Z</time>
      </trkpt>
      <trkpt lat="44.96291" lon="3.9469">
        <ele>889.308</ele>
        <time>2021-09-28T05:32:21Z</time>
      </trkpt>
      <trkpt lat="44.96285" lon="3.94698">
        <ele>889.982</ele>
        <time>2021-09-28T05:33:01Z</time>
      </trkpt>
      <trkpt lat="44.96279" lon="3.94706">
        <ele>890.358</ele>
        <time>2021-09-28T05:33:41Z</time>
      </trkpt>
      <trkpt lat="44.96273" lon="3.94714">
        <ele>890.893</ele>
        <time>2021-09-28T05:34:21Z</time>
      </trkpt>
      <trkpt lat="44.96267" lon="3.94722">
        <ele>891.215</ele>
        <time>2021-09-28T05:35:01Z</time>
      </trkpt>
      <trkpt lat="44.96261" lon="3.94728">
        <ele>891.123</ele>
        <time>2021-09-28T05:35:41Z</time>
      </trkpt>
      <trkpt lat="44.96255" lon="3.94735">
        <ele>890.926</ele>
        <time>2021-09-28T05:36:21Z</time>
      </trkpt>
      <trkpt lat="44.96249" lon="3.94741">
        <ele>890.638</ele>
        <time>2021-09-28T05:37:01Z</time>
      </trkpt>
      <trkpt lat="44.96247" lon="3.94747">
        <ele>890.628</ele>
        <time>2021-09-28T05:37:41Z</time>
      </trkpt>
      <trkpt lat="44.96244" lon="3.94755">
        <ele>890.774</ele>
        <time>2021-09-28T05:38:21Z</time>
      </trkpt>
      <trkpt lat="44.96221" lon="3.94791">
        <ele>891.956</ele>
        <time>2021-09-28T05:39:01Z</time>
      </trkpt>
      <trkpt lat="44.9621" lon="3.9481">
        <ele>893.121</ele>
        <time>2021-09-28T05:39:41Z</time>
      </trkpt>
      <trkpt lat="44.96207" lon="3.94814">
        <ele>893.208</ele>
        <time>2021-09-28T05:40:21Z</time>
      </trkpt>
      <trkpt lat="44.96201" lon="3.94825">
        <ele>893.935</ele>
        <time>2021-09-28T05:41:01Z</time>
      </trkpt>
      <trkpt lat="44.96195" lon="3.9484">
        <ele>895.161</ele>
        <time>2021-09-28T05:41:41Z</time>
      </trkpt>
      <trkpt lat="44.96192" lon="3.94855">
        <ele>895.986</ele>
        <time>2021-09-28T05:42:21Z</time>
      </trkpt>
      <trkpt lat="44.9619" lon="3.94867">
        <ele>896.268</ele>
        <time>2021-09-28T05:43:01Z</time>
      </trkpt>
      <trkpt lat="44.96188" lon="3.94893">
        <ele>896.916</ele>
        <time>2021-09-28T05:43:41Z</time>
      </trkpt>
      <trkpt lat="44.96189" lon="3.94918">
        <ele>898.359</ele>
        <time>2021-09-28T05:44:21Z</time>
      </trkpt>
      <trkpt lat="44.96191" lon="3.94948">
        <ele>901.441</ele>
        <time>2021-09-28T05:45:01Z</time>
      </trkpt>
      <trkpt lat="44.96197" lon="3.94981">
        <ele>904.531</ele>
        <time>2021-09-28T05:45:41Z</time>
      </trkpt>
      <trkpt lat="44.96202" lon="3.9502">
        <ele>907.673</ele>
        <time>2021-09-28T05:46:21Z</time>
      </trkpt>
      <trkpt lat="44.96207" lon="3.9506">
        <ele>909.485</ele>
        <time>2021-09-28T05:47:01Z</time>
      </trkpt>
      <trkpt lat="44.96207" lon="3.95089">
        <ele>910.013</ele>
        <time>2021-09-28T05:47:41Z</time>
      </trkpt>
      <trkpt lat="44.96208" lon="3.95107">
        <ele>909.908</ele>
        <time>2021-09-28T05:48:21Z</time>
      </trkpt>
      <trkpt lat="44.9621" lon="3.95125">
        <ele>909.775</ele>
        <time>2021-09-28T05:49:01Z</time>
      </trkpt>
      <trkpt lat="44.96213" lon="3.95181">
        <ele>910.031</ele>
        <time>2021-09-28T05:49:41Z</time>
      </trkpt>
      <trkpt lat="44.96217" lon="3.95296">
        <ele>909.436</ele>
        <time>2021-09-28T05:50:21Z</time>
      </trkpt>
      <trkpt lat="44.96222" lon="3.95365">
        <ele>910.488</ele>
        <time>2021-09-28T05:51:01Z</time>
      </trkpt>
      <trkpt lat="44.96224" lon="3.95411">
        <ele>911.566</ele>
        <time>2021-09-28T05:51:41Z</time>
      </trkpt>
      <trkpt lat="44.96226" lon="3.9544">
        <ele>909.579</ele>
        <time>2021-09-28T05:52:21Z</time>
      </trkpt>
      <trkpt lat="44.9623" lon="3.95507">
        <ele>906.611</ele>
        <time>2021-09-28T05:53:01Z</time>
      </trkpt>
      <trkpt lat="44.96233" lon="3.95565">
        <ele>911.861</ele>
        <time>2021-09-28T05:53:41Z</time>
      </trkpt>
      <trkpt lat="44.96237" lon="3.95613">
        <ele>913.949</ele>
        <time>2021-09-28T05:54:21Z</time>
      </trkpt>
      <trkpt lat="44.96239" lon="3.95631">
        <ele>914.102</ele>
        <time>2021-09-28T05:55:01Z</time>
      </trkpt>
      <trkpt lat="44.96242" lon="3.95649">
        <ele>914.122</ele>
        <time>2021-09-28T05:55:41Z</time>
      </trkpt>
      <trkpt lat="44.96243" lon="3.9566">
        <ele>914.008</ele>
        <time>2021-09-28T05:56:21Z</time>
      </trkpt>
      <trkpt lat="44.96248" lon="3.95709">
        <ele>913.112</ele>
        <time>2021-09-28T05:57:01Z</time>
      </trkpt>
      <trkpt lat="44.96249" lon="3.95721">
        <ele>912.288</ele>
        <time>2021-09-28T05:57:41Z</time>
      </trkpt>
      <trkpt lat="44.96256" lon="3.95829">
        <ele>905.633</ele>
        <time>2021-09-28T05:58:21Z</time>
      </trkpt>
      <trkpt lat="44.96257" lon="3.95855">
        <ele>900.825</ele>
        <time>2021-09-28T05:59:01Z</time>
      </trkpt>
      <trkpt lat="44.96255" lon="3.95865">
        <ele>899.973</ele>
        <time>2021-09-28T05:59:41Z</time>
      </trkpt>
      <trkpt lat="44.96251" lon="3.95877">
        <ele>898.326</ele>
        <time>2021-09-28T06:00:21Z</time>
      </trkpt>
      <trkpt lat="44.9625" lon="3.95879">
        <ele>898.298</ele>
        <time>2021-09-28T06:01:01Z</time>
      </trkpt>
      <trkpt lat="44.96243" lon="3.95892">
        <ele>897.768</ele>
        <time>2021-09-28T06:01:41Z</time>
      </trkpt>
      <trkpt lat="44.96236" lon="3.95907">
        <ele>897.048</ele>
        <time>2021-09-28T06:02:21Z</time>
      </trkpt>
      <trkpt lat="44.9623" lon="3.95918">
        <ele>896.261</ele>
        <time>2021-09-28T06:03:01Z</time>
      </trkpt>
      <trkpt lat="44.96219" lon="3.95939">
        <ele>896.217</ele>
        <time>2021-09-28T06:03:41Z</time>
      </trkpt>
      <trkpt lat="44.96219" lon="3.9594">
        <ele>896.108</ele>
        <time>2021-09-28T06:04:21Z</time>
      </trkpt>
      <trkpt lat="44.96202" lon="3.95967">
        <ele>895.782</ele>
        <time>2021-09-28T06:05:01Z</time>
      </trkpt>
      <trkpt lat="44.96182" lon="3.96007">
        <ele>894.098</ele>
        <time>2021-09-28T06:05:41Z</time>
      </trkpt>
      <trkpt lat="44.96162" lon="3.9606">
        <ele>892.783</ele>
        <time>2021-09-28T06:06:21Z</time>
      </trkpt>
      <trkpt lat="44.96157" lon="3.96076">
        <ele>891.275</ele>
        <time>2021-09-28T06:07:01Z</time>
      </trkpt>
      <trkpt lat="44.96151" lon="3.96093">
        <ele>889.513</ele>
        <time>2021-09-28T06:07:41Z</time>
      </trkpt>
      <trkpt lat="44.96143" lon="3.96116">
        <ele>887.576</ele>
        <time>2021-09-28T06:08:21Z</time>
      </trkpt>
      <trkpt lat="44.96128" lon="3.96147">
        <ele>886.018</ele>
        <time>2021-09-28T06:09:01Z</time>
      </trkpt>
      <trkpt lat="44.96117" lon="3.96159">
        <ele>885.068</ele>
        <time>2021-09-28T06:09:41Z</time>
      </trkpt>
      <trkpt lat="44.96098" lon="3.96172">
        <ele>885.779</ele>
        <time>2021-09-28T06:10:21Z</time>
      </trkpt>
      <trkpt lat="44.96087" lon="3.96181">
        <ele>886.405</ele>
        <time>2021-09-28T06:11:01Z</time>
      </trkpt>
      <trkpt lat="44.96079" lon="3.96183">
        <ele>887.325</ele>
        <time>2021-09-28T06:11:41Z</time>
      </trkpt>
      <trkpt lat="44.96069" lon="3.96183">
        <ele>889.208</ele>
        <time>2021-09-28T06:12:21Z</time>
      </trkpt>
      <trkpt lat="44.9605" lon="3.96182">
        <ele>892.775</ele>
        <time>2021-09-28T06:13:01Z</time>
      </trkpt>
      <trkpt lat="44.96031" lon="3.96189">
        <ele>894.941</ele>
        <time>2021-09-28T06:13:41Z</time>
      </trkpt>
      <trkpt lat="44.96021" lon="3.96197">
        <ele>895.376</ele>
        <time>2021-09-28T06:14:21Z</time>
      </trkpt>
      <trkpt lat="44.96014" lon="3.96205">
        <ele>895.468</ele>
        <time>2021-09-28T06:15:01Z</time>
      </trkpt>
      <trkpt lat="44.96007" lon="3.96218">
        <ele>894.366</ele>
        <time>2021-09-28T06:15:41Z</time>
      </trkpt>
      <trkpt lat="44.95998" lon="3.96243">
        <ele>893.579</ele>
        <time>2021-09-28T06:16:21Z</time>
      </trkpt>
      <trkpt lat="44.95991" lon="3.96265">
        <ele>892.741</ele>
        <time>2021-09-28T06:17:01Z</time>
      </trkpt>
      <trkpt lat="44.95986" lon="3.9628">
        <ele>891.721</ele>
        <time>2021-09-28T06:17:41Z</time>
      </trkpt>
      <trkpt lat="44.9598" lon="3.96289">
        <ele>891.649</ele>
        <time>2021-09-28T06:18:21Z</time>
      </trkpt>
      <trkpt lat="44.95958" lon="3.96309">
        <ele>893.002</ele>
        <time>2021-09-28T06:19:01Z</time>
      </trkpt>
      <trkpt lat="44.95944" lon="3.96322">
        <ele>894.422</ele>
        <time>2021-09-28T06:19:41Z</time>
      </trkpt>
      <trkpt lat="44.95934" lon="3.96333">
        <ele>895.308</ele>
        <time>2021-09-28T06:20:21Z</time>
      </trkpt>
      <trkpt lat="44.95926" lon="3.96344">
        <ele>896.452</ele>
        <time>2021-09-28T06:21:01Z</time>
      </trkpt>
      <trkpt lat="44.95917" lon="3.96361">
        <ele>898.078</ele>
        <time>2021-09-28T06:21:41Z</time>
      </trkpt>
      <trkpt lat="44.95908" lon="3.96385">
        <ele>900.733</ele>
        <time>2021-09-28T06:22:21Z</time>
      </trkpt>
      <trkpt lat="44.959" lon="3.96416">
        <ele>900.535</ele>
        <time>2021-09-28T06:23:01Z</time>
      </trkpt>
      <trkpt lat="44.95891" lon="3.96462">
        <ele>898.733</ele>
        <time>2021-09-28T06:23:41Z</time>
      </trkpt>
      <trkpt lat="44.9589" lon="3.96469">
        <ele>898.976</ele>
        <time>2021-09-28T06:24:21Z</time>
      </trkpt>
      <trkpt lat="44.95866" lon="3.96514">
        <ele>898.338</ele>
        <time>2021-09-28T06:25:01Z</time>
      </trkpt>
      <trkpt lat="44.95839" lon="3.96564">
        <ele>897.368</ele>
        <time>2021-09-28T06:25:41Z</time>
      </trkpt>
      <trkpt lat="44.95828" lon="3.96582">
        <ele>896.664</ele>
        <time>2021-09-28T06:26:21Z</time>
      </trkpt>
      <trkpt lat="44.95817" lon="3.96595">
        <ele>895.806</ele>
        <time>2021-09-28T06:27:01Z</time>
      </trkpt>
      <trkpt lat="44.95805" lon="3.96606">
        <ele>894.916</ele>
        <time>2021-09-28T06:27:41Z</time>
      </trkpt>
      <trkpt lat="44.9579" lon="3.96619">
        <ele>893.708</ele>
        <time>2021-09-28T06:28:21Z</time>
      </trkpt>
      <trkpt lat="44.95768" lon="3.96635">
        <ele>892.784</ele>
        <time>2021-09-28T06:29:01Z</time>
      </trkpt>
      <trkpt lat="44.95742" lon="3.9666">
        <ele>893.78</ele>
        <time>2021-09-28T06:29:41Z</time>
      </trkpt>
      <trkpt lat="44.95715" lon="3.96685">
        <ele>894.535</ele>
        <time>2021-09-28T06:30:21Z</time>
      </trkpt>
      <trkpt lat="44.95699" lon="3.96706">
        <ele>895.017</ele>
        <time>2021-09-28T06:31:01Z</time>
      </trkpt>
      <trkpt lat="44.95685" lon="3.96726">
        <ele>895.225</ele>
        <time>2021-09-28T06:31:41Z</time>
      </trkpt>
      <trkpt lat="44.95661" lon="3.96765">
        <ele>894.988</ele>
        <time>2021-09-28T06:32:21Z</time>
      </trkpt>
      <trkpt lat="44.9564" lon="3.96799">
        <ele>892.67</ele>
        <time>2021-09-28T06:33:01Z</time>
      </trkpt>
      <trkpt lat="44.95617" lon="3.96836">
        <ele>892.36</ele>
        <time>2021-09-28T06:33:41Z</time>
      </trkpt>
      <trkpt lat="44.95592" lon="3.96875">
        <ele>895.391</ele>
        <time>2021-09-28T06:34:21Z</time>
      </trkpt>
      <trkpt lat="44.95571" lon="3.9691">
        <ele>895.981</ele>
        <time>2021-09-28T06:35:01Z</time>
      </trkpt>
      <trkpt lat="44.95564" lon="3.96919">
        <ele>895.519</ele>
        <time>2021-09-28T06:35:41Z</time>
      </trkpt>
      <trkpt lat="44.95558" lon="3.96933">
        <ele>894.708</ele>
        <time>2021-09-28T06:36:21Z</time>
      </trkpt>
      <trkpt lat="44.95553" lon="3.96944">
        <ele>894.397</ele>
        <time>2021-09-28T06:37:01Z</time>
      </trkpt>
      <trkpt lat="44.95551" lon="3.96954">
        <ele>894.163</ele>
        <time>2021-09-28T06:37:41Z</time>
      </trkpt>
      <trkpt lat="44.95551" lon="3.96961">
        <ele>893.998</ele>
        <time>2021-09-28T06:38:21Z</time>
      </trkpt>
      <trkpt lat="44.95548" lon="3.96977">
        <ele>893.39</ele>
        <time>2021-09-28T06:39:01Z</time>
      </trkpt>
      <trkpt lat="44.95548" lon="3.96981">
        <ele>893.268</ele>
        <time>2021-09-28T06:39:41Z</time>
      </trkpt>
      <trkpt lat="44.95545" lon="3.96996">
        <ele>892.641</ele>
        <time>2021-09-28T06:40:21Z</time>
      </trkpt>
      <trkpt lat="44.95542" lon="3.97013">
        <ele>892.753</ele>
        <time>2021-09-28T06:41:01Z</time>
      </trkpt>
      <trkpt lat="44.95541" lon="3.97016">
        <ele>892.823</ele>
        <time>2021-09-28T06:41:41Z</time>
      </trkpt>
      <trkpt lat="44.95537" lon="3.97026">
        <ele>893.329</ele>
        <time>2021-09-28T06:42:21Z</time>
      </trkpt>
      <trkpt lat="44.95535" lon="3.97035">
        <ele>893.5</ele>
        <time>2021-09-28T06:43:01Z</time>
      </trkpt>
      <trkpt lat="44.95535" lon="3.97045">
        <ele>893.52</ele>
        <time>2021-09-28T06:43:41Z</time>
      </trkpt>
      <trkpt lat="44.95537" lon="3.97061">
        <ele>893.308</ele>
        <time>2021-09-28T06:44:21Z</time>
      </trkpt>
      <trkpt lat="44.95537" lon="3.97064">
        <ele>893.25</ele>
        <time>2021-09-28T06:45:01Z</time>
      </trkpt>
      <trkpt lat="44.95523" lon="3.97063">
        <ele>894.226</ele>
        <time>2021-09-28T06:45:41Z</time>
      </trkpt>
      <trkpt lat="44.95513" lon="3.97061">
        <ele>894.561</ele>
        <time>2021-09-28T06:46:21Z</time>
      </trkpt>
      <trkpt lat="44.95503" lon="3.97059">
        <ele>894.933</ele>
        <time>2021-09-28T06:47:01Z</time>
      </trkpt>
      <trkpt lat="44.95498" lon="3.97057">
        <ele>895.221</ele>
        <time>2021-09-28T06:47:41Z</time>
      </trkpt>
      <trkpt lat="44.95495" lon="3.97058">
        <ele>895.654</ele>
        <time>2021-09-28T06:48:21Z</time>
      </trkpt>
      <trkpt lat="44.95488" lon="3.97065">
        <ele>896.596</ele>
        <time>2021-09-28T06:49:01Z</time>
      </trkpt>
      <trkpt lat="44.95479" lon="3.97072">
        <ele>897.876</ele>
        <time>2021-09-28T06:49:41Z</time>
      </trkpt>
      <trkpt lat="44.95473" lon="3.97074">
        <ele>898.683</ele>
        <time>2021-09-28T06:50:21Z</time>
      </trkpt>
      <trkpt lat="44.95465" lon="3.97075">
        <ele>900.125</ele>
        <time>2021-09-28T06:51:01Z</time>
      </trkpt>
      <trkpt lat="44.95461" lon="3.97079">
        <ele>901.017</ele>
        <time>2021-09-28T06:51:41Z</time>
      </trkpt>
      <trkpt lat="44.95458" lon="3.97089">
        <ele>901.708</ele>
        <time>2021-09-28T06:52:21Z</time>
      </trkpt>
      <trkpt lat="44.95456" lon="3.97097">
        <ele>902.356</ele>
        <time>2021-09-28T06:53:01Z</time>
      </trkpt>
      <trkpt lat="44.95453" lon="3.971">
        <ele>902.972</ele>
        <time>2021-09-28T06:53:41Z</time>
      </trkpt>
      <trkpt lat="44.95434" lon="3.971">
        <ele>905.697</ele>
        <time>2021-09-28T06:54:21Z</time>
      </trkpt>
      <trkpt lat="44.95412" lon="3.971">
        <ele>909.019</ele>
        <time>2021-09-28T06:55:01Z</time>
      </trkpt>
      <trkpt lat="44.95386" lon="3.97106">
        <ele>912.427</ele>
        <time>2021-09-28T06:55:41Z</time>
      </trkpt>
      <trkpt lat="44.95364" lon="3.97112">
        <ele>915.65</ele>
        <time>2021-09-28T06:56:21Z</time>
      </trkpt>
      <trkpt lat="44.9536" lon="3.97113">
        <ele>916.392</ele>
        <time>2021-09-28T06:57:01Z</time>
      </trkpt>
      <trkpt lat="44.95347" lon="3.97117">
        <ele>918.972</ele>
        <time>2021-09-28T06:57:41Z</time>
      </trkpt>
      <trkpt lat="44.95338" lon="3.97123">
        <ele>920.992</ele>
        <time>2021-09-28T06:58:21Z</time>
      </trkpt>
      <trkpt lat="44.95339" lon="3.97103">
        <ele>921.673</ele>
        <time>2021-09-28T06:59:01Z</time>
      </trkpt>
      <trkpt lat="44.95338" lon="3.97097">
        <ele>922.62</ele>
        <time>2021-09-28T06:59:41Z</time>
      </trkpt>
      <trkpt lat="44.95334" lon="3.97094">
        <ele>923.708</ele>
        <time>2021-09-28T07:00:21Z</time>
      </trkpt>
      <trkpt lat="44.95304" lon="3.97088">
        <ele>932.667</ele>
        <time>2021-09-28T07:01:01Z</time>
      </trkpt>
      <trkpt lat="44.95287" lon="3.97082">
        <ele>936.673</ele>
        <time>2021-09-28T07:01:41Z</time>
      </trkpt>
      <trkpt lat="44.95277" lon="3.97075">
        <ele>939.468</ele>
        <time>2021-09-28T07:02:21Z</time>
      </trkpt>
      <trkpt lat="44.95262" lon="3.97067">
        <ele>942.99</ele>
        <time>2021-09-28T07:03:01Z</time>
      </trkpt>
      <trkpt lat="44.95242" lon="3.97055">
        <ele>947.268</ele>
        <time>2021-09-28T07:03:41Z</time>
      </trkpt>
      <trkpt lat="44.95226" lon="3.97047">
        <ele>950.521</ele>
        <time>2021-09-28T07:04:21Z</time>
      </trkpt>
      <trkpt lat="44.95208" lon="3.9704">
        <ele>954.123</ele>
        <time>2021-09-28T07:05:01Z</time>
      </trkpt>
      <trkpt lat="44.95186" lon="3.97036">
        <ele>959.273</ele>
        <time>2021-09-28T07:05:41Z</time>
      </trkpt>
      <trkpt lat="44.95153" lon="3.97028">
        <ele>969.048</ele>
        <time>2021-09-28T07:06:21Z</time>
      </trkpt>
      <trkpt lat="44.95131" lon="3.97022">
        <ele>972.861</ele>
        <time>2021-09-28T07:07:01Z</time>
      </trkpt>
      <trkpt lat="44.95122" lon="3.97022">
        <ele>973.417</ele>
        <time>2021-09-28T07:07:41Z</time>
      </trkpt>
      <trkpt lat="44.95114" lon="3.97024">
        <ele>973.908</ele>
        <time>2021-09-28T07:08:21Z</time>
      </trkpt>
      <trkpt lat="44.95105" lon="3.97029">
        <ele>974.422</ele>
        <time>2021-09-28T07:09:01Z</time>
      </trkpt>
      <trkpt lat="44.95092" lon="3.97033">
        <ele>975.338</ele>
        <time>2021-09-28T07:09:41Z</time>
      </trkpt>
      <trkpt lat="44.95082" lon="3.97034">
        <ele>976.113</ele>
        <time>2021-09-28T07:10:21Z</time>
      </trkpt>
      <trkpt lat="44.95079" lon="3.97034">
        <ele>976.165</ele>
        <time>2021-09-28T07:11:01Z</time>
      </trkpt>
      <trkpt lat="44.95061" lon="3.97035">
        <ele>976.843</ele>
        <time>2021-09-28T07:11:41Z</time>
      </trkpt>
      <trkpt lat="44.95045" lon="3.97036">
        <ele>977.136</ele>
        <time>2021-09-28T07:12:21Z</time>
      </trkpt>
      <trkpt lat="44.9503" lon="3.97038">
        <ele>977.348</ele>
        <time>2021-09-28T07:13:01Z</time>
      </trkpt>
      <trkpt lat="44.94999" lon="3.97035">
        <ele>978.028</ele>
        <time>2021-09-28T07:13:41Z</time>
      </trkpt>
      <trkpt lat="44.94977" lon="3.97031">
        <ele>977.441</ele>
        <time>2021-09-28T07:14:21Z</time>
      </trkpt>
      <trkpt lat="44.94962" lon="3.97031">
        <ele>977.281</ele>
        <time>2021-09-28T07:15:01Z</time>
      </trkpt>
      <trkpt lat="44.94954" lon="3.9703">
        <ele>977.109</ele>
        <time>2021-09-28T07:15:41Z</time>
      </trkpt>
      <trkpt lat="44.9495" lon="3.97033">
        <ele>977.208</ele>
        <time>2021-09-28T07:16:21Z</time>
      </trkpt>
      <trkpt lat="44.94945" lon="3.97032">
        <ele>977.262</ele>
        <time>2021-09-28T07:17:01Z</time>
      </trkpt>
      <trkpt lat="44.94939" lon="3.9703">
        <ele>977.138</ele>
        <time>2021-09-28T07:17:41Z</time>
      </trkpt>
      <trkpt lat="44.94932" lon="3.97026">
        <ele>977.023</ele>
        <time>2021-09-28T07:18:21Z</time>
      </trkpt>
      <trkpt lat="44.94931" lon="3.97026">
        <ele>977.055</ele>
        <time>2021-09-28T07:19:01Z</time>
      </trkpt>
      <trkpt lat="44.94923" lon="3.9702">
        <ele>977.043</ele>
        <time>2021-09-28T07:19:41Z</time>
      </trkpt>
      <trkpt lat="44.9491" lon="3.97014">
        <ele>977.136</ele>
        <time>2021-09-28T07:20:21Z</time>
      </trkpt>
      <trkpt lat="44.94891" lon="3.97006">
        <ele>977.268</ele>
        <time>2021-09-28T07:21:01Z</time>
      </trkpt>
      <trkpt lat="44.94885" lon="3.97005">
        <ele>977.318</ele>
        <time>2021-09-28T07:21:41Z</time>
      </trkpt>
      <trkpt lat="44.94875" lon="3.97002">
        <ele>977.668</ele>
        <time>2021-09-28T07:22:21Z</time>
      </trkpt>
      <trkpt lat="44.94866" lon="3.97002">
        <ele>977.942</ele>
        <time>2021-09-28T07:23:01Z</time>
      </trkpt>
      <trkpt lat="44.94859" lon="3.97005">
        <ele>978.126</ele>
        <time>2021-09-28T07:23:41Z</time>
      </trkpt>
      <trkpt lat="44.94856" lon="3.97006">
        <ele>978.108</ele>
        <time>2021-09-28T07:24:21Z</time>
      </trkpt>
      <trkpt lat="44.94852" lon="3.97009">
        <ele>978.114</ele>
        <time>2021-09-28T07:25:01Z</time>
      </trkpt>
      <trkpt lat="44.94842" lon="3.97014">
        <ele>978.16</ele>
        <time>2021-09-28T07:25:41Z</time>
      </trkpt>
      <trkpt lat="44.94829" lon="3.97022">
        <ele>978.415</ele>
        <time>2021-09-28T07:26:21Z</time>
      </trkpt>
      <trkpt lat="44.94818" lon="3.97034">
        <ele>978.367</ele>
        <time>2021-09-28T07:27:01Z</time>
      </trkpt>
      <trkpt lat="44.94816" lon="3.97037">
        <ele>978.345</ele>
        <time>2021-09-28T07:27:41Z</time>
      </trkpt>
      <trkpt lat="44.94792" lon="3.9706">
        <ele>978.778</ele>
        <time>2021-09-28T07:28:21Z</time>
      </trkpt>
      <trkpt lat="44.94782" lon="3.97068">
        <ele>978.65</ele>
        <time>2021-09-28T07:29:01Z</time>
      </trkpt>
      <trkpt lat="44.94773" lon="3.97073">
        <ele>978.61</ele>
        <time>2021-09-28T07:29:41Z</time>
      </trkpt>
      <trkpt lat="44.94775" lon="3.97076">
        <ele>978.732</ele>
        <time>2021-09-28T07:30:21Z</time>
      </trkpt>
      <trkpt lat="44.94779" lon="3.97094">
        <ele>979.492</ele>
        <time>2021-09-28T07:31:01Z</time>
      </trkpt>
      <trkpt lat="44.94781" lon="3.97101">
        <ele>979.711</ele>
        <time>2021-09-28T07:31:41Z</time>
      </trkpt>
      <trkpt lat="44.94784" lon="3.97112">
        <ele>980.008</ele>
        <time>2021-09-28T07:32:21Z</time>
      </trkpt>
      <trkpt lat="44.94785" lon="3.97122">
        <ele>980.481</ele>
        <time>2021-09-28T07:33:01Z</time>
      </trkpt>
      <trkpt lat="44.94782" lon="3.97132">
        <ele>980.767</ele>
        <time>2021-09-28T07:33:41Z</time>
      </trkpt>
      <trkpt lat="44.94776" lon="3.97141">
        <ele>981.192</ele>
        <time>2021-09-28T07:34:21Z</time>
      </trkpt>
      <trkpt lat="44.94771" lon="3.97147">
        <ele>981.374</ele>
        <time>2021-09-28T07:35:01Z</time>
      </trkpt>
      <trkpt lat="44.94768" lon="3.97151">
        <ele>981.652</ele>
        <time>2021-09-28T07:35:41Z</time>
      </trkpt>
      <trkpt lat="44.94757" lon="3.97161">
        <ele>982.445</ele>
        <time>2021-09-28T07:36:21Z</time>
      </trkpt>
      <trkpt lat="44.94749" lon="3.97165">
        <ele>983.097</ele>
        <time>2021-09-28T07:37:01Z</time>
      </trkpt>
      <trkpt lat="44.94737" lon="3.9717">
        <ele>983.537</ele>
        <time>2021-09-28T07:37:41Z</time>
      </trkpt>
      <trkpt lat="44.94725" lon="3.97169">
        <ele>983.938</ele>
        <time>2021-09-28T07:38:21Z</time>
      </trkpt>
      <trkpt lat="44.94714" lon="3.97167">
        <ele>983.77</ele>
        <time>2021-09-28T07:39:01Z</time>
      </trkpt>
      <trkpt lat="44.94708" lon="3.97168">
        <ele>983.517</ele>
        <time>2021-09-28T07:39:41Z</time>
      </trkpt>
      <trkpt lat="44.94703" lon="3.97171">
        <ele>983.308</ele>
        <time>2021-09-28T07:40:21Z</time>
      </trkpt>
      <trkpt lat="44.947" lon="3.97176">
        <ele>983.251</ele>
        <time>2021-09-28T07:41:01Z</time>
      </trkpt>
      <trkpt lat="44.94698" lon="3.97175">
        <ele>983.167</ele>
        <time>2021-09-28T07:41:41Z</time>
      </trkpt>
      <trkpt lat="44.94684" lon="3.97176">
        <ele>982.912</ele>
        <time>2021-09-28T07:42:21Z</time>
      </trkpt>
      <trkpt lat="44.94667" lon="3.97179">
        <ele>982.984</ele>
        <time>2021-09-28T07:43:01Z</time>
      </trkpt>
      <trkpt lat="44.9466" lon="3.97183">
        <ele>983.182</ele>
        <time>2021-09-28T07:43:41Z</time>
      </trkpt>
      <trkpt lat="44.94656" lon="3.97186">
        <ele>983.215</ele>
        <time>2021-09-28T07:44:21Z</time>
      </trkpt>
      <trkpt lat="44.94649" lon="3.9719">
        <ele>983.287</ele>
        <time>2021-09-28T07:45:01Z</time>
      </trkpt>
      <trkpt lat="44.94644" lon="3.97192">
        <ele>983.117</ele>
        <time>2021-09-28T07:45:41Z</time>
      </trkpt>
      <trkpt lat="44.9464" lon="3.97196">
        <ele>983.196</ele>
        <time>2021-09-28T07:46:21Z</time>
      </trkpt>
      <trkpt lat="44.94635" lon="3.97202">
        <ele>982.631</ele>
        <time>2021-09-28T07:47:01Z</time>
      </trkpt>
      <trkpt lat="44.94621" lon="3.97216">
        <ele>980.124</ele>
        <time>2021-09-28T07:47:41Z</time>
      </trkpt>
      <trkpt lat="44.94614" lon="3.97226">
        <ele>978.808</ele>
        <time>2021-09-28T07:48:21Z</time>
      </trkpt>
      <trkpt lat="44.94608" lon="3.97236">
        <ele>978.197</ele>
        <time>2021-09-28T07:49:01Z</time>
      </trkpt>
      <trkpt lat="44.94603" lon="3.97248">
        <ele>977.823</ele>
        <time>2021-09-28T07:49:41Z</time>
      </trkpt>
      <trkpt lat="44.946" lon="3.97263">
        <ele>978.048</ele>
        <time>2021-09-28T07:50:21Z</time>
      </trkpt>
      <trkpt lat="44.94596" lon="3.9728">
        <ele>977.92</ele>
        <time>2021-09-28T07:51:01Z</time>
      </trkpt>
      <trkpt lat="44.94592" lon="3.97298">
        <ele>977.938</ele>
        <time>2021-09-28T07:51:41Z</time>
      </trkpt>
      <trkpt lat="44.94589" lon="3.97314">
        <ele>978.021</ele>
        <time>2021-09-28T07:52:21Z</time>
      </trkpt>
      <trkpt lat="44.94586" lon="3.9733">
        <ele>978.393</ele>
        <time>2021-09-28T07:53:01Z</time>
      </trkpt>
      <trkpt lat="44.94586" lon="3.97341">
        <ele>978.883</ele>
        <time>2021-09-28T07:53:41Z</time>
      </trkpt>
      <trkpt lat="44.94588" lon="3.97352">
        <ele>979.464</ele>
        <time>2021-09-28T07:54:21Z</time>
      </trkpt>
      <trkpt lat="44.94593" lon="3.97371">
        <ele>980.706</ele>
        <time>2021-09-28T07:55:01Z</time>
      </trkpt>
      <trkpt lat="44.94594" lon="3.97382">
        <ele>981.316</ele>
        <time>2021-09-28T07:55:41Z</time>
      </trkpt>
      <trkpt lat="44.94595" lon="3.97392">
        <ele>981.708</ele>
        <time>2021-09-28T07:56:21Z</time>
      </trkpt>
      <trkpt lat="44.94593" lon="3.9741">
        <ele>982.234</ele>
        <time>2021-09-28T07:57:01Z</time>
      </trkpt>
      <trkpt lat="44.94594" lon="3.97424">
        <ele>982.85</ele>
        <time>2021-09-28T07:57:41Z</time>
      </trkpt>
      <trkpt lat="44.94597" lon="3.97444">
        <ele>984.085</ele>
        <time>2021-09-28T07:58:21Z</time>
      </trkpt>
      <trkpt lat="44.94603" lon="3.97484">
        <ele>984.937</ele>
        <time>2021-09-28T07:59:01Z</time>
      </trkpt>
      <trkpt lat="44.94611" lon="3.97539">
        <ele>984.245</ele>
        <time>2021-09-28T07:59:41Z</time>
      </trkpt>
      <trkpt lat="44.9461" lon="3.97553">
        <ele>982.998</ele>
        <time>2021-09-28T08:00:21Z</time>
      </trkpt>
      <trkpt lat="44.94611" lon="3.97566">
        <ele>982.25</ele>
        <time>2021-09-28T08:01:01Z</time>
      </trkpt>
      <trkpt lat="44.94611" lon="3.9757">
        <ele>982.08</ele>
        <time>2021-09-28T08:01:41Z</time>
      </trkpt>
      <trkpt lat="44.94612" lon="3.97576">
        <ele>981.783</ele>
        <time>2021-09-28T08:02:21Z</time>
      </trkpt>
      <trkpt lat="44.94614" lon="3.97587">
        <ele>981.325</ele>
        <time>2021-09-28T08:03:01Z</time>
      </trkpt>
      <trkpt lat="44.94615" lon="3.97596">
        <ele>981.117</ele>
        <time>2021-09-28T08:03:41Z</time>
      </trkpt>
      <trkpt lat="44.94617" lon="3.97604">
        <ele>980.908</ele>
        <time>2021-09-28T08:04:21Z</time>
      </trkpt>
      <trkpt lat="44.94618" lon="3.97614">
        <ele>980.726</ele>
        <time>2021-09-28T08:05:01Z</time>
      </trkpt>
      <trkpt lat="44.94618" lon="3.97624">
        <ele>981.082</ele>
        <time>2021-09-28T08:05:41Z</time>
      </trkpt>
      <trkpt lat="44.9462" lon="3.97638">
        <ele>981.597</ele>
        <time>2021-09-28T08:06:21Z</time>
      </trkpt>
      <trkpt lat="44.94622" lon="3.97665">
        <ele>981.379</ele>
        <time>2021-09-28T08:07:01Z</time>
      </trkpt>
      <trkpt lat="44.94626" lon="3.97695">
        <ele>982.277</ele>
        <time>2021-09-28T08:07:41Z</time>
      </trkpt>
      <trkpt lat="44.94628" lon="3.97714">
        <ele>982.14</ele>
        <time>2021-09-28T08:08:21Z</time>
      </trkpt>
      <trkpt lat="44.94631" lon="3.9774">
        <ele>982.992</ele>
        <time>2021-09-28T08:09:01Z</time>
      </trkpt>
      <trkpt lat="44.94635" lon="3.97748">
        <ele>983.912</ele>
        <time>2021-09-28T08:09:41Z</time>
      </trkpt>
      <trkpt lat="44.94635" lon="3.97763">
        <ele>985.154</ele>
        <time>2021-09-28T08:10:21Z</time>
      </trkpt>
      <trkpt lat="44.94634" lon="3.97797">
        <ele>987.256</ele>
        <time>2021-09-28T08:11:01Z</time>
      </trkpt>
      <trkpt lat="44.94629" lon="3.97845">
        <ele>987.411</ele>
        <time>2021-09-28T08:11:41Z</time>
      </trkpt>
      <trkpt lat="44.94624" lon="3.97883">
        <ele>986.408</ele>
        <time>2021-09-28T08:12:21Z</time>
      </trkpt>
      <trkpt lat="44.94618" lon="3.97919">
        <ele>986.013</ele>
        <time>2021-09-28T08:13:01Z</time>
      </trkpt>
      <trkpt lat="44.94618" lon="3.97941">
        <ele>986.679</ele>
        <time>2021-09-28T08:13:41Z</time>
      </trkpt>
      <trkpt lat="44.94619" lon="3.97953">
        <ele>987.664</ele>
        <time>2021-09-28T08:14:21Z</time>
      </trkpt>
      <trkpt lat="44.94618" lon="3.97971">
        <ele>989.086</ele>
        <time>2021-09-28T08:15:01Z</time>
      </trkpt>
      <trkpt lat="44.94615" lon="3.97997">
        <ele>989.474</ele>
        <time>2021-09-28T08:15:41Z</time>
      </trkpt>
      <trkpt lat="44.94614" lon="3.98014">
        <ele>989.887</ele>
        <time>2021-09-28T08:16:21Z</time>
      </trkpt>
      <trkpt lat="44.94615" lon="3.98032">
        <ele>990.149</ele>
        <time>2021-09-28T08:17:01Z</time>
      </trkpt>
      <trkpt lat="44.94614" lon="3.98061">
        <ele>988.939</ele>
        <time>2021-09-28T08:17:41Z</time>
      </trkpt>
      <trkpt lat="44.94614" lon="3.98089">
        <ele>987.437</ele>
        <time>2021-09-28T08:18:21Z</time>
      </trkpt>
      <trkpt lat="44.94616" lon="3.98115">
        <ele>987.949</ele>
        <time>2021-09-28T08:19:01Z</time>
      </trkpt>
      <trkpt lat="44.94618" lon="3.98138">
        <ele>988.213</ele>
        <time>2021-09-28T08:19:41Z</time>
      </trkpt>
      <trkpt lat="44.94619" lon="3.9816">
        <ele>987.108</ele>
        <time>2021-09-28T08:20:21Z</time>
      </trkpt>
      <trkpt lat="44.9462" lon="3.98181">
        <ele>986.191</ele>
        <time>2021-09-28T08:21:01Z</time>
      </trkpt>
      <trkpt lat="44.94622" lon="3.98197">
        <ele>985.667</ele>
        <time>2021-09-28T08:21:41Z</time>
      </trkpt>
      <trkpt lat="44.94626" lon="3.98213">
        <ele>984.752</ele>
        <time>2021-09-28T08:22:21Z</time>
      </trkpt>
      <trkpt lat="44.94634" lon="3.98236">
        <ele>983.164</ele>
        <time>2021-09-28T08:23:01Z</time>
      </trkpt>
      <trkpt lat="44.9464" lon="3.98249">
        <ele>982.282</ele>
        <time>2021-09-28T08:23:41Z</time>
      </trkpt>
      <trkpt lat="44.94646" lon="3.9826">
        <ele>981.145</ele>
        <time>2021-09-28T08:24:21Z</time>
      </trkpt>
      <trkpt lat="44.94652" lon="3.9827">
        <ele>979.927</ele>
        <time>2021-09-28T08:25:01Z</time>
      </trkpt>
      <trkpt lat="44.94658" lon="3.98274">
        <ele>979.137</ele>
        <time>2021-09-28T08:25:41Z</time>
      </trkpt>
      <trkpt lat="44.94662" lon="3.98279">
        <ele>978.157</ele>
        <time>2021-09-28T08:26:21Z</time>
      </trkpt>
      <trkpt lat="44.94664" lon="3.98292">
        <ele>975.5</ele>
        <time>2021-09-28T08:27:01Z</time>
      </trkpt>
      <trkpt lat="44.94667" lon="3.98314">
        <ele>971.02</ele>
        <time>2021-09-28T08:27:41Z</time>
      </trkpt>
      <trkpt lat="44.94668" lon="3.98333">
        <ele>967.008</ele>
        <time>2021-09-28T08:28:21Z</time>
      </trkpt>
      <trkpt lat="44.94669" lon="3.98364">
        <ele>962.773</ele>
        <time>2021-09-28T08:29:01Z</time>
      </trkpt>
      <trkpt lat="44.94667" lon="3.9839">
        <ele>959.829</ele>
        <time>2021-09-28T08:29:41Z</time>
      </trkpt>
      <trkpt lat="44.94666" lon="3.98411">
        <ele>956.774</ele>
        <time>2021-09-28T08:30:21Z</time>
      </trkpt>
      <trkpt lat="44.94668" lon="3.9843">
        <ele>954.526</ele>
        <time>2021-09-28T08:31:01Z</time>
      </trkpt>
      <trkpt lat="44.9467" lon="3.98438">
        <ele>953.524</ele>
        <time>2021-09-28T08:31:41Z</time>
      </trkpt>
      <trkpt lat="44.94672" lon="3.98448">
        <ele>952.217</ele>
        <time>2021-09-28T08:32:21Z</time>
      </trkpt>
      <trkpt lat="44.94678" lon="3.98464">
        <ele>950.039</ele>
        <time>2021-09-28T08:33:01Z</time>
      </trkpt>
      <trkpt lat="44.9468" lon="3.98477">
        <ele>948.349</ele>
        <time>2021-09-28T08:33:41Z</time>
      </trkpt>
      <trkpt lat="44.94682" lon="3.98486">
        <ele>947.145</ele>
        <time>2021-09-28T08:34:21Z</time>
      </trkpt>
      <trkpt lat="44.94677" lon="3.98507">
        <ele>944.347</ele>
        <time>2021-09-28T08:35:01Z</time>
      </trkpt>
      <trkpt lat="44.9467" lon="3.98537">
        <ele>941.211</ele>
        <time>2021-09-28T08:35:41Z</time>
      </trkpt>
      <trkpt lat="44.94667" lon="3.98573">
        <ele>936.408</ele>
        <time>2021-09-28T08:36:21Z</time>
      </trkpt>
      <trkpt lat="44.94666" lon="3.98596">
        <ele>934.192</ele>
        <time>2021-09-28T08:37:01Z</time>
      </trkpt>
      <trkpt lat="44.9467" lon="3.98622">
        <ele>932.448</ele>
        <time>2021-09-28T08:37:41Z</time>
      </trkpt>
      <trkpt lat="44.94673" lon="3.98647">
        <ele>931.143</ele>
        <time>2021-09-28T08:38:21Z</time>
      </trkpt>
      <trkpt lat="44.94682" lon="3.98687">
        <ele>930.585</ele>
        <time>2021-09-28T08:39:01Z</time>
      </trkpt>
      <trkpt lat="44.94687" lon="3.98714">
        <ele>931.463</ele>
        <time>2021-09-28T08:39:41Z</time>
      </trkpt>
      <trkpt lat="44.9469" lon="3.98734">
        <ele>931.956</ele>
        <time>2021-09-28T08:40:21Z</time>
      </trkpt>
      <trkpt lat="44.9469" lon="3.98758">
        <ele>932.038</ele>
        <time>2021-09-28T08:41:01Z</time>
      </trkpt>
      <trkpt lat="44.94687" lon="3.98785">
        <ele>931.638</ele>
        <time>2021-09-28T08:41:41Z</time>
      </trkpt>
      <trkpt lat="44.94678" lon="3.98823">
        <ele>930.265</ele>
        <time>2021-09-28T08:42:21Z</time>
      </trkpt>
      <trkpt lat="44.94671" lon="3.98858">
        <ele>929.368</ele>
        <time>2021-09-28T08:43:01Z</time>
      </trkpt>
      <trkpt lat="44.94663" lon="3.98887">
        <ele>929.814</ele>
        <time>2021-09-28T08:43:41Z</time>
      </trkpt>
      <trkpt lat="44.94676" lon="3.98902">
        <ele>930.808</ele>
        <time>2021-09-28T08:44:21Z</time>
      </trkpt>
      <trkpt lat="44.9467" lon="3.98916">
        <ele>931.124</ele>
        <time>2021-09-28T08:45:01Z</time>
      </trkpt>
      <trkpt lat="44.94659" lon="3.98932">
        <ele>931.66</ele>
        <time>2021-09-28T08:45:41Z</time>
      </trkpt>
      <trkpt lat="44.94645" lon="3.98945">
        <ele>931.535</ele>
        <time>2021-09-28T08:46:21Z</time>
      </trkpt>
      <trkpt lat="44.94627" lon="3.9896">
        <ele>931.817</ele>
        <time>2021-09-28T08:47:01Z</time>
      </trkpt>
      <trkpt lat="44.9459" lon="3.98985">
        <ele>931.695</ele>
        <time>2021-09-28T08:47:41Z</time>
      </trkpt>
      <trkpt lat="44.9456" lon="3.99006">
        <ele>932.838</ele>
        <time>2021-09-28T08:48:21Z</time>
      </trkpt>
      <trkpt lat="44.94527" lon="3.99029">
        <ele>934.11</ele>
        <time>2021-09-28T08:49:01Z</time>
      </trkpt>
      <trkpt lat="44.94495" lon="3.9905">
        <ele>936.68</ele>
        <time>2021-09-28T08:49:41Z</time>
      </trkpt>
      <trkpt lat="44.94472" lon="3.99062">
        <ele>937.482</ele>
        <time>2021-09-28T08:50:21Z</time>
      </trkpt>
      <trkpt lat="44.94441" lon="3.99079">
        <ele>936.643</ele>
        <time>2021-09-28T08:51:01Z</time>
      </trkpt>
      <trkpt lat="44.94415" lon="3.99096">
        <ele>935.917</ele>
        <time>2021-09-28T08:51:41Z</time>
      </trkpt>
      <trkpt lat="44.944" lon="3.99108">
        <ele>936.208</ele>
        <time>2021-09-28T08:52:21Z</time>
      </trkpt>
      <trkpt lat="44.94377" lon="3.9913">
        <ele>935.176</ele>
        <time>2021-09-28T08:53:01Z</time>
      </trkpt>
      <trkpt lat="44.94367" lon="3.99141">
        <ele>934.192</ele>
        <time>2021-09-28T08:53:41Z</time>
      </trkpt>
      <trkpt lat="44.94366" lon="3.99143">
        <ele>934.057</ele>
        <time>2021-09-28T08:54:21Z</time>
      </trkpt>
      <trkpt lat="44.94364" lon="3.99145">
        <ele>933.919</ele>
        <time>2021-09-28T08:55:01Z</time>
      </trkpt>
      <trkpt lat="44.94363" lon="3.99147">
        <ele>933.877</ele>
        <time>2021-09-28T08:55:41Z</time>
      </trkpt>
      <trkpt lat="44.94362" lon="3.99148">
        <ele>933.84</ele>
        <time>2021-09-28T08:56:21Z</time>
      </trkpt>
      <trkpt lat="44.94361" lon="3.9915">
        <ele>933.772</ele>
        <time>2021-09-28T08:57:01Z</time>
      </trkpt>
      <trkpt lat="44.94359" lon="3.99151">
        <ele>933.772</ele>
        <time>2021-09-28T08:57:41Z</time>
      </trkpt>
      <trkpt lat="44.94358" lon="3.99153">
        <ele>933.737</ele>
        <time>2021-09-28T08:58:21Z</time>
      </trkpt>
      <trkpt lat="44.94357" lon="3.99154">
        <ele>933.749</ele>
        <time>2021-09-28T08:59:01Z</time>
      </trkpt>
      <trkpt lat="44.94356" lon="3.99156">
        <ele>933.713</ele>
        <time>2021-09-28T08:59:41Z</time>
      </trkpt>
      <trkpt lat="44.94355" lon="3.99157">
        <ele>933.708</ele>
        <time>2021-09-28T09:00:21Z</time>
      </trkpt>
      <trkpt lat="44.94353" lon="3.99159">
        <ele>933.731</ele>
        <time>2021-09-28T09:01:01Z</time>
      </trkpt>
      <trkpt lat="44.94352" lon="3.9916">
        <ele>933.667</ele>
        <time>2021-09-28T09:01:41Z</time>
      </trkpt>
      <trkpt lat="44.94351" lon="3.99162">
        <ele>933.682</ele>
        <time>2021-09-28T09:02:21Z</time>
      </trkpt>
      <trkpt lat="44.9435" lon="3.99163">
        <ele>933.664</ele>
        <time>2021-09-28T09:03:01Z</time>
      </trkpt>
      <trkpt lat="44.94348" lon="3.99165">
        <ele>933.562</ele>
        <time>2021-09-28T09:03:41Z</time>
      </trkpt>
      <trkpt lat="44.94347" lon="3.99167">
        <ele>933.595</ele>
        <time>2021-09-28T09:04:21Z</time>
      </trkpt>
      <trkpt lat="44.94346" lon="3.99168">
        <ele>933.577</ele>
        <time>2021-09-28T09:05:01Z</time>
      </trkpt>
      <trkpt lat="44.94345" lon="3.9917">
        <ele>933.487</ele>
        <time>2021-09-28T09:05:41Z</time>
      </trkpt>
      <trkpt lat="44.94343" lon="3.99171">
        <ele>933.416</ele>
        <time>2021-09-28T09:06:21Z</time>
      </trkpt>
      <trkpt lat="44.94342" lon="3.99173">
        <ele>933.476</ele>
        <time>2021-09-28T09:07:01Z</time>
      </trkpt>
      <trkpt lat="44.94341" lon="3.99175">
        <ele>933.413</ele>
        <time>2021-09-28T09:07:41Z</time>
      </trkpt>
      <trkpt lat="44.9434" lon="3.99176">
        <ele>933.408</ele>
        <time>2021-09-28T09:08:21Z</time>
      </trkpt>
      <trkpt lat="44.94338" lon="3.99178">
        <ele>933.339</ele>
        <time>2021-09-28T09:09:01Z</time>
      </trkpt>
      <trkpt lat="44.94337" lon="3.99179">
        <ele>933.315</ele>
        <time>2021-09-28T09:09:41Z</time>
      </trkpt>
      <trkpt lat="44.94336" lon="3.99181">
        <ele>933.37</ele>
        <time>2021-09-28T09:10:21Z</time>
      </trkpt>
      <trkpt lat="44.94335" lon="3.99183">
        <ele>933.392</ele>
        <time>2021-09-28T09:11:01Z</time>
      </trkpt>
      <trkpt lat="44.94333" lon="3.99184">
        <ele>933.32</ele>
        <time>2021-09-28T09:11:41Z</time>
      </trkpt>
      <trkpt lat="44.94332" lon="3.99186">
        <ele>933.363</ele>
        <time>2021-09-28T09:12:21Z</time>
      </trkpt>
      <trkpt lat="44.94331" lon="3.99187">
        <ele>933.495</ele>
        <time>2021-09-28T09:13:01Z</time>
      </trkpt>
      <trkpt lat="44.9433" lon="3.99189">
        <ele>933.415</ele>
        <time>2021-09-28T09:13:41Z</time>
      </trkpt>
      <trkpt lat="44.94328" lon="3.99191">
        <ele>933.439</ele>
        <time>2021-09-28T09:14:21Z</time>
      </trkpt>
      <trkpt lat="44.94327" lon="3.99192">
        <ele>933.401</ele>
        <time>2021-09-28T09:15:01Z</time>
      </trkpt>
      <trkpt lat="44.94326" lon="3.99194">
        <ele>933.421</ele>
        <time>2021-09-28T09:15:41Z</time>
      </trkpt>
      <trkpt lat="44.94325" lon="3.99195">
        <ele>933.408</ele>
        <time>2021-09-28T09:16:21Z</time>
      </trkpt>
      <trkpt lat="44.94323" lon="3.99197">
        <ele>933.441</ele>
        <time>2021-09-28T09:17:01Z</time>
      </trkpt>
      <trkpt lat="44.94322" lon="3.99199">
        <ele>933.377</ele>
        <time>2021-09-28T09:17:41Z</time>
      </trkpt>
      <trkpt lat="44.94321" lon="3.992">
        <ele>933.342</ele>
        <time>2021-09-28T09:18:21Z</time>
      </trkpt>
      <trkpt lat="44.9432" lon="3.99202">
        <ele>933.324</ele>
        <time>2021-09-28T09:19:01Z</time>
      </trkpt>
      <trkpt lat="44.94318" lon="3.99203">
        <ele>933.212</ele>
        <time>2021-09-28T09:19:41Z</time>
      </trkpt>
      <trkpt lat="44.94317" lon="3.99205">
        <ele>933.275</ele>
        <time>2021-09-28T09:20:21Z</time>
      </trkpt>
      <trkpt lat="44.94316" lon="3.99206">
        <ele>933.157</ele>
        <time>2021-09-28T09:21:01Z</time>
      </trkpt>
      <trkpt lat="44.94314" lon="3.99208">
        <ele>933.127</ele>
        <time>2021-09-28T09:21:41Z</time>
      </trkpt>
      <trkpt lat="44.94313" lon="3.99209">
        <ele>933.183</ele>
        <time>2021-09-28T09:22:21Z</time>
      </trkpt>
      <trkpt lat="44.94312" lon="3.99211">
        <ele>933.025</ele>
        <time>2021-09-28T09:23:01Z</time>
      </trkpt>
      <trkpt lat="44.9431" lon="3.99212">
        <ele>933.017</ele>
        <time>2021-09-28T09:23:41Z</time>
      </trkpt>
      <trkpt lat="44.94309" lon="3.99213">
        <ele>932.908</ele>
        <time>2021-09-28T09:24:21Z</time>
      </trkpt>
      <trkpt lat="44.94308" lon="3.99215">
        <ele>932.926</ele>
        <time>2021-09-28T09:25:01Z</time>
      </trkpt>
      <trkpt lat="44.94306" lon="3.99216">
        <ele>932.892</ele>
        <time>2021-09-28T09:25:41Z</time>
      </trkpt>
      <trkpt lat="44.94305" lon="3.99218">
        <ele>932.897</ele>
        <time>2021-09-28T09:26:21Z</time>
      </trkpt>
      <trkpt lat="44.94304" lon="3.99219">
        <ele>932.819</ele>
        <time>2021-09-28T09:27:01Z</time>
      </trkpt>
      <trkpt lat="44.94302" lon="3.99221">
        <ele>932.757</ele>
        <time>2021-09-28T09:27:41Z</time>
      </trkpt>
      <trkpt lat="44.94301" lon="3.99222">
        <ele>932.74</ele>
        <time>2021-09-28T09:28:21Z</time>
      </trkpt>
      <trkpt lat="44.94296" lon="3.99225">
        <ele>932.552</ele>
        <time>2021-09-28T09:29:01Z</time>
      </trkpt>
      <trkpt lat="44.9429" lon="3.9923">
        <ele>932.462</ele>
        <time>2021-09-28T09:29:41Z</time>
      </trkpt>
      <trkpt lat="44.94284" lon="3.99234">
        <ele>932.346</ele>
        <time>2021-09-28T09:30:21Z</time>
      </trkpt>
      <trkpt lat="44.94279" lon="3.99237">
        <ele>932.288</ele>
        <time>2021-09-28T09:31:01Z</time>
      </trkpt>
      <trkpt lat="44.94276" lon="3.99239">
        <ele>932.116</ele>
        <time>2021-09-28T09:31:41Z</time>
      </trkpt>
      <trkpt lat="44.94274" lon="3.99241">
        <ele>932.108</ele>
        <time>2021-09-28T09:32:21Z</time>
      </trkpt>
      <trkpt lat="44.94268" lon="3.99244">
        <ele>932.062</ele>
        <time>2021-09-28T09:33:01Z</time>
      </trkpt>
      <trkpt lat="44.94263" lon="3.99247">
        <ele>932.158</ele>
        <time>2021-09-28T09:33:41Z</time>
      </trkpt>
      <trkpt lat="44.94257" lon="3.9925">
        <ele>932.243</ele>
        <time>2021-09-28T09:34:21Z</time>
      </trkpt>
      <trkpt lat="44.94252" lon="3.99253">
        <ele>932.565</ele>
        <time>2021-09-28T09:35:01Z</time>
      </trkpt>
      <trkpt lat="44.94246" lon="3.99256">
        <ele>932.893</ele>
        <time>2021-09-28T09:35:41Z</time>
      </trkpt>
      <trkpt lat="44.9424" lon="3.99259">
        <ele>933.136</ele>
        <time>2021-09-28T09:36:21Z</time>
      </trkpt>
      <trkpt lat="44.94237" lon="3.99261">
        <ele>933.358</ele>
        <time>2021-09-28T09:37:01Z</time>
      </trkpt>
      <trkpt lat="44.94234" lon="3.99263">
        <ele>933.698</ele>
        <time>2021-09-28T09:37:41Z</time>
      </trkpt>
      <trkpt lat="44.94228" lon="3.99267">
        <ele>934.143</ele>
        <time>2021-09-28T09:38:21Z</time>
      </trkpt>
      <trkpt lat="44.94223" lon="3.9927">
        <ele>934.664</ele>
        <time>2021-09-28T09:39:01Z</time>
      </trkpt>
      <trkpt lat="44.94217" lon="3.99274">
        <ele>934.31</ele>
        <time>2021-09-28T09:39:41Z</time>
      </trkpt>
      <trkpt lat="44.94211" lon="3.99278">
        <ele>933.908</ele>
        <time>2021-09-28T09:40:21Z</time>
      </trkpt>
      <trkpt lat="44.94205" lon="3.99281">
        <ele>933.242</ele>
        <time>2021-09-28T09:41:01Z</time>
      </trkpt>
      <trkpt lat="44.94198" lon="3.99285">
        <ele>932.798</ele>
        <time>2021-09-28T09:41:41Z</time>
      </trkpt>
      <trkpt lat="44.94192" lon="3.99289">
        <ele>932.393</ele>
        <time>2021-09-28T09:42:21Z</time>
      </trkpt>
      <trkpt lat="44.94185" lon="3.99294">
        <ele>931.875</ele>
        <time>2021-09-28T09:43:01Z</time>
      </trkpt>
      <trkpt lat="44.94178" lon="3.99298">
        <ele>931.273</ele>
        <time>2021-09-28T09:43:41Z</time>
      </trkpt>
      <trkpt lat="44.94171" lon="3.99303">
        <ele>930.566</ele>
        <time>2021-09-28T09:44:21Z</time>
      </trkpt>
      <trkpt lat="44.94166" lon="3.99306">
        <ele>930.188</ele>
        <time>2021-09-28T09:45:01Z</time>
      </trkpt>
      <trkpt lat="44.94161" lon="3.9931">
        <ele>930.328</ele>
        <time>2021-09-28T09:45:41Z</time>
      </trkpt>
      <trkpt lat="44.94154" lon="3.99314">
        <ele>930.854</ele>
        <time>2021-09-28T09:46:21Z</time>
      </trkpt>
      <trkpt lat="44.9415" lon="3.99317">
        <ele>931.156</ele>
        <time>2021-09-28T09:47:01Z</time>
      </trkpt>
      <trkpt lat="44.94145" lon="3.99319">
        <ele>931.411</ele>
        <time>2021-09-28T09:47:41Z</time>
      </trkpt>
      <trkpt lat="44.94138" lon="3.99321">
        <ele>931.808</ele>
        <time>2021-09-28T09:48:21Z</time>
      </trkpt>
      <trkpt lat="44.9413" lon="3.99323">
        <ele>932.473</ele>
        <time>2021-09-28T09:49:01Z</time>
      </trkpt>
      <trkpt lat="44.94123" lon="3.99323">
        <ele>932.829</ele>
        <time>2021-09-28T09:49:41Z</time>
      </trkpt>
      <trkpt lat="44.94116" lon="3.99324">
        <ele>933.144</ele>
        <time>2021-09-28T09:50:21Z</time>
      </trkpt>
      <trkpt lat="44.94112" lon="3.99324">
        <ele>933.396</ele>
        <time>2021-09-28T09:51:01Z</time>
      </trkpt>
      <trkpt lat="44.94107" lon="3.99325">
        <ele>933.414</ele>
        <time>2021-09-28T09:51:41Z</time>
      </trkpt>
      <trkpt lat="44.94103" lon="3.99326">
        <ele>933.417</ele>
        <time>2021-09-28T09:52:21Z</time>
      </trkpt>
      <trkpt lat="44.94102" lon="3.99326">
        <ele>933.449</ele>
        <time>2021-09-28T09:53:01Z</time>
      </trkpt>
      <trkpt lat="44.94096" lon="3.99329">
        <ele>933.719</ele>
        <time>2021-09-28T09:53:41Z</time>
      </trkpt>
      <trkpt lat="44.94091" lon="3.99332">
        <ele>934.162</ele>
        <time>2021-09-28T09:54:21Z</time>
      </trkpt>
      <trkpt lat="44.94086" lon="3.99335">
        <ele>934.283</ele>
        <time>2021-09-28T09:55:01Z</time>
      </trkpt>
      <trkpt lat="44.9408" lon="3.9934">
        <ele>934.111</ele>
        <time>2021-09-28T09:55:41Z</time>
      </trkpt>
      <trkpt lat="44.94075" lon="3.99344">
        <ele>933.908</ele>
        <time>2021-09-28T09:56:21Z</time>
      </trkpt>
      <trkpt lat="44.94072" lon="3.99347">
        <ele>933.774</ele>
        <time>2021-09-28T09:57:01Z</time>
      </trkpt>
      <trkpt lat="44.94067" lon="3.99351">
        <ele>933.51</ele>
        <time>2021-09-28T09:57:41Z</time>
      </trkpt>
      <trkpt lat="44.94063" lon="3.99354">
        <ele>933.365</ele>
        <time>2021-09-28T09:58:21Z</time>
      </trkpt>
      <trkpt lat="44.94059" lon="3.99357">
        <ele>933.167</ele>
        <time>2021-09-28T09:59:01Z</time>
      </trkpt>
      <trkpt lat="44.94054" lon="3.99362">
        <ele>932.955</ele>
        <time>2021-09-28T09:59:41Z</time>
      </trkpt>
      <trkpt lat="44.94049" lon="3.99367">
        <ele>932.928</ele>
        <time>2021-09-28T10:00:21Z</time>
      </trkpt>
      <trkpt lat="44.94044" lon="3.99372">
        <ele>932.91</ele>
        <time>2021-09-28T10:01:01Z</time>
      </trkpt>
      <trkpt lat="44.94038" lon="3.99378">
        <ele>932.93</ele>
        <time>2021-09-28T10:01:41Z</time>
      </trkpt>
      <trkpt lat="44.94035" lon="3.99381">
        <ele>932.988</ele>
        <time>2021-09-28T10:02:21Z</time>
      </trkpt>
      <trkpt lat="44.94032" lon="3.99384">
        <ele>932.924</ele>
        <time>2021-09-28T10:03:01Z</time>
      </trkpt>
      <trkpt lat="44.94026" lon="3.99389">
        <ele>932.926</ele>
        <time>2021-09-28T10:03:41Z</time>
      </trkpt>
      <trkpt lat="44.9402" lon="3.99395">
        <ele>933.208</ele>
        <time>2021-09-28T10:04:21Z</time>
      </trkpt>
      <trkpt lat="44.94014" lon="3.994">
        <ele>933.486</ele>
        <time>2021-09-28T10:05:01Z</time>
      </trkpt>
      <trkpt lat="44.94009" lon="3.99402">
        <ele>933.332</ele>
        <time>2021-09-28T10:05:41Z</time>
      </trkpt>
      <trkpt lat="44.94005" lon="3.99405">
        <ele>933.197</ele>
        <time>2021-09-28T10:06:21Z</time>
      </trkpt>
      <trkpt lat="44.94" lon="3.99405">
        <ele>932.779</ele>
        <time>2021-09-28T10:07:01Z</time>
      </trkpt>
      <trkpt lat="44.93995" lon="3.99405">
        <ele>932.567</ele>
        <time>2021-09-28T10:07:41Z</time>
      </trkpt>
      <trkpt lat="44.9399" lon="3.99405">
        <ele>932.28</ele>
        <time>2021-09-28T10:08:21Z</time>
      </trkpt>
      <trkpt lat="44.93985" lon="3.99404">
        <ele>931.882</ele>
        <time>2021-09-28T10:09:01Z</time>
      </trkpt>
      <trkpt lat="44.93978" lon="3.99406">
        <ele>931.752</ele>
        <time>2021-09-28T10:09:41Z</time>
      </trkpt>
      <trkpt lat="44.9397" lon="3.99408">
        <ele>931.732</ele>
        <time>2021-09-28T10:10:21Z</time>
      </trkpt>
      <trkpt lat="44.93964" lon="3.9941">
        <ele>931.692</ele>
        <time>2021-09-28T10:11:01Z</time>
      </trkpt>
      <trkpt lat="44.93958" lon="3.99411">
        <ele>931.611</ele>
        <time>2021-09-28T10:11:41Z</time>
      </trkpt>
      <trkpt lat="44.93953" lon="3.99415">
        <ele>932.008</ele>
        <time>2021-09-28T10:12:21Z</time>
      </trkpt>
      <trkpt lat="44.93948" lon="3.99418">
        <ele>932.351</ele>
        <time>2021-09-28T10:13:01Z</time>
      </trkpt>
      <trkpt lat="44.93942" lon="3.99421">
        <ele>932.597</ele>
        <time>2021-09-28T10:13:41Z</time>
      </trkpt>
      <trkpt lat="44.93937" lon="3.99427">
        <ele>932.992</ele>
        <time>2021-09-28T10:14:21Z</time>
      </trkpt>
      <trkpt lat="44.93932" lon="3.99432">
        <ele>933.424</ele>
        <time>2021-09-28T10:15:01Z</time>
      </trkpt>
      <trkpt lat="44.93931" lon="3.99434">
        <ele>933.512</ele>
        <time>2021-09-28T10:15:41Z</time>
      </trkpt>
      <trkpt lat="44.9393" lon="3.99435">
        <ele>933.535</ele>
        <time>2021-09-28T10:16:21Z</time>
      </trkpt>
      <trkpt lat="44.93929" lon="3.99436">
        <ele>933.617</ele>
        <time>2021-09-28T10:17:01Z</time>
      </trkpt>
      <trkpt lat="44.93928" lon="3.99437">
        <ele>933.897</ele>
        <time>2021-09-28T10:17:41Z</time>
      </trkpt>
      <trkpt lat="44.93927" lon="3.99439">
        <ele>934.013</ele>
        <time>2021-09-28T10:18:21Z</time>
      </trkpt>
      <trkpt lat="44.93947" lon="3.99498">
        <ele>936.9</ele>
      </trkpt>
    </trkseg>
  </trk>
</gpx>